GFSSGP_700_spd_000.txt.gz
Wind_Speed
9 9 11 6 3 6 11 7 9 6 4 6 5 5 2 3 4 2 7 9 11 13 13 14 15 16 16 12 9 8 7 4 2 1 2 2 3 4 5 5 5 5 7 7 9 9 9 10 11
10 10 9 5 4 9 9 8 9 11 9 5 5 5 3 2 3 3 6 8 11 13 15 16 16 16 16 14 9 7 6 4 3 1 1 3 5 5 5 6 7 7 9 9 10 10 10 11 12
12 11 10 4 5 7 5 7 13 11 8 6 5 6 3 2 2 3 5 8 10 12 14 15 16 16 15 14 11 7 5 4 3 1 1 4 5 6 6 8 10 10 10 10 12 12 13 13 14
14 13 11 3 6 6 10 8 15 14 9 9 7 5 5 3 2 3 3 6 9 10 11 13 14 15 14 13 12 10 7 5 4 3 3 4 5 7 8 10 10 12 12 12 14 15 15 15 16
16 15 10 7 7 7 8 13 11 15 12 10 11 8 7 4 4 4 4 5 8 8 9 10 12 13 14 14 12 11 10 8 6 5 5 5 7 8 10 11 12 14 14 15 16 16 17 16 17
15 17 13 13 10 9 8 13 11 15 17 12 13 14 9 7 6 5 5 5 8 7 7 8 10 11 12 13 12 11 10 9 8 6 5 6 8 10 11 12 13 14 15 16 17 17 18 17 18
20 14 17 16 14 12 7 12 12 12 15 16 14 13 11 11 10 8 7 7 8 8 8 8 9 10 10 12 13 12 11 10 9 8 7 7 6 7 9 11 12 13 13 15 16 16 17 18 18
22 19 17 15 14 11 11 11 16 13 13 16 17 10 8 14 13 12 9 8 9 9 9 9 9 10 12 13 14 13 13 12 11 9 9 9 7 7 8 10 9 11 12 14 15 17 17 17 18
24 19 22 19 14 10 11 12 14 18 16 17 17 19 18 16 13 11 12 11 12 11 11 11 11 12 14 15 15 15 15 14 13 12 11 10 9 8 9 10 11 13 14 16 18 19 18 19 20
28 22 24 18 16 16 17 14 15 17 20 17 18 20 22 19 17 15 15 15 15 15 14 14 14 15 16 17 18 16 16 16 15 13 11 11 10 10 10 12 13 14 16 17 19 20 22 22 22
30 29 21 23 20 19 19 17 17 17 23 21 20 23 23 19 18 15 15 14 14 15 16 17 18 19 19 18 19 18 18 17 15 13 13 11 11 11 12 13 14 16 17 18 20 22 22 23 23
30 33 25 24 22 21 20 22 17 20 24 24 24 25 26 24 20 18 16 17 15 15 18 20 21 20 19 17 17 18 17 16 16 15 15 15 14 14 14 16 17 19 21 23 24 25 26 27 27
37 26 27 25 22 22 20 23 22 23 17 26 27 29 28 29 27 23 19 17 17 18 20 20 18 16 16 15 17 17 14 14 15 17 18 18 19 20 20 21 23 24 26 28 29 30 30 31 32
27 30 25 23 24 22 22 24 26 8 16 25 30 32 32 31 29 26 24 22 21 19 20 19 17 16 18 18 19 18 16 14 15 17 18 19 21 23 24 25 26 28 30 32 34 35 36 36 37
30 21 20 24 24 21 23 27 24 16 19 17 23 31 34 35 31 29 27 25 21 20 21 20 20 20 21 22 22 21 19 17 17 18 19 20 21 22 22 23 25 27 29 31 33 35 36 37 37
32 26 28 23 19 22 21 23 13 12 5 8 14 20 26 29 25 22 20 17 18 19 19 20 21 19 18 20 22 22 20 19 19 19 18 19 20 20 22 23 25 27 28 29 29 31 31 33 35
29 27 30 22 19 19 19 17 9 11 12 9 11 8 9 9 11 12 11 13 15 16 17 19 17 13 12 13 16 18 18 17 17 17 17 18 19 21 22 24 25 26 27 29 29 30 32 32 34
24 28 18 24 18 17 16 21 17 12 12 13 13 9 7 7 9 11 12 12 14 16 16 12 10 10 10 11 11 13 13 13 14 15 18 20 21 22 23 24 25 26 28 30 32 33 34 37 40
29 25 20 16 17 13 16 21 18 12 15 15 16 13 11 10 10 8 8 9 10 10 9 7 6 6 7 9 10 12 12 14 16 18 20 21 22 23 24 25 27 29 30 32 35 37 39 40 43
25 25 24 18 19 16 15 22 20 16 17 17 17 17 13 15 15 11 8 8 8 7 6 5 5 7 8 10 12 13 15 17 18 19 19 20 21 23 25 27 30 32 34 37 39 42 44 44 45
26 23 20 13 12 13 17 22 16 16 16 19 20 19 18 15 15 12 11 9 8 7 6 6 8 10 11 12 11 13 14 15 15 16 18 20 23 26 28 30 33 36 39 41 44 46 47 49 47
29 20 15 14 10 8 4 6 10 12 16 15 20 17 23 17 17 14 12 11 10 8 7 8 9 10 11 13 14 14 13 13 15 18 20 23 25 28 30 34 37 40 42 43 44 44 44 44 46
24 25 16 12 9 9 10 8 10 7 15 14 13 20 22 21 18 15 14 12 10 8 7 6 8 11 13 13 11 10 12 14 17 20 23 25 28 30 33 36 36 38 39 38 38 39 40 42 43
17 19 15 11 5 9 15 12 7 6 1 8 18 20 22 20 18 16 15 12 10 8 6 7 11 14 13 12 10 11 15 18 20 22 24 26 27 29 32 35 38 38 37 37 39 41 41 41 42
24 22 6 7 5 6 7 9 14 6 7 3 10 20 21 18 17 18 17 14 11 9 8 11 15 16 14 12 13 17 20 22 24 24 22 24 29 33 35 36 37 37 38 39 39 40 41 41 42
36 24 7 5 6 6 11 7 3 2 1 10 11 17 22 20 19 20 18 15 12 10 11 16 19 18 17 17 20 24 26 28 28 25 27 31 35 39 38 38 39 39 39 39 39 40 42 43 45
25 23 9 5 3 3 6 5 7 6 2 9 11 24 25 22 19 22 19 15 13 12 14 18 21 21 20 22 26 29 31 31 30 31 34 38 39 41 41 39 38 39 38 39 40 41 44 47 49
21 24 10 5 5 5 5 4 4 2 5 4 11 20 27 24 23 23 20 16 14 14 17 20 24 23 23 26 29 32 33 33 33 35 38 40 42 42 39 38 38 38 39 41 43 46 49 53 56
20 26 12 11 4 3 3 5 10 5 4 4 8 17 27 26 23 21 19 17 16 16 19 21 24 24 26 29 31 34 34 35 36 39 42 42 44 41 38 38 38 39 40 43 47 50 54 57 59
20 18 19 14 6 5 1 2 11 4 7 1 4 14 25 24 22 21 20 20 19 19 21 23 25 26 29 31 34 35 37 37 38 42 44 45 42 39 39 39 40 41 43 46 50 54 57 59 61

GFSSGP_700_spd_003.txt.gz
Wind_Speed
11 9 9 9 2 7 12 11 7 6 4 7 8 10 5 4 5 3 5 6 9 11 12 13 14 15 15 15 11 10 8 6 4 4 3 5 5 6 7 7 8 8 9 9 10 11 12 14 15
12 10 7 7 4 11 13 12 10 7 7 6 7 7 3 1 3 2 2 5 8 10 12 13 14 14 14 13 11 9 8 6 5 4 4 5 5 7 7 8 8 9 9 11 12 13 15 16 15
13 12 6 4 5 11 5 7 7 10 6 6 1 6 5 3 4 2 3 4 7 9 10 12 13 13 13 13 13 12 9 7 6 5 5 5 7 9 9 10 11 11 12 12 14 15 16 17 17
14 9 10 8 10 9 13 7 11 11 6 7 7 3 9 7 6 5 5 5 7 9 10 11 11 11 11 11 11 11 10 9 8 7 7 7 9 10 11 12 13 13 14 15 16 17 17 18 20
13 11 13 14 12 10 8 11 13 16 14 12 11 4 4 9 9 8 7 6 6 8 9 10 11 11 10 10 10 10 10 10 10 8 8 10 10 11 13 14 14 15 15 16 17 17 19 20 21
15 11 16 17 14 11 9 11 11 11 10 10 9 12 8 11 10 10 9 8 7 7 9 10 12 12 12 12 12 11 11 11 12 11 11 10 10 12 14 15 15 16 17 18 19 19 19 20 20
20 16 21 19 18 15 12 11 9 13 11 8 17 12 7 16 14 13 10 10 9 8 10 10 13 13 14 15 14 13 13 13 13 13 13 12 11 11 12 14 15 17 18 18 19 18 18 19 19
20 19 23 21 20 18 13 12 10 13 14 14 18 8 9 20 16 16 14 12 11 11 12 12 15 15 16 18 18 18 16 16 16 15 15 15 14 14 14 14 14 15 16 16 18 17 19 19 22
27 23 25 23 20 17 13 11 11 14 19 19 17 20 16 20 17 16 14 13 12 13 15 16 16 18 19 22 21 20 20 19 19 17 16 17 17 16 16 16 16 16 16 18 19 21 22 23 25
28 26 29 20 18 19 14 15 14 16 15 15 16 17 21 24 19 17 15 15 14 16 17 18 18 19 20 22 22 20 20 19 20 18 17 17 17 17 17 18 18 19 19 19 20 20 21 22 23
27 34 23 22 21 19 18 18 15 17 22 19 14 15 16 24 21 19 16 15 14 15 16 18 19 21 22 22 20 20 20 20 19 18 18 19 18 18 17 19 19 20 20 21 21 23 23 24 25
33 29 30 23 22 19 20 20 21 19 22 21 23 23 23 27 22 21 19 17 16 16 17 19 20 22 21 19 18 19 20 18 17 18 18 20 20 21 20 21 22 24 25 26 26 27 29 30 31
35 32 27 27 25 21 21 25 26 25 21 19 24 26 30 28 29 28 24 20 18 18 19 22 21 21 18 18 19 21 21 19 18 19 19 19 21 22 22 23 25 27 28 29 30 31 32 33 35
30 30 30 24 24 23 22 24 22 24 16 19 22 28 31 33 32 29 28 25 23 24 24 23 21 19 18 21 23 23 21 21 20 21 20 19 20 22 23 24 26 27 28 29 30 31 32 34 34
34 25 26 31 25 24 21 27 28 23 18 23 21 24 33 35 34 32 30 29 28 29 26 23 22 19 21 24 26 25 22 21 20 21 20 20 21 22 23 25 26 27 28 29 30 31 32 33 35
39 37 31 28 26 25 22 26 14 11 18 11 15 19 23 30 34 35 32 32 31 27 23 22 21 21 22 22 23 23 21 21 20 21 21 20 22 23 24 26 28 29 30 31 31 33 34 35 36
34 36 39 26 25 24 23 21 18 19 21 15 13 15 14 17 19 20 22 23 22 20 19 19 19 19 17 17 18 18 19 19 19 21 22 21 22 24 26 28 29 30 31 32 34 36 37 38 39
34 40 27 33 27 26 27 27 22 15 14 14 12 16 12 12 13 15 15 15 15 16 16 17 17 13 12 11 12 14 16 18 19 21 22 23 25 26 27 29 30 31 33 35 37 38 39 41 43
34 30 34 23 28 29 26 25 22 20 19 16 15 17 14 12 13 14 14 14 15 15 15 11 8 7 8 9 11 13 15 17 20 22 23 24 25 27 28 30 32 33 36 38 40 43 43 42 44
32 28 33 23 20 20 18 22 22 21 21 20 17 20 19 17 16 15 14 13 13 12 10 7 6 6 8 10 12 14 17 19 21 22 23 24 26 27 29 32 34 36 38 40 41 42 43 43 43
40 34 30 26 21 17 15 24 26 24 25 25 22 23 22 20 20 18 15 14 12 10 8 7 6 8 10 11 13 16 18 18 19 19 21 23 26 29 32 35 37 38 38 39 40 41 40 40 40
42 42 28 21 18 14 16 7 15 21 25 21 23 28 26 25 22 21 18 15 12 10 8 7 8 8 9 11 14 15 15 15 17 19 23 26 30 32 33 34 34 36 38 38 37 37 38 40 42
36 30 27 21 16 7 12 9 19 15 18 22 20 27 28 29 25 23 19 16 13 11 9 8 7 7 8 10 11 12 13 15 19 23 27 30 31 30 28 30 32 32 33 35 37 37 38 39 40
30 27 25 17 11 9 17 16 13 17 16 18 20 25 32 30 27 24 20 18 15 13 12 10 7 8 11 12 12 12 15 19 23 26 29 28 26 28 30 33 35 35 35 36 37 38 38 39 39
29 34 8 7 8 7 11 14 17 4 11 10 13 23 26 29 27 24 21 19 18 16 14 12 10 11 14 16 15 16 19 23 27 29 29 27 28 32 34 36 37 36 36 37 37 38 38 39 41
44 35 14 9 10 13 10 8 8 13 13 13 10 15 25 29 26 24 23 22 20 18 16 14 13 15 18 20 18 21 24 28 31 33 32 32 34 37 37 39 38 37 38 38 38 39 40 42 44
34 39 8 9 7 13 11 11 5 8 5 9 15 21 26 29 26 26 26 24 21 19 17 15 16 18 21 23 23 26 29 32 34 35 35 36 38 40 41 40 38 38 38 39 39 40 42 45 47
22 21 9 5 7 6 9 9 7 9 5 6 17 20 29 30 27 27 28 26 22 19 17 17 18 21 24 25 26 29 32 34 37 37 38 39 41 42 41 39 38 37 38 39 40 42 45 48 50
28 18 8 9 1 3 6 6 11 6 4 5 9 18 24 31 30 26 28 27 22 19 19 19 21 23 26 28 30 32 34 37 39 40 42 41 42 41 40 38 37 38 39 41 43 45 48 51 54
16 23 18 13 6 7 5 7 11 5 2 3 4 9 19 30 28 26 27 26 22 22 21 22 23 25 29 30 32 35 36 39 41 42 43 42 42 41 39 39 39 40 42 44 45 48 50 53 55

GFSSGP_700_spd_006.txt.gz
Wind_Speed
10 10 9 8 2 3 10 13 7 0 5 8 10 9 3 5 5 2 2 4 6 9 10 12 13 14 14 14 13 12 10 9 9 6 5 5 6 7 8 9 7 8 8 9 10 10 12 12 13
11 11 8 7 3 7 9 10 6 6 12 9 5 4 1 1 8 5 2 4 6 8 9 11 13 14 14 13 12 12 11 9 9 8 7 6 6 7 8 10 8 8 9 10 11 11 14 13 15
12 12 9 4 8 9 5 6 6 11 10 5 3 4 4 4 7 5 3 4 5 8 9 11 12 14 14 14 13 13 12 11 10 9 9 8 8 8 9 10 10 11 11 12 14 14 15 16 17
14 9 7 11 12 10 9 12 9 14 14 6 7 3 10 10 11 8 6 6 6 7 8 11 13 14 15 16 15 14 14 13 12 11 10 10 10 12 12 12 12 13 14 14 15 17 17 18 19
15 12 13 13 16 12 10 7 13 14 14 9 7 8 5 7 11 11 10 8 9 8 8 10 12 13 15 16 16 17 16 14 13 13 12 12 11 13 14 15 14 15 16 17 17 19 19 20 21
16 11 15 19 17 15 13 8 14 14 7 15 11 12 8 12 13 12 10 10 10 9 8 10 12 14 15 16 18 18 18 17 16 15 14 14 14 14 15 15 16 17 18 19 19 20 20 21 20
21 19 20 18 20 15 8 12 17 6 15 7 14 13 9 12 16 14 12 10 12 11 12 11 14 15 15 16 19 21 20 19 18 18 17 15 16 16 16 16 17 17 17 18 18 18 19 19 19
23 18 25 23 21 21 14 18 20 16 19 17 15 10 8 12 14 15 13 13 12 13 13 13 15 16 16 17 20 21 22 21 20 19 19 17 16 16 16 16 17 17 18 18 18 18 19 19 20
17 26 28 26 23 19 14 16 15 13 18 19 18 21 11 20 15 17 14 13 13 13 14 17 18 16 16 17 20 21 21 20 21 19 18 18 16 16 15 15 14 15 15 16 16 17 17 17 18
31 29 37 22 18 20 18 15 16 16 16 16 11 12 15 21 24 20 16 15 14 14 14 15 16 17 19 21 21 20 19 21 21 19 18 18 16 16 16 15 15 15 15 15 16 18 19 20 21
32 40 30 22 22 19 22 21 20 21 16 16 16 11 16 14 23 19 18 16 16 13 13 16 16 17 18 20 21 19 20 20 20 19 19 18 18 18 17 17 16 17 17 19 21 22 23 24 25
31 33 27 29 22 22 27 30 27 23 22 19 20 24 27 25 28 19 18 20 17 16 16 15 17 19 20 20 19 19 21 21 20 17 18 18 18 18 19 20 21 22 23 23 25 27 27 28 29
37 33 29 28 28 25 22 28 31 29 26 22 18 21 24 26 27 22 24 22 19 19 18 18 20 20 19 19 18 21 21 21 21 19 17 16 18 19 20 21 22 23 25 27 28 29 29 29 29
30 36 34 31 28 27 26 28 25 28 20 17 16 19 26 28 27 29 25 25 25 26 24 23 23 21 20 19 20 22 23 23 22 20 18 18 18 20 21 22 24 25 27 28 29 31 31 31 32
32 31 31 39 31 30 22 32 31 28 21 18 19 24 23 28 30 29 28 27 26 27 26 27 25 22 21 20 22 24 23 23 21 20 19 20 20 21 23 25 25 27 28 30 31 32 33 34 36
27 32 38 39 32 34 26 34 30 12 13 19 19 18 20 22 25 31 30 29 28 29 29 26 23 21 21 22 23 24 22 22 21 21 20 21 21 24 25 26 28 31 32 34 34 36 36 37 39
30 32 46 41 29 29 30 33 31 18 16 19 20 14 22 19 20 22 24 26 27 29 26 22 19 19 20 22 21 20 19 19 19 20 21 21 22 25 27 28 30 33 35 36 37 38 40 41 42
30 30 32 39 39 27 32 32 27 13 19 23 18 12 24 22 15 14 17 19 22 22 18 17 17 18 18 16 16 16 15 17 19 21 22 23 24 27 28 29 31 33 35 37 39 41 42 44 44
31 31 25 35 26 30 34 35 30 26 21 21 17 16 25 20 13 15 15 16 16 15 15 16 17 14 12 12 11 13 15 17 19 21 22 24 25 27 29 30 32 34 38 40 43 43 41 38 40
38 31 34 27 26 33 32 34 31 31 26 26 22 20 25 17 15 15 17 16 15 15 16 14 12 10 9 10 11 14 15 18 19 20 21 22 25 27 28 31 35 38 39 39 37 37 36 36 38
36 42 38 34 32 29 30 30 28 27 26 28 22 24 28 21 18 19 18 17 16 15 13 12 10 9 9 10 12 13 15 16 17 18 20 21 24 28 31 34 35 34 32 33 34 34 35 36 35
38 44 42 34 37 20 27 7 28 35 35 33 31 29 32 23 23 23 22 20 18 15 14 12 10 9 9 9 10 11 13 14 15 17 20 24 27 31 32 31 30 32 33 32 32 33 35 38 38
43 41 40 38 22 26 23 14 28 14 32 35 30 33 36 29 26 26 24 23 20 16 14 12 10 9 7 6 8 10 12 14 17 20 25 28 30 29 29 29 31 31 32 32 33 35 35 36 37
39 35 34 35 35 12 24 24 11 26 26 27 29 30 31 30 29 29 27 25 21 18 16 14 11 8 5 6 10 12 14 16 20 24 27 28 29 28 29 31 33 34 33 34 35 35 36 37 38
39 29 13 9 10 4 29 19 2 15 20 19 22 27 31 30 29 32 29 26 23 21 18 15 12 9 7 10 14 16 17 19 23 25 27 30 31 32 33 34 35 34 34 35 36 36 37 38 39
42 44 6 4 3 6 30 11 7 20 15 18 18 17 24 26 31 31 29 27 25 22 19 16 13 11 11 14 18 20 20 22 25 28 31 34 35 36 37 38 37 36 36 36 36 37 38 40 40
28 44 44 12 20 7 10 9 14 15 16 17 18 20 19 21 30 31 30 28 26 23 19 16 14 14 15 18 21 23 24 27 29 32 34 37 38 39 40 40 38 37 37 38 39 39 40 42 43
21 41 25 16 6 6 10 23 13 21 17 16 17 18 16 23 29 31 30 29 28 24 19 16 16 17 19 21 23 26 27 30 32 34 37 39 40 41 41 41 40 39 38 39 41 42 43 46 47
26 24 19 11 5 6 5 3 16 17 13 12 14 15 17 25 29 32 30 29 28 24 21 18 18 19 22 24 26 29 30 32 36 37 40 41 42 43 43 42 41 40 40 41 43 45 47 49 50
32 33 20 4 3 8 10 6 16 15 9 7 10 12 15 23 31 31 29 28 28 26 23 21 21 22 24 26 29 32 33 36 39 40 42 43 44 45 45 45 43 42 42 44 46 49 49 51 52

GFSSGP_700_spd_009.txt.gz
Wind_Speed
10 10 9 7 2 3 6 11 1 5 6 10 6 10 3 1 4 4 1 3 5 6 9 11 13 14 15 16 16 16 15 13 11 9 7 6 6 6 7 8 8 8 8 8 8 9 10 10 12
11 11 10 8 3 5 6 8 6 8 8 9 9 8 2 1 3 5 4 1 1 5 7 9 11 13 15 16 17 17 17 16 15 12 10 9 8 7 7 8 8 9 9 10 9 10 11 12 13
12 12 11 5 6 7 4 3 2 5 8 13 10 6 3 6 8 6 6 3 3 4 7 8 11 13 15 17 17 17 17 17 16 15 13 11 9 9 9 9 10 10 10 12 13 12 13 14 14
14 11 11 12 13 6 9 9 12 6 8 11 12 4 5 6 8 7 8 6 5 5 5 7 9 12 14 16 18 19 19 17 17 16 15 14 13 12 12 11 12 13 13 13 14 14 15 16 16
15 15 15 14 14 11 6 15 12 14 11 13 13 7 7 6 6 10 10 9 8 7 8 8 10 11 13 14 17 20 20 19 18 17 16 16 14 13 12 10 11 14 14 15 15 15 15 15 16
19 16 16 19 19 11 11 16 16 18 13 10 10 8 9 9 10 10 11 12 9 7 8 8 10 12 13 13 15 19 20 19 18 17 17 15 15 14 13 12 11 12 13 13 13 13 13 13 13
23 21 23 21 20 18 8 12 15 16 12 11 11 10 10 6 9 11 12 13 9 9 9 9 11 13 13 13 15 18 19 19 19 19 17 16 15 14 13 12 11 10 10 10 11 12 13 13 13
25 25 28 27 23 22 11 11 15 18 18 16 12 6 3 9 10 11 12 12 11 10 9 10 11 13 12 13 15 18 18 18 19 19 17 15 14 13 12 12 11 10 10 9 9 9 10 11 12
27 31 36 33 29 25 11 12 16 18 22 18 21 14 9 12 12 14 14 14 13 13 12 10 12 12 12 13 15 17 17 17 17 16 15 14 13 12 12 10 10 9 9 9 10 11 12 14 15
33 40 41 34 27 27 19 14 17 23 25 21 16 16 9 10 17 21 19 16 15 14 14 12 10 11 11 12 16 17 16 16 15 14 13 12 11 10 10 10 10 11 12 14 15 16 17 19 20
38 45 38 34 29 22 22 23 21 21 26 23 14 16 12 12 12 15 18 21 18 16 15 13 13 13 13 13 16 15 14 17 16 15 13 14 11 11 13 14 14 15 16 18 19 20 20 21 21
37 39 39 36 29 29 29 23 28 29 33 25 21 20 25 23 21 23 19 20 20 19 16 14 14 15 16 17 17 17 16 17 16 15 13 13 14 14 15 16 18 20 20 21 23 23 24 25 26
36 35 32 33 34 32 29 27 25 35 36 35 28 21 25 28 31 31 27 26 22 20 19 16 16 18 18 17 19 19 20 20 20 17 16 16 16 15 17 19 20 23 24 25 26 27 28 28 28
26 32 37 34 32 29 34 34 26 31 30 29 22 21 21 19 25 29 29 28 25 23 22 22 20 20 22 20 19 19 20 22 20 19 18 17 17 17 19 20 21 23 25 26 27 29 30 32 33
32 33 35 39 37 37 29 35 37 33 29 26 17 21 19 24 27 29 29 27 27 23 23 21 22 23 23 21 21 21 21 23 21 20 19 19 18 20 21 23 24 26 28 28 30 31 32 34 36
30 34 41 36 37 39 30 47 34 26 25 16 15 20 20 22 23 23 25 26 27 25 24 23 25 25 24 21 21 22 22 23 20 18 18 20 21 22 22 24 26 29 30 32 33 34 35 36 38
28 30 30 38 36 34 37 46 37 29 25 17 14 19 21 23 19 18 21 23 25 25 25 25 25 24 22 21 21 22 20 17 17 18 19 21 21 22 23 25 27 29 31 33 35 36 39 40 38
26 25 33 28 36 35 36 39 39 36 25 25 21 20 23 24 21 18 16 19 22 23 25 23 22 20 19 18 20 18 17 16 17 18 20 21 21 23 24 25 27 30 33 35 37 38 38 36 35
33 28 22 32 28 27 42 39 35 31 24 22 25 24 26 24 21 19 17 18 19 20 19 17 17 16 17 17 15 15 15 15 17 18 19 20 21 22 24 27 29 32 35 36 34 31 31 33 33
37 36 43 30 25 25 33 45 38 33 31 29 25 25 25 24 23 19 17 16 16 16 15 15 15 15 13 13 13 14 15 15 15 17 18 18 19 22 25 28 31 32 32 29 31 31 30 31 35
34 37 37 39 27 26 31 37 45 40 35 34 34 29 31 27 21 21 18 16 16 16 15 14 15 14 13 13 13 12 13 13 14 16 16 17 20 24 27 29 30 28 30 30 31 31 31 30 31
35 34 32 30 26 27 19 13 39 44 40 40 33 32 34 32 29 24 20 19 19 18 16 15 15 13 13 11 10 10 10 11 13 14 16 19 23 25 27 27 27 28 30 30 30 31 32 32 31
38 31 27 26 29 34 36 17 36 31 43 38 37 36 38 32 30 24 24 23 21 20 18 16 15 13 11 9 6 5 8 11 14 16 19 21 23 24 25 26 27 29 30 30 30 31 32 34 35
30 25 23 20 26 20 34 23 20 38 39 35 44 37 39 35 34 28 27 26 24 23 21 19 16 13 10 7 4 6 10 13 15 18 21 22 23 25 27 29 31 32 33 33 33 33 34 35 36
29 25 6 10 8 11 18 25 31 21 32 29 41 46 42 38 35 33 31 30 28 25 22 20 16 13 9 5 6 9 12 15 18 21 23 25 27 29 31 33 34 35 36 36 35 35 36 37 38
30 35 12 7 7 8 17 9 28 22 32 25 21 30 40 35 32 29 32 32 29 26 24 20 16 13 9 8 9 12 16 18 21 23 26 29 31 33 34 36 37 38 39 38 37 37 38 40 40
31 33 48 10 16 5 9 11 26 19 22 26 25 26 24 23 26 29 34 34 31 28 25 21 17 14 12 11 13 16 19 22 24 27 29 32 34 36 38 39 40 40 40 39 39 40 41 42 44
39 33 30 18 5 7 8 26 20 33 29 27 27 26 24 21 23 28 34 35 31 28 25 22 18 16 14 14 16 20 22 25 28 30 33 35 37 39 40 41 42 42 41 40 41 42 43 45 46
37 26 28 21 25 2 5 8 22 32 26 24 20 17 19 16 21 27 34 33 31 29 26 23 19 17 16 17 19 23 25 28 31 33 36 38 40 41 42 43 43 43 42 42 43 44 46 48 48
31 28 34 22 15 25 7 2 19 24 18 14 13 13 17 17 21 26 31 31 30 28 26 23 20 19 19 20 23 26 28 31 33 36 39 41 42 43 44 45 45 44 43 43 44 47 48 49 50

GFSSGP_700_spd_012.txt.gz
Wind_Speed
12 12 9 8 5 5 9 2 6 9 8 14 9 8 11 10 1 2 2 1 2 4 6 8 10 12 14 15 15 15 16 15 15 13 12 12 10 7 6 6 6 8 8 8 7 7 8 8 9
14 13 10 9 7 8 5 1 5 8 9 8 7 7 6 6 6 2 4 4 2 3 4 6 8 10 13 14 16 16 16 16 15 14 14 12 12 9 7 6 6 7 8 8 8 9 9 10 11
16 14 12 7 12 12 5 2 1 4 7 10 12 11 7 7 7 5 4 5 3 4 4 5 7 8 11 12 15 16 17 16 15 14 13 12 12 10 8 7 7 8 9 10 10 11 10 11 11
17 15 13 16 16 13 10 0 6 9 5 8 14 17 6 8 9 7 8 7 6 5 3 4 5 8 10 11 13 16 17 16 15 14 14 13 12 11 9 7 8 9 9 10 11 11 11 11 11
19 18 17 18 19 14 9 6 7 15 12 10 12 13 8 10 10 8 8 8 8 7 5 5 6 7 9 9 11 15 17 17 16 15 13 12 11 9 7 5 6 6 7 8 9 9 9 9 9
21 21 20 26 25 16 14 6 9 16 16 13 14 12 12 10 10 9 10 9 11 10 7 5 6 8 9 8 11 14 16 16 16 16 15 12 11 9 8 7 6 6 6 6 6 6 6 7 8
24 25 30 29 26 20 15 6 10 17 15 14 14 10 12 11 13 9 8 10 10 10 9 6 6 8 9 8 10 13 15 15 16 15 14 12 11 9 7 6 6 5 6 6 7 7 7 8 8
28 28 33 33 29 24 18 11 6 13 16 14 14 9 11 11 12 10 9 10 11 11 10 7 8 9 8 8 10 12 13 13 16 14 12 11 11 9 8 7 6 6 6 7 8 8 10 11 12
31 34 38 37 33 25 23 12 9 11 18 19 17 15 10 11 11 13 13 13 11 12 12 9 10 10 9 9 9 11 12 12 14 13 12 11 10 10 9 8 9 10 9 10 11 13 14 16 17
35 43 46 38 34 29 24 24 15 10 18 23 22 21 20 15 14 13 17 16 14 14 14 13 12 10 10 9 10 12 12 12 13 12 12 11 10 9 9 10 10 11 13 14 16 17 19 20 20
39 48 42 40 36 30 30 31 25 20 20 22 24 18 15 14 13 18 20 20 19 18 16 15 13 12 11 10 11 12 14 13 14 13 11 10 10 10 10 12 13 13 15 16 17 17 17 17 18
41 44 43 40 37 33 33 29 30 28 24 22 27 22 22 18 20 17 21 22 23 20 21 18 15 14 12 13 14 14 15 15 15 15 14 14 13 13 13 15 15 16 16 17 17 19 20 20 22
40 41 40 40 39 38 31 36 35 35 27 23 26 30 25 28 27 25 24 24 26 23 21 20 18 16 15 15 16 16 15 15 17 17 16 15 14 15 15 16 18 18 18 19 21 22 24 25 25
33 36 39 38 39 39 38 38 39 40 32 32 31 35 32 29 31 36 33 32 31 29 25 23 20 19 19 19 19 19 18 17 18 18 17 15 16 18 17 18 18 19 20 21 23 25 26 27 27
33 38 35 40 38 37 29 44 50 40 37 38 35 29 24 29 30 30 32 35 34 29 26 25 23 21 21 21 22 22 20 21 20 19 17 16 17 18 19 20 20 21 23 24 26 28 29 30 31
26 33 37 36 32 35 31 61 41 39 37 39 33 30 27 25 29 28 25 26 26 27 25 27 24 23 23 24 23 23 21 21 21 18 17 17 18 20 20 21 21 23 25 26 28 29 31 33 32
26 27 25 27 31 29 34 56 43 36 36 38 32 24 21 27 27 22 19 22 25 26 27 28 27 26 26 26 22 21 20 21 18 17 17 18 19 20 21 21 22 24 26 28 31 33 33 31 28
29 31 32 33 19 25 40 50 41 38 35 37 28 25 21 27 24 21 22 21 22 24 27 30 30 29 27 21 20 20 21 18 17 18 17 19 19 20 20 21 24 26 28 31 32 32 30 30 29
35 31 35 25 10 29 33 38 41 40 40 38 35 31 28 27 24 25 24 23 22 23 28 31 31 26 21 17 19 18 17 16 15 16 16 18 18 19 20 22 25 28 30 30 27 27 29 31 31
38 37 37 33 26 22 29 39 35 41 43 37 31 31 28 33 29 28 25 22 21 21 25 25 22 19 17 18 18 17 15 14 14 15 16 16 17 19 21 24 27 29 29 27 28 28 29 31 32
36 41 40 36 29 32 31 44 38 38 43 40 35 31 27 35 30 26 21 22 19 19 18 18 18 17 17 17 17 14 13 14 14 13 15 15 17 20 23 26 27 27 27 28 29 30 30 31 33
36 31 28 28 20 17 10 18 29 31 41 42 39 38 34 35 33 31 27 21 20 19 19 19 18 18 17 15 13 13 12 11 11 12 14 16 20 23 24 25 25 25 26 28 30 31 32 32 33
31 30 27 25 23 24 34 20 35 31 35 37 42 41 42 39 39 34 29 23 22 22 21 20 18 16 15 14 13 11 8 8 9 12 15 18 21 22 23 24 25 27 29 31 32 34 35 36 36
17 14 20 18 18 15 38 23 31 38 37 35 34 42 43 42 42 37 33 29 26 24 23 21 19 18 16 14 12 9 6 7 10 12 16 19 21 23 24 26 28 30 32 34 35 36 37 37 38
25 24 5 8 9 9 13 24 42 18 30 30 31 39 42 43 43 39 36 32 28 26 25 23 20 17 16 14 12 8 7 8 11 14 18 21 23 26 28 31 32 34 36 37 38 39 39 38 39
30 33 10 6 3 7 16 14 21 31 36 29 34 40 41 44 42 41 37 33 27 29 27 24 21 19 17 14 11 9 9 12 14 18 21 24 27 30 33 35 36 37 39 41 41 40 40 40 41
26 31 39 12 17 10 14 19 35 34 28 33 29 34 40 50 44 41 39 35 30 32 29 26 22 20 18 16 12 11 12 15 18 21 25 27 30 33 36 38 39 40 42 43 43 42 42 42 43
36 28 16 23 5 6 7 15 21 19 29 37 34 29 31 42 46 41 38 33 30 33 31 28 23 20 18 15 13 13 14 17 21 24 28 30 33 36 39 40 41 42 44 45 44 43 43 44 45
33 33 20 21 20 3 5 9 28 22 21 23 28 29 29 32 32 36 34 29 31 35 32 28 25 20 17 16 15 16 17 20 24 28 31 33 36 39 41 41 43 44 45 45 44 44 45 46 48
37 44 37 18 14 24 8 13 12 34 28 25 28 26 25 28 27 29 29 29 34 36 33 29 24 21 19 18 18 18 20 24 27 30 33 35 38 41 42 43 45 46 46 44 45 45 47 49 50

GFSSGP_700_spd_015.txt.gz
Wind_Speed
16 15 13 11 7 7 9 3 8 5 11 12 9 11 10 9 7 4 8 4 2 2 4 5 7 8 10 11 13 13 13 13 13 13 13 11 10 8 6 4 4 5 5 5 5 6 6 7 8
17 15 15 12 10 10 7 5 5 5 8 6 7 10 13 13 8 7 5 4 3 2 3 4 5 6 8 10 12 13 14 13 12 11 11 11 10 8 5 4 4 4 5 6 6 7 7 8 9
19 17 16 10 14 17 8 6 6 6 7 8 9 11 11 11 9 8 5 4 3 3 3 4 5 5 7 9 11 13 14 13 12 11 10 8 7 6 5 4 4 5 6 7 8 9 9 10 10
20 19 17 19 20 14 12 6 5 4 5 10 10 8 11 13 13 10 8 7 6 6 4 3 4 5 7 8 9 12 14 14 13 12 11 10 8 6 4 3 4 6 7 8 9 10 10 11 11
22 22 22 21 24 21 16 11 7 7 5 10 12 11 10 13 13 13 11 10 9 8 6 3 3 3 5 6 8 11 13 13 14 13 11 10 8 6 4 4 4 5 6 7 7 9 9 10 10
24 25 23 29 29 20 17 13 11 10 8 12 14 16 13 12 13 13 13 12 12 11 9 6 5 5 5 5 7 10 12 12 14 13 12 12 11 8 5 3 5 5 5 6 6 7 7 8 9
27 28 33 33 30 24 19 16 11 12 10 15 14 15 17 13 13 14 13 12 12 12 10 8 7 6 6 5 7 9 11 11 13 13 12 12 11 10 8 6 6 6 7 8 8 8 8 9 10
29 29 34 36 34 28 19 18 12 11 9 14 13 12 16 14 13 15 15 14 13 13 12 10 9 7 7 6 7 9 10 10 12 12 11 10 10 9 8 6 6 6 5 6 7 9 9 11 12
31 32 41 40 36 29 20 21 18 17 14 10 15 15 16 17 18 15 14 15 13 11 12 12 11 9 8 7 6 8 9 10 11 11 11 10 10 9 8 9 8 8 9 9 10 11 13 13 13
34 41 45 41 37 31 26 24 19 20 16 15 17 17 18 18 16 15 18 19 15 13 13 13 13 12 10 9 8 8 10 11 11 11 10 11 12 11 11 10 11 11 12 13 13 13 13 13 14
38 45 42 41 37 35 32 33 30 28 24 18 16 17 17 19 23 22 21 21 17 18 16 14 15 14 12 10 9 10 12 13 13 12 11 11 12 13 13 13 13 13 14 14 14 14 14 14 16
38 41 42 42 38 36 37 34 35 34 32 25 18 19 22 20 23 28 26 24 22 19 17 18 17 16 15 13 12 12 14 15 15 13 13 13 13 14 13 15 15 15 15 14 15 16 18 19 19
35 39 40 40 39 40 39 40 38 39 33 30 27 23 20 21 23 26 25 25 27 28 20 17 20 19 18 16 15 15 17 18 16 16 17 16 15 14 14 15 15 16 16 17 17 19 20 20 22
31 30 38 40 40 41 43 45 40 42 34 36 32 30 27 26 26 28 31 29 29 27 25 22 23 23 22 19 19 19 19 19 18 18 18 15 15 15 16 17 17 17 18 19 20 21 22 22 23
32 35 37 34 34 41 39 50 52 43 38 42 39 36 34 31 29 35 36 37 36 32 30 28 29 28 25 23 23 23 22 21 19 19 18 16 15 17 17 17 18 19 21 21 22 23 24 25 27
20 28 33 31 32 33 31 60 21 37 40 43 44 42 39 33 32 35 33 34 33 32 29 30 31 29 28 28 26 26 23 22 20 19 17 16 16 17 17 19 20 21 23 23 24 26 28 29 28
24 27 22 15 19 23 31 48 37 37 34 42 45 45 44 34 33 35 33 31 26 27 26 26 29 30 30 30 27 27 23 22 21 19 17 16 16 18 18 20 21 22 24 26 28 30 30 27 25
18 23 26 26 22 22 29 46 42 40 34 38 45 46 43 34 29 31 30 25 23 20 22 25 28 31 31 29 28 26 23 22 21 18 17 16 17 18 19 21 21 24 26 28 30 30 27 27 26
32 28 27 22 14 22 33 42 39 43 46 42 42 45 40 32 28 27 27 25 23 23 23 24 27 31 32 28 26 24 22 21 18 17 16 16 18 18 20 20 23 26 28 29 28 27 28 29 28
38 40 39 37 33 30 37 49 40 43 44 45 41 43 41 35 31 27 26 23 23 24 24 26 28 28 26 24 25 24 21 20 18 16 16 16 16 18 19 22 25 27 27 27 27 28 30 31 31
34 33 33 38 34 37 38 56 49 44 43 43 46 41 39 41 33 31 30 23 23 23 22 23 24 23 22 23 24 23 22 17 15 15 14 14 16 18 21 24 25 26 26 26 27 28 30 32 34
34 31 26 27 23 16 13 18 33 31 38 44 44 45 38 35 36 33 31 25 20 20 20 18 19 20 21 22 21 19 16 15 14 12 12 14 17 20 22 24 25 25 26 26 28 30 32 34 36
25 20 23 23 24 26 33 21 26 19 37 38 41 41 40 36 37 33 31 28 24 21 18 18 19 21 21 20 19 18 15 13 10 11 12 15 18 21 22 24 25 26 27 29 31 33 35 37 39
26 19 19 17 22 20 27 26 40 35 38 35 33 33 38 38 40 35 31 29 28 24 19 21 22 21 20 20 18 16 13 10 9 10 12 15 18 21 24 26 28 29 30 32 34 36 38 39 40
24 23 4 6 9 8 3 22 45 17 15 26 34 28 32 40 45 40 38 31 31 26 21 24 24 22 21 19 17 15 13 10 9 10 13 17 20 23 26 29 31 33 34 35 37 39 41 41 41
28 34 11 6 4 5 24 16 28 29 29 36 21 30 33 38 46 43 39 31 30 28 23 25 26 24 21 19 18 16 12 10 11 13 15 19 23 26 29 32 35 36 37 39 40 42 43 42 42
17 31 38 19 18 6 11 23 32 41 39 30 34 30 32 36 41 41 37 34 32 29 23 27 27 25 22 20 19 16 13 12 13 15 18 22 26 29 32 35 38 40 40 42 43 43 43 42 43
32 17 13 22 5 7 11 16 19 13 17 26 31 32 34 36 35 37 35 34 32 31 25 29 30 25 22 22 20 16 15 15 16 18 22 25 29 32 35 38 41 42 43 44 44 44 44 43 43
31 37 18 16 18 4 4 14 19 22 27 29 23 31 34 31 33 36 36 33 32 32 27 32 31 27 25 23 20 18 17 17 19 22 25 28 32 35 37 40 43 43 43 45 45 44 44 44 46
33 36 40 10 8 22 16 20 16 15 24 17 15 22 28 22 18 25 32 33 34 31 30 34 31 28 26 23 21 20 20 20 23 25 28 31 35 38 40 43 44 44 44 44 44 44 45 46 48

GFSSGP_700_spd_018.txt.gz
Wind_Speed
17 16 14 13 9 7 9 6 7 5 9 12 10 10 12 7 13 6 10 9 5 2 3 5 5 6 7 8 10 10 10 10 10 9 9 9 7 4 3 2 0 1 1 2 3 4 5 6 7
19 17 15 14 12 12 10 10 8 7 9 8 10 9 7 9 10 8 10 7 3 2 3 4 4 4 6 7 10 11 11 11 10 10 9 7 6 5 3 1 1 1 2 3 3 4 5 7 8
20 18 17 11 16 22 6 9 9 9 9 8 9 10 8 7 9 10 9 8 5 3 2 3 3 4 5 6 8 10 11 12 11 10 8 6 4 4 2 2 1 3 3 4 5 6 7 8 9
22 20 18 20 23 13 16 12 7 10 7 4 7 8 10 11 10 10 10 9 6 4 4 2 2 2 4 5 7 9 10 11 12 10 9 7 5 4 3 1 1 3 3 5 6 7 8 8 9
23 22 23 22 25 25 14 14 10 11 6 3 7 10 11 11 12 13 13 11 8 7 6 3 3 3 3 5 6 9 10 11 12 12 12 11 8 5 3 3 3 3 3 3 4 5 6 7 8
25 24 23 28 29 24 17 17 15 14 10 6 8 9 11 12 15 16 14 13 11 10 9 6 5 5 4 4 5 7 9 10 12 12 12 11 9 8 6 4 2 2 2 3 4 5 6 7 7
26 28 31 30 30 26 18 18 17 16 15 9 9 11 11 15 14 16 16 14 12 12 11 9 8 7 5 5 5 6 7 8 10 11 11 11 10 9 8 6 5 5 4 4 4 5 6 7 8
25 28 32 34 34 30 22 19 16 17 16 14 9 7 10 15 16 17 16 15 15 15 13 12 10 9 8 6 5 6 7 7 9 10 10 11 10 9 7 6 5 5 5 6 6 7 8 9 9
26 29 35 37 34 32 25 21 21 19 18 15 13 10 11 11 14 18 18 18 16 14 14 13 12 12 10 9 7 6 7 7 8 9 10 10 10 9 8 7 8 8 8 8 9 9 9 9 10
29 35 37 37 34 35 30 26 21 21 22 18 15 13 12 11 14 17 21 19 17 14 13 14 13 14 13 11 9 8 8 9 10 10 10 11 12 11 9 9 10 10 11 10 10 10 9 10 12
32 37 35 37 35 35 35 33 30 28 29 19 16 15 14 14 11 20 20 22 19 19 17 14 14 14 14 14 13 11 10 11 11 11 12 12 13 13 12 12 12 12 13 13 12 12 11 11 13
31 33 35 36 36 37 37 36 35 36 34 30 23 22 20 17 15 14 23 25 23 21 20 19 16 15 15 16 16 15 13 13 14 13 14 14 15 13 12 13 13 14 14 14 14 14 16 16 17
27 29 33 35 37 38 39 41 40 42 36 36 33 29 25 22 19 18 21 25 28 28 25 19 19 17 16 17 18 18 17 17 17 16 16 16 16 14 13 14 14 15 15 16 17 17 19 19 20
27 27 28 32 37 39 41 43 41 43 39 38 38 35 31 28 25 23 24 27 28 26 27 25 22 19 18 20 20 21 21 21 20 18 18 18 17 15 15 16 15 16 16 17 18 19 21 21 22
27 29 30 33 32 33 33 47 49 43 41 42 41 40 37 33 31 28 26 30 29 29 31 27 23 23 24 24 24 24 24 24 23 21 20 19 17 17 17 16 17 17 18 19 19 21 22 23 25
15 19 23 22 25 29 29 52 36 14 31 43 41 42 42 40 38 34 31 32 34 33 32 32 32 29 29 27 29 28 27 27 25 23 21 20 18 18 17 17 18 19 19 20 21 23 26 26 26
22 23 18 18 5 14 24 36 34 35 34 35 36 44 46 45 45 40 33 32 32 31 31 30 29 27 29 30 30 29 29 28 26 22 21 19 18 17 17 17 18 19 20 23 25 26 27 25 24
17 23 22 20 15 19 28 37 36 38 38 39 39 41 48 48 47 43 35 36 36 30 27 29 29 27 28 30 29 29 29 27 24 23 21 19 17 16 17 17 18 21 23 26 27 28 26 24 24
27 23 22 22 17 24 32 40 40 40 40 44 45 43 45 48 47 43 39 34 33 27 26 26 23 22 27 29 28 28 27 25 24 21 20 18 16 16 16 17 19 22 25 27 27 27 26 26 26
29 32 34 36 34 34 42 55 48 46 45 44 46 45 46 42 42 43 37 33 27 26 25 23 23 22 24 26 26 26 27 24 22 22 19 17 15 15 15 18 21 25 26 26 26 26 27 27 27
35 37 36 37 30 32 37 60 51 46 48 44 44 45 43 43 42 38 37 32 26 24 20 20 22 23 23 24 24 26 26 23 21 19 17 14 14 14 16 20 23 25 26 26 27 27 27 28 29
33 32 30 28 21 12 9 17 35 33 31 31 40 42 43 43 39 40 41 36 30 23 18 17 19 21 22 24 23 24 22 18 18 17 15 13 12 14 18 21 22 24 26 27 28 29 29 31 32
28 22 22 17 20 25 28 17 23 16 28 32 37 34 38 40 37 40 42 37 32 26 19 18 18 19 20 20 21 20 18 19 18 15 13 11 12 15 17 20 23 26 28 29 30 31 32 34 36
22 15 16 17 19 15 28 22 42 29 39 42 34 25 32 33 36 37 38 37 34 30 24 18 17 18 19 20 19 19 19 18 15 12 11 11 13 15 18 21 25 28 31 32 34 34 35 37 38
19 22 4 8 9 8 8 21 42 12 10 20 10 21 25 27 30 40 40 39 35 31 24 19 17 20 21 20 19 19 18 17 16 13 11 12 14 17 20 24 28 31 34 36 37 37 38 39 40
23 32 10 5 4 4 16 11 20 24 27 19 24 28 23 29 30 39 39 38 34 28 24 20 18 21 21 20 19 19 19 19 16 14 13 14 17 20 23 27 31 34 36 39 40 39 40 42 42
18 31 34 20 18 7 11 24 35 31 35 29 29 30 23 32 29 32 39 40 34 30 23 22 19 22 23 22 20 20 21 19 15 15 15 17 19 23 26 30 34 37 39 41 42 42 43 43 43
32 13 8 19 4 5 10 25 25 15 15 20 22 22 26 24 26 32 33 40 34 32 24 24 22 24 25 24 22 22 22 19 18 17 18 20 23 25 29 33 36 39 42 44 43 44 45 44 44
30 38 28 12 9 4 3 10 22 20 14 21 28 23 18 26 27 28 29 37 35 31 28 26 24 27 27 25 25 24 23 20 20 20 22 23 26 28 32 36 39 42 44 45 45 46 45 44 43
27 34 38 21 9 13 18 32 10 18 17 26 17 16 18 22 25 23 29 30 35 33 30 28 26 28 29 27 26 25 23 22 22 24 25 26 29 32 36 39 41 44 46 46 46 45 44 44 45

GFSSGP_700_spd_021.txt.gz
Wind_Speed
18 17 15 13 9 7 8 5 7 4 7 12 13 11 14 10 13 9 10 12 8 5 1 3 5 5 6 7 8 8 8 7 6 5 4 5 5 3 3 3 3 3 3 3 3 3 4 5 6
20 18 15 13 10 11 9 8 7 8 8 10 14 13 14 9 14 7 9 12 8 4 2 3 4 4 4 5 7 8 8 9 8 7 6 5 4 3 1 2 3 3 2 2 3 3 4 5 6
21 19 16 11 14 21 9 8 11 10 7 8 10 12 12 14 14 9 13 10 7 4 2 2 2 2 3 4 6 7 8 9 10 10 8 5 4 2 0 1 2 3 4 4 4 5 6 7 8
23 21 18 18 19 12 14 9 11 11 8 8 8 7 12 12 13 16 15 10 10 10 4 2 1 2 3 4 5 7 7 9 10 10 9 6 4 1 1 2 2 2 2 3 4 4 5 7 8
23 23 22 19 24 25 17 12 13 13 10 9 8 8 8 10 12 14 13 15 14 10 7 4 3 2 2 3 5 6 7 8 9 9 8 7 6 2 0 1 1 0 2 2 2 3 3 5 6
24 25 21 27 28 25 17 16 17 15 12 9 7 6 9 9 12 14 15 16 15 13 10 8 6 5 4 4 4 5 6 7 9 10 9 8 8 7 6 4 2 1 1 2 2 3 4 5 6
26 27 28 29 29 25 20 20 19 19 18 14 12 10 9 11 12 14 15 16 16 15 13 11 10 8 7 6 5 4 5 6 7 9 9 9 8 8 6 5 4 3 3 3 3 3 4 5 6
26 26 26 32 32 29 23 20 19 17 20 18 15 8 12 12 14 15 16 16 18 18 17 15 13 11 10 8 7 6 5 6 7 8 10 10 8 7 6 5 5 5 5 5 6 6 7 8 9
25 27 31 33 32 31 23 21 21 22 18 18 18 13 11 12 14 15 16 16 17 17 16 15 14 13 12 11 9 8 7 6 7 8 9 10 9 7 6 6 6 6 6 7 8 9 10 10 10
27 31 34 33 31 32 29 26 23 18 23 21 21 18 15 12 12 13 15 18 18 16 16 17 17 15 15 14 12 11 10 9 8 9 9 10 10 10 9 8 7 7 8 9 11 11 10 11 12
30 33 32 32 32 33 33 31 30 28 27 26 26 24 21 20 18 18 18 19 21 18 17 17 17 17 16 16 15 15 14 12 11 11 11 11 11 11 11 11 10 10 11 12 12 12 12 13 13
28 29 30 32 33 33 34 34 33 34 33 29 29 26 24 25 23 20 23 22 21 21 20 18 18 16 16 16 17 18 17 16 15 14 13 13 14 13 13 13 14 14 13 14 14 13 14 15 16
26 27 30 32 34 35 36 38 36 37 35 34 36 33 29 28 26 25 24 27 27 27 25 21 17 17 17 16 16 18 20 20 19 17 17 15 15 15 15 16 15 15 15 15 15 16 17 18 18
24 24 27 31 33 36 38 38 38 37 35 35 38 42 36 33 30 29 27 25 27 25 25 26 24 21 18 17 17 18 21 23 22 21 20 18 18 17 16 17 16 16 16 16 16 17 18 19 21
22 25 27 29 30 34 32 40 42 32 36 38 39 43 44 41 37 35 30 26 28 29 27 26 26 26 23 22 22 23 23 24 24 24 23 21 19 18 18 17 16 16 17 17 17 18 19 21 22
17 22 26 22 25 27 28 42 34 24 25 31 38 41 45 45 43 41 37 33 31 31 29 28 28 27 27 26 27 27 25 26 26 26 24 23 20 19 18 17 16 17 17 17 18 19 21 22 22
23 23 23 23 20 20 25 31 27 25 31 35 34 31 45 49 47 46 43 38 35 34 32 31 27 26 26 30 33 31 29 28 28 27 25 23 20 19 17 16 16 17 17 18 19 21 22 22 21
14 19 22 22 19 21 31 41 37 32 34 36 37 39 38 47 50 46 46 44 40 36 33 31 27 27 29 31 34 31 30 30 28 26 25 23 18 18 16 16 16 16 18 20 22 22 22 21 21
23 21 23 22 19 29 37 44 41 35 39 42 41 42 42 43 44 48 48 47 45 40 34 33 28 28 31 33 34 30 31 29 26 25 22 21 20 16 15 16 16 16 18 21 22 23 23 23 23
23 28 31 32 30 30 39 54 49 45 44 43 42 43 43 42 43 44 45 47 46 42 36 31 27 27 27 26 25 25 27 27 26 24 21 20 19 16 16 16 15 16 19 20 22 24 25 25 25
25 28 28 30 33 34 39 58 48 41 41 40 41 42 43 42 41 43 43 44 45 41 34 29 28 28 27 25 25 25 27 29 26 22 21 24 18 16 15 15 15 17 19 21 23 25 26 28 28
27 26 26 25 21 11 8 15 30 36 37 36 28 26 36 39 39 39 43 43 43 40 34 31 28 26 26 25 24 24 25 28 23 21 21 20 18 15 14 13 15 17 20 23 25 27 28 29 29
24 24 23 19 20 21 21 12 31 17 25 25 22 22 23 31 35 35 38 41 39 39 36 32 26 23 23 23 23 23 28 24 23 20 21 19 16 13 12 13 15 18 22 25 28 30 31 32 32
16 17 15 16 18 13 24 19 45 29 25 20 8 17 23 19 24 28 31 37 41 41 37 32 26 21 21 22 22 25 26 23 23 20 19 18 14 13 13 14 17 20 24 27 30 33 35 35 35
22 13 3 6 8 8 4 17 40 12 16 31 34 28 24 18 22 24 30 38 41 45 39 34 27 21 20 21 21 23 23 25 22 19 20 16 14 14 14 17 19 23 26 30 33 36 38 38 38
24 29 12 5 5 5 13 12 25 28 21 35 32 28 27 23 20 26 29 36 39 44 39 35 28 22 20 21 23 24 24 22 24 22 19 16 15 15 17 19 22 26 29 33 36 39 40 40 40
16 28 28 20 24 13 19 34 41 43 41 28 19 21 26 25 19 26 28 35 38 38 35 33 28 23 20 23 24 23 26 23 23 21 18 17 17 17 20 22 25 29 33 36 39 41 42 42 42
27 11 12 16 4 8 9 16 25 24 9 21 18 19 18 18 23 26 28 29 36 36 34 32 28 24 21 24 24 25 24 27 23 22 20 19 19 20 22 25 29 32 36 39 41 43 44 44 43
23 32 20 13 12 4 5 11 21 25 17 19 20 21 21 16 23 27 26 29 34 38 36 31 27 25 23 25 26 26 26 26 25 23 21 20 22 23 26 29 32 36 39 42 44 44 45 44 44
27 34 37 24 18 17 11 30 26 18 16 19 24 22 18 12 21 30 27 28 32 40 36 34 28 25 24 26 27 27 27 26 25 23 22 23 24 26 29 32 35 39 41 44 45 46 45 44 44

GFSSGP_700_spd_024.txt.gz
Wind_Speed
20 18 15 13 6 7 10 7 10 5 7 19 19 11 11 10 9 10 10 12 10 8 5 4 2 2 3 4 5 6 6 5 5 4 4 3 2 1 1 3 5 6 5 4 4 4 4 5 6
21 19 16 14 9 13 12 9 8 9 11 12 17 15 13 9 12 10 9 15 12 8 5 4 2 1 2 3 4 5 6 7 6 5 3 3 2 2 2 3 4 5 6 5 5 5 6 6 7
22 20 16 10 14 20 11 10 10 12 9 9 13 16 15 15 11 10 11 15 11 6 5 3 3 2 2 2 3 4 6 7 8 8 6 4 2 2 2 2 3 4 4 5 5 6 6 7 8
23 21 20 17 19 14 15 7 12 13 10 11 13 9 14 17 19 15 15 16 12 9 8 7 5 3 1 1 3 4 5 7 9 9 8 8 4 3 3 3 3 3 4 4 5 5 7 8 9
23 24 18 19 24 20 15 14 15 14 13 12 12 8 10 13 15 15 15 18 19 12 11 12 8 5 3 2 3 4 5 6 7 9 9 7 5 3 1 3 2 2 3 3 4 4 6 6 6
24 23 18 26 24 20 21 20 17 16 14 12 12 13 12 11 14 17 21 21 18 17 15 13 10 8 6 5 5 4 5 5 6 7 7 7 6 5 3 1 1 1 2 2 3 4 5 5 7
24 23 26 25 22 21 24 22 20 20 19 14 16 10 13 15 14 16 17 18 18 18 18 16 14 12 11 9 7 6 6 6 6 6 7 7 6 5 3 3 3 2 2 2 2 4 5 7 8
26 20 22 24 25 26 22 22 25 22 16 23 17 13 11 16 17 16 16 16 17 19 20 18 17 15 13 11 10 9 8 7 7 7 7 7 7 7 6 4 3 2 3 4 6 7 8 9 10
26 21 24 27 24 22 28 25 25 25 23 25 22 21 21 19 17 16 15 15 17 20 21 20 18 16 15 13 12 11 10 9 8 8 8 8 8 8 7 6 5 6 6 7 8 9 10 11 12
27 23 26 22 23 24 22 27 25 22 25 25 24 23 23 22 20 19 18 16 18 20 20 21 21 19 18 16 15 14 13 13 11 11 10 10 9 9 10 9 9 8 9 9 10 10 11 12 13
28 27 22 30 29 31 32 31 31 28 27 25 25 27 28 26 25 25 23 22 22 21 19 20 22 22 20 18 17 17 16 16 15 14 12 13 12 11 11 11 12 11 11 11 12 12 14 14 15
29 29 31 28 30 32 31 30 34 34 33 27 32 33 32 30 27 27 27 25 23 22 21 21 20 20 20 21 18 19 19 18 18 18 15 15 15 14 13 14 14 14 14 14 14 15 15 16 17
24 26 28 29 30 32 33 36 37 38 34 36 36 36 36 35 32 30 29 30 30 27 23 21 20 20 19 18 18 18 19 21 20 21 19 18 17 17 17 16 16 16 15 15 15 16 17 18 18
21 24 27 29 30 33 35 36 36 34 31 37 38 39 40 39 35 34 33 32 34 31 28 26 24 22 21 22 24 21 20 20 20 22 22 21 20 21 19 18 17 17 16 16 16 17 18 19 20
22 24 25 27 28 31 32 38 41 30 32 36 37 40 43 45 40 39 36 34 32 33 32 31 28 25 24 24 23 23 23 23 22 22 23 23 22 23 21 19 18 17 16 16 16 17 19 21 22
13 17 13 20 21 23 26 30 19 25 29 33 35 38 42 46 49 44 40 39 37 34 34 33 31 29 28 28 27 28 29 28 26 25 26 25 24 23 21 19 17 16 16 16 16 17 20 22 22
16 13 14 16 19 19 25 22 23 25 29 33 33 32 37 45 49 52 51 47 43 40 37 35 33 30 29 31 32 31 31 32 32 30 28 27 25 23 20 18 16 15 15 16 17 19 20 21 21
10 14 15 15 11 20 25 31 30 31 33 35 35 36 39 39 44 51 52 51 49 46 43 39 36 34 31 31 33 33 34 34 36 34 29 26 25 23 19 17 15 15 15 17 18 19 19 20 20
15 12 16 16 18 27 33 37 36 35 39 39 40 41 39 40 41 43 51 53 53 51 48 43 39 36 32 31 33 35 35 34 34 33 29 26 23 24 19 16 16 15 16 17 18 18 19 21 22
19 20 22 22 20 22 29 49 42 43 43 40 39 41 41 40 39 40 44 49 53 53 51 47 42 39 33 32 34 36 36 35 34 31 29 27 21 20 22 17 15 15 16 16 17 19 21 22 24
20 21 20 22 20 25 30 49 23 17 26 28 28 30 36 39 39 38 40 46 49 54 52 49 45 41 34 32 34 31 30 32 32 32 30 28 22 24 22 19 15 15 15 15 17 20 22 24 25
20 19 19 18 14 10 4 16 27 23 28 29 25 18 22 22 27 36 37 43 49 50 50 48 45 40 35 33 32 29 28 29 31 32 28 29 21 31 21 18 15 15 15 16 18 20 23 26 28
14 15 11 12 17 20 24 13 25 8 18 23 27 29 24 28 27 30 32 39 44 46 45 45 44 38 35 34 33 30 30 31 30 32 28 24 24 27 21 18 15 15 16 17 20 23 25 28 30
14 12 13 14 13 12 27 24 40 29 23 16 6 6 16 15 17 29 30 34 40 46 45 43 43 37 36 35 32 31 30 29 33 32 26 24 28 24 20 17 16 16 17 20 23 25 29 31 34
17 12 4 5 8 8 4 16 39 18 17 20 22 28 24 21 20 20 26 32 38 44 46 43 42 38 37 33 31 29 28 31 29 29 27 25 24 22 19 18 17 18 20 23 26 29 32 35 37
16 21 9 6 6 7 4 16 16 14 18 19 21 28 27 28 26 23 25 31 36 41 45 44 42 39 36 32 29 28 29 31 31 26 25 25 24 23 19 18 19 20 23 26 29 33 36 38 40
11 23 20 26 33 21 25 35 41 37 35 29 28 18 16 21 27 28 27 30 34 41 44 43 41 38 35 30 27 28 29 31 23 29 26 25 25 21 20 20 21 23 26 29 33 36 39 41 43
21 8 10 16 6 12 18 24 25 23 19 12 13 16 24 23 20 23 30 28 32 39 39 42 41 37 35 30 26 28 29 26 35 29 28 26 23 21 21 22 24 26 29 33 36 39 41 44 45
20 29 26 21 19 8 17 21 19 17 15 19 24 25 25 20 27 20 29 30 31 36 40 40 40 38 34 29 25 28 28 33 34 28 23 25 24 23 23 24 27 29 33 36 39 41 44 46 46
21 22 25 20 16 19 26 36 23 21 15 11 17 20 23 23 23 21 30 30 30 35 39 40 38 37 33 28 26 28 31 33 30 30 28 27 25 25 25 27 29 33 37 39 42 43 46 46 46

GFSSGP_700_spd_027.txt.gz
Wind_Speed
20 17 15 13 7 10 15 14 13 7 7 10 14 13 9 12 5 13 11 16 12 10 7 3 1 3 4 4 5 6 7 8 8 8 8 8 8 6 5 3 4 5 5 6 5 4 4 4 5
21 18 15 9 12 18 16 14 11 10 10 10 13 15 10 7 15 14 7 13 14 12 8 5 3 2 1 2 4 6 6 7 7 7 7 8 8 6 5 3 3 3 4 5 5 4 4 5 6
20 18 11 13 21 23 17 8 10 11 8 7 7 18 9 9 13 15 9 13 13 10 8 6 3 3 3 1 1 4 6 6 7 7 7 6 5 6 6 5 4 5 5 5 5 5 6 7 7
19 18 14 19 21 18 19 11 9 9 8 10 9 8 15 16 16 12 7 13 13 9 9 6 9 8 6 3 1 1 5 6 7 8 8 7 6 4 5 5 5 4 4 5 5 6 6 7 7
19 15 20 22 26 24 16 14 12 10 9 7 10 10 9 18 19 18 15 15 17 16 14 13 12 10 7 4 3 2 3 5 6 7 8 9 8 6 4 3 4 3 3 2 3 4 5 5 6
17 17 22 27 26 22 21 18 13 13 12 11 12 12 10 16 18 19 19 18 16 15 18 17 14 12 11 8 6 5 5 5 5 6 7 7 7 6 5 4 3 3 3 3 4 5 5 6 7
21 20 27 27 24 23 22 17 18 17 15 14 13 12 12 18 19 18 20 20 22 24 21 19 16 15 14 11 10 8 7 7 6 6 7 7 7 7 6 5 4 4 4 4 4 5 7 8 9
19 23 28 28 28 28 19 20 18 17 18 19 19 14 12 19 20 18 19 20 20 21 21 20 19 18 16 14 12 10 9 9 8 8 8 8 8 8 7 6 6 6 5 6 7 7 8 9 11
25 24 30 28 27 26 18 19 17 17 21 20 16 16 22 18 19 20 20 20 21 21 21 21 21 20 19 17 15 13 11 11 10 10 9 9 9 9 9 8 8 7 8 8 9 9 10 12 11
25 25 27 21 21 25 20 22 15 20 23 22 19 27 28 25 23 22 23 22 22 22 21 21 22 22 23 21 16 17 14 14 13 12 11 11 10 10 11 11 11 11 10 11 11 11 12 13 13
19 28 18 22 24 25 20 21 22 19 18 19 21 18 26 27 27 27 26 25 25 23 24 23 23 24 24 24 22 23 19 17 16 15 14 13 12 12 12 13 14 14 13 13 13 12 13 14 15
24 19 25 20 21 29 29 23 26 24 26 19 18 24 25 33 30 29 27 28 24 26 25 24 23 23 24 24 23 24 16 22 19 18 17 15 15 14 15 16 15 17 16 14 14 15 15 15 16
22 21 18 23 24 27 27 29 27 27 30 32 32 31 40 33 33 31 32 30 29 30 29 26 24 23 22 22 20 21 22 26 21 20 19 19 17 17 17 17 17 18 18 16 16 17 17 17 18
7 17 22 22 24 28 30 34 28 33 29 36 38 40 39 38 38 35 33 34 33 32 31 30 26 24 22 21 20 21 20 23 21 22 20 21 20 20 20 20 19 19 19 18 18 17 18 18 19
20 22 22 27 27 25 23 33 37 31 31 34 34 38 42 42 42 42 39 34 35 34 35 34 33 30 28 26 24 22 24 25 23 23 22 22 22 21 22 22 20 20 19 18 18 18 19 19 20
11 15 16 11 18 20 23 27 14 13 20 27 32 35 38 41 45 47 44 42 40 39 39 38 38 35 32 30 28 27 28 28 25 26 26 25 25 24 23 24 22 20 19 18 18 18 18 20 21
13 13 14 15 13 12 18 18 12 16 24 23 24 26 30 35 41 46 50 47 44 43 43 42 39 35 34 32 31 30 31 30 28 30 29 27 28 28 27 25 22 20 18 17 17 18 19 20 20
14 17 16 16 8 12 19 28 28 24 25 26 26 27 28 32 35 44 49 55 52 47 48 45 44 39 36 34 33 33 32 34 33 34 31 31 31 32 28 24 21 19 17 17 16 18 19 19 19
14 11 13 14 14 23 28 31 28 28 32 35 35 35 36 37 35 37 41 51 54 58 54 52 49 46 41 39 36 35 34 35 34 32 33 33 32 31 27 25 20 18 17 16 16 17 17 17 19
17 17 19 20 19 20 24 40 36 36 39 39 38 37 37 37 36 38 39 43 48 55 58 58 54 52 47 43 40 37 36 35 33 33 36 35 32 29 27 25 20 17 17 16 16 16 16 17 20
17 17 17 18 21 25 29 44 17 14 20 24 28 28 28 33 37 37 38 41 44 49 52 58 56 56 52 47 46 42 38 35 35 36 36 32 32 29 28 23 22 20 17 16 15 16 17 18 20
16 13 16 18 14 10 3 15 24 22 25 24 28 32 29 25 27 30 40 40 42 44 48 50 57 58 55 52 49 44 36 33 33 33 32 31 31 32 24 24 22 22 19 16 16 16 18 21 23
11 10 8 9 14 21 20 13 31 12 18 21 22 21 18 20 24 26 31 35 40 43 46 51 51 55 56 54 50 43 36 35 33 32 31 32 33 31 26 32 28 22 19 17 17 18 20 23 26
11 7 8 10 10 10 16 22 38 21 22 21 19 24 18 13 16 22 29 36 36 43 47 52 46 50 54 53 47 40 39 37 35 34 34 33 34 30 28 33 27 23 21 19 19 21 23 26 29
13 6 2 4 6 8 6 13 35 21 27 17 10 11 20 22 23 25 25 27 37 39 45 51 45 48 50 49 42 39 39 35 32 31 32 32 30 28 27 28 25 23 21 20 21 24 26 30 33
14 15 7 5 7 11 9 14 15 14 14 12 18 25 24 22 31 36 29 28 33 36 39 47 45 46 45 44 41 41 38 33 32 34 32 30 27 27 27 27 25 23 22 22 24 27 30 34 36
8 18 13 21 26 18 16 31 40 37 34 29 29 25 22 20 21 25 22 30 31 32 36 40 42 45 43 43 41 41 35 33 33 36 31 30 26 27 27 26 25 24 23 24 27 30 34 37 40
13 5 6 12 5 10 16 29 26 26 25 28 23 23 20 20 21 25 21 20 29 33 32 35 40 45 42 44 41 36 32 30 32 31 34 29 28 27 26 27 25 24 25 27 30 34 37 41 44
18 23 13 10 10 6 14 20 18 21 17 13 14 12 16 21 25 26 28 29 26 31 31 33 41 44 46 44 38 33 28 29 31 31 27 31 26 26 27 27 25 26 27 30 33 36 41 44 46
17 18 21 15 12 15 22 38 29 21 21 17 17 18 14 18 25 24 25 28 24 28 32 32 41 43 45 40 34 31 28 28 31 30 35 33 27 26 27 26 27 28 30 33 36 40 44 46 46

GFSSGP_700_spd_030.txt.gz
Wind_Speed
17 15 13 10 7 9 14 17 10 6 7 12 12 11 13 7 7 8 6 13 13 11 9 6 3 3 6 7 8 8 8 9 10 10 9 9 7 7 6 4 2 1 2 3 2 2 2 2 3
18 15 12 9 11 15 19 13 14 11 10 12 18 19 14 6 12 12 4 9 13 13 11 7 4 2 4 5 6 5 6 8 9 10 10 9 8 6 6 5 4 1 2 3 3 3 3 3 4
18 16 13 8 17 23 18 7 7 7 17 13 3 5 11 14 13 20 11 8 13 13 11 9 4 2 4 6 7 3 3 5 8 9 10 10 9 7 6 5 4 3 3 3 3 4 4 5 5
19 18 17 19 22 16 17 15 9 11 9 8 8 7 17 13 12 14 12 10 14 14 12 9 4 5 7 5 4 4 4 5 6 8 9 9 9 9 7 5 4 4 4 4 4 4 4 5 6
21 20 17 18 26 24 20 14 11 14 7 7 7 12 10 14 19 16 12 11 14 14 10 10 9 11 11 8 7 5 5 5 7 8 9 9 9 9 8 6 4 3 3 2 2 3 4 4 5
23 24 16 26 26 20 18 17 19 16 12 8 14 13 10 15 19 18 16 16 18 16 11 11 13 14 12 10 8 6 6 6 6 7 8 10 10 9 7 6 5 5 4 3 3 3 4 4 5
27 23 24 24 23 20 20 15 18 14 13 15 12 12 17 18 17 19 17 18 18 18 15 17 17 16 13 12 10 9 7 7 6 6 7 8 9 9 8 7 6 5 4 5 5 5 6 6 7
25 25 27 26 25 26 18 14 23 19 18 12 16 19 12 13 15 19 19 20 21 22 20 21 20 18 16 14 13 12 10 8 8 7 6 6 7 8 9 10 9 9 8 7 7 7 8 8 9
22 26 29 30 25 26 18 19 20 24 20 16 19 23 17 13 15 20 19 20 22 22 23 21 20 21 19 17 16 15 12 11 10 10 8 7 7 8 9 10 11 10 10 10 10 10 10 10 10
29 33 33 22 19 21 22 24 22 20 19 26 13 20 29 21 17 20 22 21 23 23 23 24 24 23 22 20 18 18 15 15 14 13 11 10 8 8 9 10 11 12 12 12 11 11 12 12 11
26 33 23 26 20 25 24 21 22 20 24 19 21 20 25 28 26 24 24 24 25 25 26 26 26 26 23 22 22 21 18 18 19 15 15 13 11 11 11 12 12 13 14 14 14 13 14 13 14
24 17 22 24 18 25 32 29 24 22 27 21 18 22 19 26 26 31 29 28 28 28 27 27 26 27 24 24 24 23 22 21 18 16 17 17 14 13 12 14 14 14 14 15 16 16 16 16 16
20 21 20 19 28 26 30 36 39 32 27 31 28 31 31 27 32 30 26 30 27 28 31 31 29 28 26 25 24 25 25 24 22 22 19 19 17 16 16 16 16 16 16 17 17 18 18 17 18
13 20 24 20 24 34 35 34 32 35 32 35 35 38 41 41 39 34 32 30 32 30 33 33 29 29 28 24 22 21 22 21 20 20 18 18 17 18 18 18 18 18 17 18 19 19 19 19 18
25 19 19 26 30 29 25 35 36 29 28 33 35 35 41 45 45 44 38 37 33 33 31 35 32 32 30 28 25 24 23 23 20 23 21 19 20 18 19 18 20 20 20 19 20 19 19 19 19
17 16 20 19 17 20 22 38 27 7 17 24 31 34 37 39 42 44 42 42 36 33 36 35 37 35 33 31 29 28 28 27 24 25 23 22 23 21 21 21 22 22 21 20 20 19 19 19 19
12 14 15 12 13 15 22 27 15 7 23 27 25 25 28 35 39 39 41 44 44 40 36 35 38 42 37 35 34 32 32 33 32 29 29 28 27 24 24 25 26 25 23 21 19 19 19 18 18
10 18 15 16 8 14 19 28 27 26 28 25 27 29 31 32 34 35 38 42 48 48 45 42 41 45 41 36 36 34 33 34 32 30 30 31 27 26 26 27 28 27 24 21 19 18 18 17 17
13 13 14 9 11 18 25 34 34 33 34 34 35 36 33 33 31 33 36 40 46 51 52 47 46 51 46 43 41 38 36 35 32 30 32 29 28 27 29 29 28 27 22 21 19 18 16 16 16
17 16 18 19 18 20 28 40 37 34 34 33 34 34 33 32 32 31 35 37 40 46 52 56 50 54 53 48 45 41 40 35 33 33 31 28 29 27 29 30 28 26 23 20 19 18 16 16 15
17 14 15 18 20 24 26 40 13 7 13 15 18 21 22 26 32 33 35 37 40 40 42 50 60 56 55 52 49 48 48 41 38 36 31 29 29 30 30 30 28 25 22 20 20 18 17 15 16
9 8 13 13 12 6 7 12 31 23 23 27 28 28 29 26 26 28 31 39 40 41 41 41 48 59 59 57 57 55 53 46 41 36 30 30 31 31 29 28 27 24 24 21 21 19 18 17 17
10 13 12 10 10 18 17 11 35 20 29 25 23 21 26 25 18 18 24 28 34 42 40 42 43 47 50 56 61 58 54 49 44 38 33 31 31 32 31 29 28 27 26 23 23 21 20 19 20
11 9 10 9 9 7 16 23 31 6 5 11 11 10 17 21 24 24 24 24 31 33 41 45 44 43 46 51 57 58 54 52 46 40 35 34 31 33 32 31 29 25 31 24 26 23 21 21 23
13 5 1 4 3 7 4 17 29 8 19 19 22 19 15 26 24 24 29 31 30 32 37 39 49 47 48 51 51 51 52 53 47 40 36 33 32 32 33 31 29 28 28 27 26 24 23 23 25
14 10 5 5 3 4 13 13 12 13 10 17 26 21 20 26 28 34 36 35 32 32 35 36 44 51 50 48 49 46 46 50 45 40 36 33 31 31 31 28 31 25 26 28 26 25 25 26 28
8 17 10 8 15 9 12 24 32 24 17 20 21 23 27 31 31 35 40 41 23 23 35 32 34 43 49 45 43 42 47 40 38 37 35 34 30 32 31 29 27 29 28 29 27 26 27 29 31
11 8 6 7 3 6 8 22 21 20 18 16 13 17 18 22 28 34 38 29 24 21 23 33 30 28 37 44 42 46 41 37 36 36 33 32 33 34 30 27 31 28 28 28 28 28 29 32 35
22 18 10 7 9 4 5 5 8 21 21 21 24 20 18 23 30 32 33 26 24 24 19 30 30 28 33 38 46 43 36 37 36 34 31 31 31 30 26 30 28 27 28 28 28 30 31 34 38
17 18 19 8 7 13 17 25 27 27 13 14 20 21 20 22 27 33 36 25 30 27 16 28 26 30 34 39 42 35 34 35 34 31 30 26 29 24 33 27 30 29 29 28 29 31 34 38 43

GFSSGP_700_spd_033.txt.gz
Wind_Speed
16 14 13 12 7 7 11 9 5 8 13 12 13 9 8 7 7 7 3 9 9 7 6 7 5 2 3 8 10 11 8 7 8 10 9 8 6 5 5 5 4 2 1 1 0 1 1 1 2
17 15 14 12 9 12 15 5 7 10 16 17 17 15 11 11 10 10 4 5 9 9 9 9 6 2 2 6 7 7 6 6 7 9 10 10 8 5 4 4 4 3 2 1 1 1 1 1 2
18 17 16 12 16 22 16 8 12 11 10 14 13 13 18 13 15 14 11 5 9 10 12 10 8 4 2 6 8 6 6 6 7 8 9 10 9 8 6 4 3 2 2 2 2 2 2 3 3
20 19 18 19 21 16 17 11 4 7 10 11 9 5 12 10 14 14 16 13 12 13 13 11 8 3 5 9 7 8 6 6 7 8 9 9 10 10 9 6 3 2 2 2 2 3 3 4 4
23 22 24 21 29 22 14 11 6 15 13 8 7 11 7 17 17 14 17 12 14 14 14 12 9 6 8 8 7 9 6 6 7 8 8 9 9 10 10 9 8 5 3 1 1 2 2 3 4
24 24 20 30 29 21 20 16 14 17 16 13 11 12 14 13 13 16 21 16 12 14 14 11 10 8 9 11 10 9 7 7 7 7 7 8 8 8 8 8 8 7 6 5 4 3 2 2 2
27 28 33 30 25 20 15 9 10 21 21 16 11 14 16 19 12 13 20 19 17 15 18 15 13 12 13 13 12 10 8 7 7 7 7 7 7 8 8 8 8 7 6 5 4 4 4 4 4
29 29 32 32 31 30 15 18 18 23 22 18 15 18 23 13 14 15 18 20 20 20 19 17 16 16 15 16 14 12 10 9 8 7 6 5 5 6 7 8 8 8 7 6 6 6 6 6 7
26 31 33 35 31 30 20 20 10 20 23 22 24 20 17 18 16 16 19 23 21 21 21 21 20 19 18 18 17 15 13 13 10 9 8 6 4 4 6 7 9 9 9 8 8 8 8 9 9
34 37 37 32 30 24 18 22 21 19 23 22 22 22 20 21 19 19 18 20 22 24 24 23 23 23 21 20 19 18 16 15 14 12 11 9 7 6 6 7 7 9 10 11 11 11 11 11 11
34 38 35 29 19 21 28 25 23 17 21 26 27 23 22 23 30 26 21 22 23 23 23 25 26 25 23 22 22 21 20 18 17 16 15 13 10 10 9 8 8 7 10 11 12 13 13 14 14
31 32 26 26 22 26 28 31 31 25 24 25 27 29 25 22 27 28 30 26 26 25 26 26 27 27 25 24 23 22 23 21 20 20 19 16 14 13 14 11 10 10 11 12 13 14 15 15 15
28 25 21 19 27 31 30 36 37 35 29 36 34 36 27 21 26 30 29 30 31 33 32 30 29 27 27 25 25 25 24 23 22 22 21 19 17 16 16 14 13 14 13 13 13 14 16 17 16
16 16 19 26 26 31 34 38 38 43 32 34 32 37 36 29 28 29 33 32 29 31 33 33 33 28 29 28 26 25 25 24 23 24 23 22 20 18 16 15 17 17 18 17 16 16 17 18 18
18 22 21 28 29 32 36 43 45 36 31 40 43 44 42 42 38 40 37 35 35 32 32 36 37 34 30 28 28 27 25 24 23 21 21 22 20 21 17 19 19 19 19 19 19 20 19 18 18
21 20 26 20 19 22 27 44 32 23 23 30 35 37 40 42 50 47 45 42 39 39 34 35 38 39 35 30 29 29 26 26 25 23 22 22 21 21 22 23 21 21 20 20 22 22 21 20 18
15 16 14 10 10 14 21 29 23 18 26 30 30 29 30 37 40 48 51 49 46 44 43 36 38 42 40 35 32 31 31 30 28 28 27 29 26 25 26 25 23 23 23 24 24 23 22 20 18
17 17 14 13 9 15 22 27 26 21 24 29 32 29 28 28 30 33 38 42 44 46 46 42 36 43 44 41 38 34 33 32 30 31 27 27 23 22 26 26 24 23 24 23 25 24 22 20 18
17 9 12 13 9 18 22 29 32 31 31 32 33 35 32 31 26 29 30 33 36 40 46 46 40 40 43 45 43 39 38 35 35 33 28 25 23 21 25 27 25 24 25 23 22 23 23 19 17
14 17 20 19 18 22 31 40 38 37 33 30 28 31 31 31 30 31 33 35 36 36 41 49 47 44 46 48 49 45 40 38 38 35 32 28 24 23 25 27 24 24 24 23 22 22 22 19 17
17 20 20 18 22 24 31 41 31 19 18 17 15 15 14 18 22 27 32 35 37 40 41 44 51 51 49 47 47 50 46 44 42 38 36 30 27 26 27 28 26 25 23 22 22 21 21 21 19
18 14 15 15 14 9 10 12 30 22 24 27 21 18 19 19 21 23 25 30 38 40 41 43 49 53 54 48 47 50 55 49 47 44 40 35 31 28 30 30 28 26 24 23 22 22 21 22 21
14 14 14 16 18 22 20 12 24 20 21 15 12 17 11 14 16 17 22 29 32 35 42 43 42 46 58 59 55 53 55 54 48 45 43 38 34 32 31 31 31 28 26 24 25 24 23 24 23
13 15 12 10 8 5 16 15 10 3 2 4 6 12 18 20 22 26 25 24 31 36 36 42 42 42 43 54 64 58 60 57 55 50 46 42 38 35 34 33 34 31 28 26 26 27 26 26 26
16 7 1 2 2 7 6 11 25 6 7 17 22 21 24 18 24 27 28 30 31 33 34 33 40 48 42 44 53 61 59 58 54 47 45 41 39 37 36 34 33 32 29 27 25 28 29 28 27
17 11 4 5 3 5 1 11 9 5 15 21 19 25 25 22 23 32 38 40 40 37 34 35 31 36 47 47 48 50 52 55 52 45 43 41 39 38 36 34 32 34 30 28 31 33 29 29 28
12 13 6 4 8 3 11 14 23 20 14 17 18 21 20 19 22 30 39 43 42 45 43 39 38 35 30 46 51 48 49 50 45 41 40 41 40 39 36 34 33 32 33 32 28 34 32 31 30
8 7 8 5 3 5 8 11 18 20 20 21 14 14 18 20 21 30 34 35 40 41 34 33 26 31 29 33 45 49 48 46 42 39 36 36 38 37 37 33 33 31 27 39 33 33 33 32 32
21 13 8 5 6 3 4 6 9 10 20 24 26 23 13 12 23 32 40 39 40 33 26 27 25 21 26 29 42 46 45 41 37 35 35 36 35 34 35 34 31 31 29 36 35 33 32 32 33
15 19 17 6 3 11 9 17 13 11 19 25 27 37 40 43 31 31 32 37 37 32 25 23 24 21 26 30 35 41 42 40 34 33 34 33 34 34 33 33 33 35 37 28 30 33 33 32 33

GFSSGP_700_spd_036.txt.gz
Wind_Speed
17 16 14 11 8 9 12 7 13 6 5 10 10 8 7 11 8 6 2 9 15 13 11 9 8 4 2 6 10 11 7 7 7 7 8 8 7 5 4 3 3 2 2 1 1 1 1 2 2
19 18 16 13 11 15 15 10 9 9 8 9 13 16 10 9 12 8 1 9 15 13 11 9 8 6 4 3 9 9 9 7 7 7 7 8 7 5 3 3 3 2 2 1 1 1 0 1 1
22 20 18 12 17 24 19 10 2 4 8 12 13 12 19 16 17 14 10 4 10 12 11 10 10 7 2 4 5 6 8 6 7 8 8 8 7 7 5 4 3 3 3 2 2 2 2 3 3
24 22 21 20 22 24 22 13 4 9 8 13 11 15 14 18 22 17 14 10 9 11 11 12 10 7 1 3 4 6 7 6 6 7 8 8 7 7 8 7 5 3 3 3 3 2 2 3 4
26 25 27 23 31 26 17 13 9 9 6 15 16 15 10 11 16 14 12 13 11 12 13 13 12 6 3 2 5 6 7 7 7 7 7 7 8 8 8 8 8 7 4 3 3 3 3 3 4
28 28 23 32 33 27 22 14 12 11 10 15 17 15 15 10 13 13 13 14 10 14 16 16 15 8 6 5 8 7 7 8 8 7 6 7 7 8 8 8 8 7 6 6 5 4 3 3 4
31 31 34 33 31 27 22 17 15 13 16 17 17 19 18 17 16 13 10 15 15 16 18 17 16 12 10 8 10 10 9 8 6 6 6 6 6 7 8 8 8 7 6 5 4 4 4 5 6
30 31 34 35 34 31 18 19 18 15 15 20 25 25 21 18 18 19 14 11 15 20 21 20 18 15 13 12 13 13 11 10 9 7 6 6 5 5 6 7 7 7 7 6 5 5 5 6 7
29 34 37 37 34 32 20 22 20 11 11 24 26 25 22 18 19 19 17 17 17 19 24 23 21 19 17 15 15 15 13 12 12 10 8 6 5 4 5 5 5 6 7 7 7 7 8 9 10
35 40 41 37 35 26 24 24 25 18 15 24 25 23 25 25 20 24 22 18 17 19 21 23 23 21 20 18 18 17 16 15 14 13 12 10 8 7 6 7 6 6 6 7 8 9 9 10 11
38 42 40 36 34 26 29 26 27 19 20 25 24 23 26 23 26 24 22 23 20 18 19 20 22 22 22 21 21 20 19 18 18 16 15 14 12 10 10 10 9 8 8 8 9 10 10 11 11
36 38 37 32 31 28 26 29 32 26 22 26 28 29 25 26 31 33 28 28 26 25 23 22 22 23 23 23 22 21 21 21 21 20 20 17 17 14 12 13 12 12 12 11 12 12 13 13 13
36 35 34 30 28 27 32 33 34 36 27 28 32 34 34 35 33 35 35 28 29 31 28 26 25 24 23 22 23 22 23 22 23 23 22 20 18 17 15 14 14 16 15 14 14 14 15 16 16
23 32 28 28 28 32 35 39 39 42 35 30 35 36 36 38 41 38 39 36 34 34 37 35 34 31 30 27 24 23 23 24 23 23 24 23 22 20 21 16 16 18 17 16 16 16 17 18 18
22 15 20 25 27 32 32 42 49 41 37 40 36 39 38 38 42 43 44 43 38 34 33 36 37 35 32 30 28 26 25 25 23 22 24 22 21 21 19 19 21 20 19 18 18 19 19 20 20
19 20 23 24 20 24 25 48 42 37 37 40 42 46 48 45 46 41 41 43 41 38 36 35 35 36 33 32 30 28 27 27 25 23 23 22 22 21 19 21 22 22 21 22 22 22 22 22 22
19 16 18 20 18 23 27 35 30 24 30 35 34 36 44 47 48 50 46 46 45 43 41 40 41 39 36 35 32 31 30 30 28 26 26 25 25 24 24 24 24 25 24 22 22 22 22 23 23
18 22 21 20 16 15 24 31 28 26 28 30 31 33 33 37 37 40 49 56 55 49 46 44 42 43 40 37 37 35 35 34 33 31 31 29 24 22 22 23 24 25 22 21 21 21 21 22 23
13 12 12 12 13 22 25 31 34 31 32 31 29 28 28 27 24 30 35 43 53 56 56 53 45 44 46 46 44 40 37 37 37 33 32 29 26 23 21 23 25 23 22 21 22 21 20 21 23
16 16 21 20 19 23 30 37 35 32 31 32 30 31 34 33 32 31 33 36 39 43 50 52 54 54 47 48 45 42 38 40 38 36 37 33 30 26 23 23 23 23 23 21 22 21 19 20 22
15 17 16 18 23 27 34 43 38 30 27 28 23 19 22 25 28 30 35 37 38 39 38 40 45 49 52 47 44 46 42 44 42 41 41 37 31 29 25 23 24 25 25 24 23 21 20 19 21
16 16 18 20 21 11 12 12 32 25 23 21 20 19 20 21 20 21 22 29 39 40 41 41 41 42 55 56 52 50 48 48 45 42 40 40 35 32 29 28 26 27 29 27 24 23 22 20 22
15 16 15 15 17 22 26 12 11 18 17 16 17 14 9 8 19 17 19 22 30 33 42 46 47 47 47 52 57 55 54 53 48 46 42 41 40 38 34 31 29 29 30 31 27 25 23 25 26
16 15 14 15 15 5 11 13 5 3 1 5 4 11 17 20 22 24 23 24 23 25 30 36 47 51 51 54 56 56 58 59 52 48 45 46 41 41 39 34 33 30 31 34 32 29 26 25 29
15 9 2 3 1 7 6 9 13 5 5 10 17 15 17 19 23 18 19 25 24 25 25 25 28 32 47 52 56 59 61 59 56 49 47 45 46 43 43 38 34 32 34 35 38 31 30 25 31
15 11 4 4 3 5 6 8 3 1 8 18 18 20 21 22 18 19 22 25 27 27 29 31 32 32 33 38 45 51 54 49 47 50 47 46 45 47 42 40 36 35 37 40 39 35 33 30 29
12 11 9 4 5 3 7 10 15 12 9 19 15 16 21 24 23 23 26 29 31 33 38 41 42 40 40 38 39 44 51 51 49 45 47 50 48 44 41 39 36 38 40 38 39 37 38 30 32
7 10 6 7 1 4 7 9 14 8 12 19 18 22 25 25 24 27 28 25 30 35 37 38 39 44 37 34 37 42 46 48 44 43 44 46 43 40 38 38 37 39 38 38 42 41 45 31 36
18 11 8 4 4 3 4 8 6 12 17 22 25 25 30 31 30 30 34 29 27 32 38 43 46 42 34 33 31 39 42 43 43 42 42 41 40 39 38 38 38 40 40 40 47 42 38 33 35
17 19 14 5 3 7 5 15 6 12 14 22 45 39 34 40 48 50 48 46 35 31 32 36 38 38 31 28 28 33 36 36 40 39 38 38 41 37 35 36 38 39 38 42 49 37 32 35 38

GFSSGP_700_spd_042.txt.gz
Wind_Speed
21 19 17 16 10 10 12 8 7 9 9 9 8 5 6 8 7 4 3 16 15 11 13 8 9 8 4 4 7 8 8 8 9 10 10 10 9 8 6 6 5 5 4 6 6 6 6 5 4
22 21 19 17 13 16 15 14 11 6 8 8 7 6 4 7 8 6 3 10 11 13 16 13 11 10 8 6 6 8 8 8 9 10 11 11 10 9 7 5 5 4 4 4 4 4 4 3 3
24 22 21 17 21 27 11 12 10 11 11 10 7 5 4 4 8 7 5 12 12 14 15 14 12 9 8 4 4 7 8 8 9 10 11 11 11 11 10 8 5 4 4 4 4 3 3 3 3
26 24 24 24 26 25 24 2 11 11 12 12 11 6 7 8 7 10 10 9 10 12 13 14 13 11 8 3 3 4 7 8 9 9 9 10 11 10 9 9 9 6 4 3 3 3 4 4 4
29 28 29 25 34 29 21 20 9 14 14 12 11 10 6 11 10 10 14 13 12 9 13 15 15 13 9 5 3 2 4 6 7 9 9 10 11 10 9 8 8 8 8 7 7 7 6 7 7
33 33 24 35 36 29 26 19 19 17 15 13 10 10 6 8 10 11 11 13 17 15 12 15 16 15 11 7 5 3 1 2 4 6 7 9 9 10 10 10 9 8 8 7 7 7 7 7 7
35 36 37 36 34 31 26 22 21 21 22 16 12 13 12 8 11 11 14 13 14 13 14 16 17 17 13 9 7 5 4 3 4 4 5 5 6 7 8 9 10 10 9 9 8 8 7 7 6
33 34 37 38 35 33 28 24 20 21 23 21 17 15 15 12 13 13 14 14 15 15 15 16 19 19 16 12 10 8 7 7 5 5 5 4 3 3 4 5 7 7 8 9 9 9 9 8 8
34 35 39 40 34 31 29 25 22 24 25 23 21 19 19 18 16 13 16 16 17 14 16 16 19 21 20 16 13 12 10 10 8 7 7 6 5 5 4 3 4 5 5 6 8 8 9 9 9
36 41 42 36 31 30 32 30 22 24 26 25 21 22 22 20 17 17 16 15 19 17 13 15 18 21 21 18 16 16 13 13 12 11 10 10 8 7 7 7 6 5 5 5 6 7 8 9 9
40 43 39 33 28 33 35 28 25 27 25 25 23 22 21 19 20 20 20 16 18 16 17 18 19 20 22 21 21 20 17 17 15 13 12 13 12 11 10 10 9 9 9 8 8 8 8 8 9
39 40 36 30 31 34 35 32 29 26 25 27 27 23 20 21 23 22 22 20 19 20 18 17 17 20 22 24 23 22 20 20 18 17 15 14 15 15 14 14 12 12 12 12 11 11 11 11 12
38 37 34 31 33 35 36 34 30 31 29 30 31 27 23 23 24 26 25 24 24 25 24 22 20 20 20 21 22 22 21 21 21 20 18 17 16 17 17 18 16 15 14 15 14 13 13 14 13
31 37 34 33 35 36 36 34 33 34 29 30 34 31 26 27 26 29 29 30 28 27 27 29 28 27 25 23 21 20 21 22 21 21 21 19 18 18 19 20 19 18 18 17 16 16 15 16 17
30 22 29 34 32 30 31 36 39 30 29 29 31 38 34 31 31 32 34 34 33 34 32 32 31 31 32 31 28 25 23 22 21 21 22 21 20 20 21 21 21 21 21 19 18 18 18 18 20
24 23 17 22 30 31 26 39 23 26 30 30 30 35 41 39 36 36 37 38 37 38 37 33 33 34 34 34 35 34 30 27 26 26 25 23 21 22 22 22 22 23 22 20 19 21 20 20 21
19 13 30 22 17 20 30 36 26 26 31 32 31 32 38 42 44 41 41 40 40 41 40 40 37 36 35 35 36 36 35 32 30 29 28 27 23 23 23 22 23 22 22 22 23 22 22 22 22
16 16 13 22 19 24 28 33 33 30 29 30 30 30 31 37 41 44 45 45 45 44 44 44 44 41 39 39 38 37 35 33 31 30 31 29 27 26 25 24 24 23 24 24 22 23 24 23 23
12 13 14 13 17 22 27 32 33 29 31 31 31 28 28 27 27 34 39 44 52 53 51 48 47 47 44 44 42 41 40 38 36 33 33 32 31 30 28 26 26 25 25 24 24 24 23 23 23
13 12 10 9 14 21 27 34 31 30 31 30 29 28 25 25 27 30 34 38 41 45 47 55 58 51 49 50 47 47 46 45 42 39 36 33 34 33 33 30 29 28 27 27 26 23 23 24 23
16 12 12 12 14 19 26 32 24 18 20 22 20 22 18 19 24 29 35 35 34 37 40 43 48 54 57 59 56 56 54 53 51 48 42 39 38 36 34 33 32 31 31 30 27 24 24 24 24
22 19 16 14 10 6 9 8 22 15 9 9 15 20 16 10 9 13 16 18 22 27 36 43 42 45 46 46 48 57 61 59 55 50 45 43 40 40 39 37 34 33 33 32 28 26 25 26 26
18 12 11 10 11 13 12 5 10 11 2 6 10 8 10 19 16 14 14 16 17 19 19 21 28 44 47 44 43 45 50 58 62 60 57 55 49 44 41 38 36 35 35 34 32 31 31 32 31
8 10 8 11 11 2 4 6 3 3 6 10 7 5 5 11 14 17 20 21 24 25 25 24 23 22 28 43 46 48 45 44 46 50 53 51 51 47 45 38 37 35 33 35 35 34 32 32 31
12 8 2 2 1 3 3 5 6 3 4 4 6 9 13 16 18 22 23 21 21 23 24 24 21 18 19 21 26 37 46 47 44 42 44 44 45 46 47 43 42 39 36 36 35 36 37 35 34
15 11 4 4 1 3 6 7 3 3 8 6 11 16 19 20 23 23 24 27 27 27 27 27 26 23 20 20 20 20 21 27 34 41 48 44 41 41 40 40 42 42 39 38 36 36 36 38 40
12 11 10 1 1 1 4 6 8 2 4 6 11 15 20 25 27 30 32 33 34 34 32 34 35 33 30 29 28 27 28 30 30 27 30 34 44 47 43 43 42 41 41 40 38 37 37 40 42
8 6 5 6 1 2 5 7 6 4 4 11 19 24 27 28 30 33 38 42 43 44 42 39 40 41 38 36 35 34 33 31 31 30 30 33 31 35 42 42 45 43 44 44 42 41 40 40 41
12 12 6 5 2 3 2 4 8 3 11 22 23 22 25 29 32 30 32 34 35 34 35 39 47 42 39 36 30 31 31 31 31 27 28 32 34 32 37 40 42 40 40 42 43 41 41 40 44
11 11 13 4 4 3 1 6 6 4 16 28 24 26 25 28 31 32 32 29 30 30 30 26 28 45 40 37 35 33 35 36 33 28 29 30 33 36 35 37 39 40 39 39 40 41 42 41 41

GFSSGP_700_spd_045.txt.gz
Wind_Speed
20 19 17 15 9 9 12 9 8 7 9 11 9 10 11 9 8 7 3 14 9 12 12 9 8 6 5 7 8 9 10 10 10 11 12 12 11 10 8 6 5 4 5 10 8 8 8 6 6
22 21 19 17 13 16 14 14 9 9 8 10 10 10 9 9 8 6 4 9 12 16 15 13 12 10 8 7 7 8 9 9 10 10 11 11 11 10 9 7 5 7 8 7 6 5 6 5 5
24 22 20 17 20 25 11 13 11 9 7 9 11 11 8 5 7 5 6 8 15 14 17 15 12 11 9 6 5 7 9 9 9 9 9 9 10 10 10 10 8 7 6 6 6 5 5 4 4
27 25 24 23 24 23 24 2 12 14 10 11 13 9 8 5 4 7 8 10 12 14 15 16 14 12 9 7 1 5 8 7 8 9 9 10 11 11 10 10 10 8 8 7 6 6 5 5 4
30 29 29 25 33 30 19 17 12 14 13 12 14 11 9 2 3 4 9 11 10 13 13 14 15 14 11 8 1 3 4 6 6 7 9 10 11 11 11 10 10 9 9 8 8 8 7 6 6
34 34 25 34 36 31 26 17 20 14 13 11 14 15 10 3 5 5 7 12 15 13 14 14 15 16 14 10 5 5 3 2 3 4 6 8 9 10 11 12 11 10 10 9 9 8 7 6 6
38 39 38 37 35 32 27 23 22 19 19 16 14 15 13 9 7 6 7 12 12 15 16 16 16 17 16 13 11 7 3 2 1 2 4 4 5 6 7 8 9 10 10 10 9 9 8 8 7
37 37 35 39 38 34 28 24 21 20 21 21 18 16 15 15 11 9 7 10 13 14 13 16 18 19 19 15 12 10 6 5 4 3 3 3 2 2 2 4 5 5 6 7 8 8 9 9 8
36 35 37 41 38 33 29 26 22 22 23 22 21 19 19 17 14 13 7 10 12 12 12 16 17 20 21 19 15 13 11 9 8 6 5 5 4 3 3 2 2 2 2 2 3 5 6 7 7
37 41 41 37 36 29 29 29 23 20 23 23 22 21 21 22 20 16 10 10 9 13 13 10 15 18 21 21 18 15 14 13 11 10 9 7 7 7 6 6 6 6 5 4 4 3 4 4 6
39 42 39 36 29 26 29 29 26 23 23 24 22 24 25 22 22 20 16 15 13 12 16 16 14 15 18 20 20 18 17 17 15 15 13 12 11 11 10 10 9 9 9 10 8 7 7 6 6
38 40 37 34 28 29 32 31 31 27 22 25 25 26 25 26 24 22 20 19 19 18 18 18 17 18 19 21 22 21 20 20 20 19 17 16 15 13 13 14 14 13 13 13 12 12 10 10 9
38 35 35 30 31 31 34 36 32 29 25 25 26 27 28 24 25 23 24 24 23 20 18 18 19 19 19 23 22 23 22 23 23 22 21 20 19 17 16 17 17 17 17 17 16 15 14 13 12
29 35 30 28 31 33 36 35 32 30 24 27 28 28 28 27 26 26 27 26 26 23 21 22 21 23 24 23 23 22 22 23 24 24 23 23 22 21 20 19 19 19 19 20 19 17 16 16 16
31 20 27 31 31 32 34 37 38 28 30 29 29 30 31 31 30 30 30 30 29 27 28 28 28 27 30 30 29 27 24 24 24 24 25 24 24 23 22 22 22 21 21 22 20 19 18 18 19
22 25 23 24 32 34 30 34 20 19 28 29 26 29 33 34 35 35 34 35 35 35 35 33 34 32 31 31 31 31 31 28 27 26 26 25 25 24 24 24 24 23 23 23 22 20 20 21 21
22 17 28 21 18 19 27 32 27 29 29 27 24 26 31 33 36 39 38 38 39 41 41 40 39 36 33 33 32 32 33 33 32 34 32 30 30 28 26 25 25 25 24 25 23 22 22 22 22
20 19 11 23 25 23 23 27 26 24 25 24 23 22 25 31 31 34 39 43 45 45 44 45 44 41 38 37 37 36 36 33 34 33 34 34 33 30 30 28 27 26 25 25 24 23 23 23 24
16 15 18 13 20 18 20 24 27 25 26 25 25 23 21 22 24 28 34 42 48 50 50 48 47 46 44 44 44 41 38 34 35 33 33 32 33 34 33 31 29 28 26 26 26 26 26 24 24
13 14 10 10 12 16 21 27 25 23 24 23 26 26 23 22 24 29 34 38 43 47 50 53 53 52 52 51 48 46 44 44 39 37 36 36 36 35 36 34 32 30 29 28 28 27 26 25 25
13 13 11 9 9 12 20 22 12 11 11 17 20 19 16 21 24 27 31 35 38 39 41 44 46 46 50 51 55 55 53 51 48 46 42 41 40 36 37 34 34 36 35 33 32 30 28 28 26
16 13 12 10 5 3 7 7 9 8 11 13 13 15 17 17 16 17 18 18 20 23 30 36 39 39 40 42 46 48 53 57 56 55 51 46 44 42 39 38 38 36 37 37 36 34 32 30 29
16 19 16 10 6 7 5 4 1 4 8 10 8 8 9 18 18 15 14 13 14 16 18 22 26 30 36 43 48 43 43 45 45 46 48 54 50 48 47 44 42 37 39 41 39 38 36 33 33
17 16 10 5 4 2 4 8 2 8 10 9 7 6 5 6 12 15 17 19 20 21 23 25 27 29 31 32 37 47 48 41 42 42 41 41 45 50 54 53 51 49 44 41 39 40 38 37 36
14 13 3 1 2 3 5 6 6 5 8 7 6 6 8 10 13 16 20 24 26 26 25 25 25 27 30 32 30 33 40 43 46 45 44 41 39 39 41 45 47 48 45 41 40 38 37 37 40
14 9 2 3 3 1 8 7 5 6 9 6 7 10 13 16 19 23 26 28 28 29 30 31 30 28 29 31 32 31 30 29 30 33 40 47 45 38 34 33 39 43 45 45 43 41 40 39 40
12 10 7 4 1 1 5 6 6 7 7 4 7 12 18 22 24 28 30 32 35 36 37 38 37 34 33 34 34 35 34 32 29 25 26 26 29 36 40 39 38 37 37 38 40 43 41 40 40
7 10 5 6 3 3 4 7 8 9 5 5 13 17 19 20 22 25 30 31 30 32 34 36 40 43 41 39 39 40 40 39 36 34 32 31 31 31 32 35 39 42 43 40 40 42 41 42 43
12 12 5 6 3 3 1 4 6 9 4 14 17 19 19 22 24 27 27 25 24 21 22 22 24 28 33 40 45 44 43 45 43 39 34 31 31 31 35 37 38 39 41 41 42 42 43 46 46
14 13 13 5 5 5 1 4 10 6 9 20 23 20 22 26 25 23 23 22 22 22 20 20 19 20 23 28 38 41 40 40 40 39 36 32 30 31 35 37 40 40 40 41 41 40 39 42 43

GFSSGP_700_spd_048.txt.gz
Wind_Speed
19 17 14 13 6 8 11 7 9 6 9 13 11 15 11 14 9 9 7 13 15 13 13 11 7 6 7 9 9 9 10 9 9 9 10 11 11 10 9 7 6 6 6 9 8 8 6 6 5
21 19 17 15 11 14 13 12 6 9 12 13 12 11 12 7 10 9 9 12 14 16 15 14 10 8 6 7 8 8 9 9 8 8 9 10 10 10 9 8 6 5 8 7 6 6 5 4 4
22 21 17 11 15 20 11 11 10 13 11 14 13 13 12 10 9 8 8 8 15 17 18 16 13 10 8 7 5 5 8 8 7 7 8 8 8 9 9 8 7 7 6 5 5 4 4 3 3
25 23 23 19 19 19 16 5 15 15 10 13 15 10 10 9 9 8 9 9 14 15 18 17 15 13 10 9 2 3 6 7 7 7 7 8 8 9 8 9 8 8 7 6 6 5 4 3 3
29 24 22 22 26 20 19 16 15 18 13 14 15 10 12 10 9 10 11 10 12 13 15 17 16 15 13 11 7 4 5 6 5 6 7 7 8 9 9 10 9 9 9 9 8 7 6 5 5
33 28 24 29 26 24 26 19 18 17 14 11 14 15 13 11 10 8 10 14 11 12 14 15 16 17 17 13 10 6 4 2 2 3 4 5 6 6 8 10 11 10 10 9 8 6 6 5 5
38 33 32 28 27 25 26 25 23 20 16 11 14 13 14 12 11 8 8 11 15 14 13 16 17 17 18 15 14 11 8 2 1 1 1 1 2 3 5 6 7 8 8 8 8 8 7 7 6
40 26 28 30 30 27 21 25 23 22 18 19 16 12 13 15 12 10 10 10 14 14 15 14 17 18 19 19 16 14 12 7 6 6 2 2 2 1 0 1 3 4 4 5 5 5 5 5 5
42 28 32 32 30 25 27 23 22 23 22 21 21 22 21 17 15 14 12 11 11 13 14 15 16 20 21 22 19 16 15 12 11 10 8 5 4 5 4 3 2 2 1 1 1 2 2 3 4
39 32 31 25 28 31 29 24 24 22 21 22 24 22 23 23 19 16 14 10 10 13 13 13 17 18 22 23 22 19 17 16 14 13 12 10 9 8 8 7 6 5 6 5 6 6 5 5 5
38 31 26 31 32 28 29 24 23 21 20 20 23 24 25 26 24 21 18 16 16 15 18 17 16 17 19 22 24 22 19 18 18 17 16 15 14 13 11 11 11 10 10 9 9 9 10 9 9
36 39 30 31 30 28 28 26 25 25 20 22 24 24 25 26 25 22 22 21 21 21 20 20 21 20 18 19 22 23 23 20 20 20 20 19 19 17 16 15 15 15 14 14 13 13 13 12 12
40 28 36 29 32 27 28 28 26 28 27 25 24 25 26 27 25 27 26 26 26 24 22 22 22 20 19 21 21 23 23 24 24 24 24 24 23 22 21 20 19 18 18 18 18 16 16 15 15
35 28 28 34 27 31 31 30 31 32 27 26 25 25 27 28 28 27 28 28 28 27 26 22 22 23 21 21 21 23 25 25 25 26 27 27 27 27 25 24 23 22 21 20 21 20 20 19 17
14 27 29 25 29 31 31 34 39 30 26 27 26 28 28 29 31 29 29 30 31 30 29 27 24 25 24 24 26 26 27 26 26 26 28 29 30 29 28 27 26 25 24 23 24 23 23 22 20
26 16 17 28 32 31 29 25 20 17 29 27 28 28 30 30 32 33 33 34 35 34 33 31 31 30 31 31 30 31 31 33 31 28 26 29 30 30 30 30 29 28 28 26 26 26 25 24 22
22 17 25 13 23 27 31 21 24 26 25 22 24 26 29 29 32 32 35 37 37 38 38 38 37 37 36 35 36 33 35 34 35 36 35 31 30 29 30 30 31 32 31 29 28 27 26 26 24
25 23 18 20 19 21 22 23 23 18 20 22 26 25 26 27 29 32 35 38 40 43 43 44 44 43 41 40 40 38 37 35 35 37 38 38 37 36 35 34 32 32 32 31 30 29 28 27 26
15 19 13 15 24 22 22 21 24 20 21 23 24 25 25 26 29 32 36 39 42 43 45 46 47 46 44 45 44 43 41 38 39 35 35 37 37 37 38 38 36 36 33 32 31 32 30 29 29
13 15 14 15 14 19 16 20 17 17 20 25 25 24 23 24 28 31 34 37 40 42 45 47 48 49 50 49 49 48 46 44 42 40 39 36 37 38 37 36 36 37 36 36 33 34 33 32 31
13 14 14 8 13 13 14 12 13 17 20 23 24 22 22 24 27 30 33 35 36 38 40 42 44 45 47 48 50 53 55 55 51 48 44 41 39 39 39 39 39 38 39 39 37 35 36 35 32
14 15 13 11 6 6 4 3 9 12 14 15 16 16 19 22 23 24 26 28 29 30 31 32 35 39 41 41 42 42 45 49 49 47 47 47 47 44 44 45 45 43 41 40 38 38 38 40 37
12 17 12 8 6 6 7 5 6 10 12 11 12 12 14 18 20 19 19 19 19 19 21 22 23 25 29 34 39 42 45 45 44 45 45 45 48 51 52 50 48 47 44 42 42 40 41 43 42
17 15 10 8 4 4 9 8 8 13 13 13 11 10 8 9 15 19 20 20 21 22 23 24 26 28 29 31 34 35 37 40 46 49 47 42 42 40 41 48 53 50 51 48 45 44 43 43 44
20 17 4 3 4 3 7 6 3 15 14 14 12 9 9 8 9 12 16 19 22 25 28 30 31 31 32 33 34 36 37 37 38 45 49 48 46 44 41 38 42 50 52 52 52 52 49 46 45
21 20 4 4 4 3 7 7 4 16 13 13 10 9 10 11 14 18 21 25 28 30 32 34 35 35 35 35 35 35 35 36 37 38 44 49 51 52 48 46 41 41 46 49 50 49 49 46 46
14 8 7 4 1 1 5 6 7 11 17 13 7 7 12 17 21 23 25 27 28 29 32 34 36 38 40 40 39 38 37 36 36 36 36 35 37 40 44 47 46 41 40 42 45 47 48 48 47
9 13 5 5 4 4 5 5 6 19 18 11 6 10 16 18 21 22 25 27 29 28 27 26 25 25 30 35 38 41 41 41 41 40 40 38 34 32 32 35 40 45 48 47 42 41 42 43 44
12 10 7 6 3 2 2 2 8 15 11 5 11 15 18 19 20 22 23 24 22 21 18 18 18 18 18 21 25 30 35 42 45 45 43 41 40 39 38 37 38 38 40 44 47 47 44 42 43
16 13 11 5 5 5 1 1 9 14 5 11 17 17 17 19 22 24 23 20 20 17 14 14 15 15 16 17 20 22 26 31 38 41 41 41 41 42 41 39 38 40 42 45 45 47 47 47 46

GFSSGP_700_spd_051.txt.gz
Wind_Speed
18 15 12 10 6 8 13 11 8 5 6 9 12 11 9 12 6 9 8 13 14 12 12 10 7 6 7 9 10 10 10 9 9 8 8 8 8 8 7 7 6 7 7 9 8 7 6 6 4
20 16 13 8 11 16 15 14 7 7 9 11 9 11 10 6 12 12 8 11 18 15 16 13 10 7 6 6 8 9 10 10 8 8 8 8 8 8 8 8 7 5 8 8 6 6 6 5 4
21 18 10 11 18 21 14 10 11 10 7 7 6 13 8 7 13 11 9 10 16 17 18 16 14 10 8 6 6 7 8 10 8 7 8 8 9 8 8 8 7 7 7 6 6 6 5 5 4
24 19 14 18 18 19 16 6 11 10 10 14 12 6 10 11 12 9 10 9 18 17 20 18 15 12 10 7 5 4 7 9 7 8 8 8 8 8 8 8 8 8 8 6 5 5 5 4 3
28 19 21 21 24 19 18 8 9 12 8 7 16 7 6 10 12 12 10 9 11 15 16 17 17 15 12 10 7 4 3 6 6 7 7 8 8 9 10 9 8 8 8 7 7 6 6 5 5
29 24 22 29 23 23 20 16 10 11 8 6 16 6 9 12 12 12 12 10 10 11 12 15 17 17 16 13 11 9 3 2 3 3 4 5 6 6 7 8 9 9 8 8 7 6 6 5 5
30 27 30 27 24 22 23 19 16 13 11 9 9 9 9 16 15 14 12 14 12 11 13 14 16 17 18 16 15 13 9 4 2 1 1 2 3 3 5 6 5 5 6 7 7 6 6 6 6
32 27 30 31 28 24 20 19 19 18 14 15 15 9 11 18 16 14 13 14 16 17 14 13 17 18 19 20 17 15 14 11 9 6 4 1 2 2 3 3 2 2 2 3 4 4 4 5 5
38 30 34 33 30 26 18 20 16 17 17 18 12 18 18 18 17 16 14 13 16 17 16 15 14 16 19 21 21 19 18 16 13 11 9 7 5 4 5 5 5 4 3 3 3 3 3 3 4
39 32 35 25 25 25 21 22 15 21 23 18 22 22 22 20 19 17 15 14 15 16 16 17 17 17 18 21 22 22 21 20 17 14 13 12 11 10 8 9 9 8 7 7 7 7 7 7 6
38 34 29 22 26 25 22 21 15 17 16 17 16 15 26 25 23 20 19 16 15 18 19 18 18 17 19 19 22 23 23 21 20 18 16 16 16 14 14 13 13 13 13 11 11 10 10 10 11
23 31 19 27 30 32 27 16 18 18 15 16 17 25 21 26 28 26 23 20 19 19 20 22 22 21 19 19 20 23 24 22 21 20 21 20 20 19 18 17 17 17 16 16 16 15 14 14 14
31 14 25 20 32 30 24 20 20 17 19 26 25 22 23 26 28 28 26 24 22 23 23 22 22 24 24 21 20 20 23 24 23 23 23 25 24 23 23 21 21 21 20 19 19 19 19 18 18
23 19 18 21 26 26 27 19 23 26 18 24 25 23 24 28 28 29 28 27 27 27 28 26 24 23 24 22 21 22 25 26 26 25 26 27 28 27 28 27 26 25 24 22 22 22 23 22 21
12 23 14 21 23 27 24 26 28 28 21 26 27 25 26 28 30 30 30 31 30 29 31 31 27 25 24 26 25 25 24 24 26 27 28 27 29 32 31 31 30 30 28 27 27 25 26 26 25
14 18 22 20 24 28 28 23 17 25 27 29 25 25 27 29 31 30 31 33 34 35 34 31 30 29 28 29 28 27 27 28 29 30 31 29 28 31 33 33 33 33 32 31 30 29 28 28 28
22 18 24 16 24 22 28 14 18 18 19 17 25 26 29 30 32 32 34 34 35 35 35 36 35 35 33 33 33 34 33 34 32 34 34 34 33 32 32 32 31 33 35 34 33 32 32 31 30
26 28 21 26 15 26 24 22 15 22 22 21 25 22 23 29 31 33 34 35 38 39 40 41 41 41 39 39 40 40 39 38 37 37 37 35 37 37 38 36 35 35 36 34 34 33 33 33 33
17 23 18 17 21 15 22 18 19 20 21 23 24 22 22 26 27 31 36 36 37 38 38 39 41 43 43 44 45 49 43 41 41 40 39 38 36 36 38 39 40 40 41 38 36 34 34 35 35
9 19 19 14 20 21 14 17 18 19 20 22 25 26 27 29 31 33 32 35 36 38 39 40 41 43 44 45 46 49 48 44 43 43 43 43 41 39 37 38 39 42 41 41 40 37 36 36 36
14 16 18 8 17 13 11 17 15 22 23 26 27 26 26 28 30 33 34 34 35 36 36 37 38 39 41 42 45 47 51 47 46 45 46 46 47 46 44 42 41 39 41 41 38 39 38 37 37
16 14 14 10 11 10 10 4 15 18 20 22 23 24 25 27 29 30 31 31 31 32 33 33 33 34 35 36 38 40 42 44 42 41 42 43 45 48 48 47 45 43 44 43 43 42 42 42 42
12 18 12 9 8 3 8 6 10 14 15 16 18 19 20 21 23 24 24 23 24 24 24 23 24 25 26 28 30 34 38 40 41 42 42 43 43 43 47 51 53 51 50 48 47 50 49 44 45
15 18 13 9 3 5 12 12 13 16 16 15 14 14 14 14 16 18 20 20 21 21 21 23 24 26 27 28 29 31 33 34 36 37 38 38 40 44 46 44 50 55 56 55 53 52 51 48 45
19 18 7 5 4 3 10 9 2 14 14 12 11 12 11 10 11 13 15 18 21 24 26 27 28 29 32 33 34 35 35 36 36 36 37 38 39 40 47 46 45 47 48 51 55 56 56 53 50
20 20 6 6 6 6 7 8 3 13 15 16 12 13 12 13 13 14 16 19 22 25 28 31 33 35 37 38 39 39 39 38 37 37 37 38 37 37 39 45 47 47 46 45 47 52 56 53 52
28 19 7 1 3 2 8 6 10 17 18 15 14 13 12 13 15 18 20 22 24 27 29 30 30 32 33 34 38 40 41 41 40 39 38 38 37 37 38 40 41 42 47 50 50 48 49 53 53
12 19 8 3 4 5 7 7 6 19 20 19 13 10 11 14 17 20 21 23 25 26 27 27 26 24 24 24 24 27 32 35 38 41 41 41 40 39 38 36 35 38 36 41 46 47 47 46 47
11 8 7 4 2 3 2 4 6 12 19 18 9 11 14 17 19 20 21 23 25 24 24 22 19 17 16 18 19 20 22 26 29 33 37 41 43 42 41 40 40 38 38 38 38 42 48 50 49
13 10 12 5 4 4 1 1 4 13 16 12 9 14 15 15 16 18 19 20 21 21 20 16 14 14 15 16 18 20 22 23 24 26 28 31 34 37 39 39 39 44 43 43 42 41 41 44 46

GFSSGP_700_spd_054.txt.gz
Wind_Speed
16 15 12 8 6 7 12 12 8 4 8 13 13 13 11 4 8 7 7 11 9 11 11 10 8 7 9 10 11 12 12 10 9 9 9 10 10 10 9 8 7 8 9 9 8 8 8 7 4
16 16 13 9 10 15 12 11 11 7 10 16 17 12 14 5 11 7 7 11 13 13 14 12 10 6 5 7 9 11 12 12 10 9 9 10 10 9 9 9 9 8 9 8 8 8 8 7 6
16 17 16 8 13 18 16 15 11 12 13 6 4 12 9 5 12 14 9 10 13 15 15 14 12 8 6 5 6 8 11 13 10 10 9 9 9 9 9 9 9 9 8 8 8 8 7 7 6
23 18 20 18 16 18 17 8 7 12 10 14 12 7 15 9 10 14 12 11 11 15 16 17 14 12 9 5 4 4 7 10 10 9 9 9 10 10 9 9 9 9 9 9 9 8 8 7 6
27 20 18 17 20 16 15 7 14 7 7 7 15 6 7 10 14 12 11 11 15 14 18 18 16 15 12 10 6 4 3 6 9 9 8 9 9 9 11 11 10 9 9 9 8 8 9 8 8
36 31 15 25 21 20 15 11 9 12 6 8 15 9 9 12 14 13 11 10 9 14 15 16 17 16 15 13 10 7 3 3 5 8 7 6 6 8 8 8 8 9 9 9 10 10 9 9 8
40 27 30 21 23 21 20 18 13 15 10 9 10 9 12 13 13 15 13 11 9 10 12 14 15 16 17 17 15 12 8 5 2 2 5 5 4 4 5 7 7 6 7 7 8 8 8 8 7
44 35 32 26 23 19 16 18 15 15 13 13 13 8 14 13 16 14 15 14 13 11 13 12 14 17 17 18 17 15 12 9 7 3 2 2 3 3 3 3 4 5 5 6 6 6 5 5 5
37 41 36 33 26 23 11 21 20 19 19 13 16 15 11 11 16 16 15 13 14 16 18 18 14 15 17 18 19 18 16 14 11 9 8 7 4 3 4 5 5 5 5 6 5 6 6 5 6
35 38 36 25 21 24 17 14 16 19 22 18 18 21 17 14 16 16 14 13 15 15 17 18 20 17 16 18 19 20 19 18 17 15 13 12 10 8 7 7 7 7 8 8 8 8 9 9 9
37 37 42 23 23 26 25 16 23 12 14 18 19 22 22 21 17 18 17 15 15 16 16 18 19 20 19 18 17 19 20 20 19 18 17 16 15 13 13 13 12 11 11 11 12 12 12 11 12
33 38 25 23 23 26 25 24 21 13 15 13 19 22 24 24 22 22 21 19 18 16 15 17 19 20 20 18 20 20 20 21 22 20 19 20 20 18 18 17 17 17 16 15 15 15 16 16 16
31 14 25 17 25 29 24 28 28 17 21 18 25 25 22 19 22 26 26 23 23 20 19 20 19 20 21 21 20 20 21 23 23 25 23 22 22 22 22 22 21 21 21 21 20 19 19 19 19
27 20 15 22 28 27 30 33 23 23 18 26 26 27 24 24 22 23 26 27 26 25 24 23 22 22 21 21 23 23 23 23 22 22 23 25 26 25 25 26 26 26 26 26 25 25 24 23 23
11 26 15 23 27 27 26 30 31 26 26 24 25 29 27 23 22 25 26 27 28 29 29 27 25 24 25 23 23 26 24 23 23 23 24 24 25 27 27 28 30 29 29 29 30 29 29 28 27
19 21 22 17 18 19 25 26 24 27 28 28 26 25 25 25 24 26 27 29 29 28 29 30 30 27 27 27 26 25 26 27 27 27 27 27 26 27 28 28 30 31 31 30 31 31 32 31 30
21 15 30 19 22 23 24 18 17 13 20 24 27 27 26 26 26 29 31 31 32 32 31 31 31 33 29 29 32 27 28 31 31 30 30 31 31 32 32 32 31 30 31 30 30 30 32 32 32
27 21 28 26 26 23 24 26 9 16 19 21 19 19 25 29 29 30 30 34 35 35 34 35 37 37 36 34 34 36 33 33 35 35 36 35 36 35 35 35 35 35 36 36 34 32 32 31 31
13 25 20 23 13 22 29 26 23 19 22 21 22 23 26 26 23 23 33 37 36 35 35 35 35 37 38 38 39 42 40 38 38 38 38 40 41 39 38 38 36 36 38 38 38 38 37 36 34
12 13 25 14 25 21 13 19 26 18 24 27 24 26 25 23 23 32 35 34 33 34 36 35 35 36 38 41 41 43 46 45 43 42 42 43 45 43 41 41 40 39 40 40 41 40 39 39 38
14 12 22 18 16 18 17 21 22 28 29 27 27 27 27 27 30 33 33 33 33 33 33 34 34 34 35 35 37 38 41 45 43 38 37 38 42 46 46 45 45 44 43 43 43 41 40 40 38
17 13 12 17 12 4 19 6 14 26 26 27 28 28 29 30 32 33 32 31 32 31 31 31 30 30 30 30 31 32 34 38 42 40 37 35 35 36 40 46 49 48 46 46 46 45 45 44 43
14 20 12 10 9 3 10 7 13 20 24 23 26 26 26 27 28 29 27 28 28 26 26 25 24 25 24 24 26 27 29 30 32 35 35 35 34 34 36 38 41 47 51 52 51 49 50 51 49
17 19 14 9 7 3 16 16 15 23 21 20 22 20 19 18 20 21 21 21 21 21 21 22 22 23 24 25 26 28 29 29 30 30 32 33 34 35 35 35 35 39 43 45 49 52 55 56 56
20 18 6 3 3 3 9 14 16 11 12 18 20 17 14 13 15 14 15 18 20 21 22 24 25 26 28 29 30 31 32 33 33 34 34 35 35 35 34 34 36 36 39 42 43 45 47 51 55
21 21 4 4 4 4 11 8 6 18 16 17 16 13 12 14 13 13 13 15 17 19 20 23 26 28 30 32 33 34 36 36 36 36 36 36 36 37 36 35 35 37 36 37 44 46 46 44 43
23 24 11 4 2 5 9 7 11 19 22 22 16 14 15 14 13 14 16 18 20 21 23 25 27 28 28 29 30 31 31 32 34 36 37 38 37 37 37 36 38 38 37 35 36 39 44 47 48
23 22 9 6 2 3 9 9 13 23 24 19 17 15 14 12 12 14 17 19 21 23 24 24 24 25 24 24 23 23 26 27 28 30 31 33 33 35 37 38 38 38 37 36 36 37 37 38 42
25 19 13 8 4 2 2 2 6 13 17 20 17 16 12 12 14 16 17 18 20 21 22 23 22 21 20 20 21 21 21 22 23 24 25 25 26 27 30 32 34 37 39 39 39 39 38 37 36
13 11 22 6 4 5 1 1 3 9 18 21 14 10 11 12 13 14 15 16 18 19 19 19 19 19 19 19 20 20 20 21 21 21 22 23 23 24 28 28 27 29 34 37 39 38 40 40 38

GFSSGP_700_spd_057.txt.gz
Wind_Speed
13 13 12 11 9 6 12 9 7 13 14 18 16 10 11 13 7 7 8 13 13 13 12 12 11 8 7 10 12 14 14 11 10 10 10 10 10 10 10 9 10 9 8 9 9 9 8 7 5
13 14 13 13 8 10 12 11 8 12 13 17 14 15 11 11 8 6 8 15 13 14 14 13 11 9 6 7 9 12 15 13 11 10 10 10 11 11 11 11 11 10 9 9 9 8 8 7 6
12 14 13 12 14 17 12 6 17 15 14 11 17 15 12 13 13 8 9 13 14 15 16 14 12 10 6 4 6 9 12 16 14 11 11 11 11 11 11 11 11 11 10 9 9 8 8 7 7
18 14 13 16 15 23 14 8 12 15 13 11 12 11 10 10 10 12 13 12 13 15 17 16 14 12 8 4 2 5 8 13 15 12 11 10 11 11 12 11 11 11 11 11 11 11 10 9 8
25 17 17 18 22 24 13 6 6 11 10 14 15 13 12 9 10 13 15 14 11 16 17 18 16 13 11 8 5 2 4 8 12 13 10 10 10 9 10 11 12 12 11 11 11 11 10 9 9
41 21 17 24 25 22 11 10 13 9 14 20 8 14 14 12 13 13 13 14 14 15 17 19 17 15 14 12 9 6 2 3 5 8 12 10 8 8 9 9 8 9 10 11 11 11 10 10 10
40 36 29 26 21 22 15 11 12 15 14 15 9 14 14 13 14 15 13 12 11 13 15 17 16 16 15 15 13 11 7 4 1 3 7 9 8 6 6 7 8 8 9 9 9 9 8 8 8
41 40 36 29 29 24 11 16 17 18 16 12 10 11 14 14 13 10 13 13 12 10 11 13 15 16 17 17 16 14 12 9 6 3 0 3 5 7 6 5 5 5 5 5 6 7 7 8 8
39 35 36 39 29 29 12 16 20 18 24 15 15 12 10 12 13 13 11 9 11 11 10 11 13 15 16 17 17 16 15 13 11 9 6 5 3 2 3 3 5 6 6 7 6 7 8 8 8
42 44 44 31 34 23 15 13 21 21 24 15 14 17 13 15 14 15 14 12 11 13 14 15 14 14 14 14 15 16 17 16 15 14 12 11 10 8 6 5 6 6 8 9 8 8 9 10 10
39 38 43 34 35 26 10 15 13 15 24 26 17 20 20 15 16 15 14 14 13 14 15 15 15 17 18 14 13 14 16 17 17 17 17 16 15 13 12 12 11 10 11 11 11 11 11 13 14
39 43 36 30 27 25 19 18 20 15 13 21 21 18 19 20 17 18 17 15 15 15 15 14 12 13 14 16 16 17 17 18 18 20 20 20 19 17 17 16 16 16 16 16 15 16 15 15 16
39 31 36 21 27 21 24 19 25 22 13 15 14 18 20 19 22 22 22 21 20 19 17 16 15 15 14 15 17 18 17 18 19 20 22 23 22 20 19 20 20 21 20 20 20 20 20 20 20
33 21 21 25 32 23 34 22 24 27 21 22 15 16 21 21 19 21 24 26 26 24 20 20 20 19 18 18 19 20 19 20 20 21 21 23 23 22 22 22 23 24 24 24 23 25 24 24 25
9 27 20 29 26 28 31 31 34 27 28 26 27 24 26 25 24 21 22 24 28 29 28 26 23 23 23 23 22 21 22 22 24 23 24 23 24 24 24 25 25 25 27 28 28 28 28 27 27
16 23 24 35 17 25 29 36 38 32 30 26 29 32 31 28 26 24 23 23 26 29 32 30 28 28 28 27 26 25 25 25 25 25 24 23 22 23 25 26 26 27 27 27 27 28 29 29 30
22 19 32 28 30 26 31 35 27 19 29 31 30 26 25 25 26 26 26 27 29 28 29 31 31 29 27 27 29 28 27 29 26 26 27 26 26 27 29 29 29 30 31 31 30 29 29 28 28
38 26 36 31 27 28 24 25 8 20 23 23 27 27 26 26 26 27 30 32 30 32 32 32 32 32 32 31 31 30 30 31 30 30 29 29 32 33 33 33 32 31 32 32 32 31 33 33 33
27 28 20 29 20 28 28 25 20 21 22 24 25 22 23 27 28 31 32 33 32 33 34 31 32 35 36 37 37 35 33 32 32 33 33 34 36 38 39 38 37 35 35 34 34 35 35 35 34
16 22 21 17 25 22 27 30 30 24 25 25 22 22 25 25 29 32 32 32 31 31 32 32 33 33 33 34 35 38 38 38 38 37 38 40 42 42 43 43 41 39 39 38 38 38 39 39 37
16 18 17 21 26 25 20 23 26 24 23 30 31 32 32 31 33 34 35 33 29 30 30 31 32 32 33 34 35 35 36 37 38 38 37 37 38 40 43 44 43 42 42 42 42 42 42 42 42
19 15 5 21 22 19 22 8 24 26 27 33 33 30 29 32 33 35 35 30 29 30 29 30 30 31 30 31 31 31 31 34 36 36 35 36 35 34 36 37 39 39 39 40 41 44 45 45 45
14 13 12 15 15 9 15 10 19 25 21 28 32 33 33 33 34 35 33 31 30 29 27 27 27 27 26 26 26 27 28 30 31 32 32 30 31 30 30 34 37 39 40 42 42 41 44 46 50
13 18 13 12 9 4 17 22 12 23 21 23 26 26 28 28 29 28 27 27 24 24 23 23 22 22 23 23 24 25 27 28 29 30 32 31 31 32 32 32 33 34 35 34 37 37 40 42 44
21 21 4 1 1 6 12 19 22 9 15 19 22 22 21 21 23 20 18 20 20 20 20 21 22 24 25 26 27 29 30 30 31 32 33 34 33 33 35 34 34 33 33 35 37 37 38 41 43
25 24 9 6 4 4 8 13 15 16 21 16 16 15 17 19 17 15 15 16 15 15 17 19 20 22 24 27 28 30 32 31 31 33 34 35 35 35 35 35 35 34 33 33 35 36 36 37 39
28 23 12 2 3 3 9 11 7 13 17 21 20 15 14 16 13 13 15 15 17 17 20 21 23 25 26 27 27 28 29 30 30 30 30 31 31 32 33 34 34 34 34 35 37 38 37 37 38
24 25 10 7 2 4 7 8 12 24 23 23 22 18 17 15 13 13 14 16 18 19 22 24 25 26 26 26 25 25 25 24 24 24 24 25 26 25 26 27 29 30 33 33 34 37 38 39 39
22 25 15 9 5 4 1 5 9 19 16 26 22 20 17 14 12 13 15 17 19 19 20 22 23 24 24 24 23 22 21 20 20 21 22 22 22 22 21 22 25 25 26 28 27 31 34 37 39
30 26 26 10 5 4 2 3 5 9 15 21 21 17 12 10 12 14 15 17 18 17 18 19 21 21 22 22 21 19 18 19 20 21 21 20 21 20 20 20 21 23 26 27 26 31 32 33 36

GFSSGP_700_spd_060.txt.gz
Wind_Speed
16 16 17 15 11 8 16 12 8 12 20 15 16 15 14 17 16 10 17 20 17 16 13 14 13 11 10 10 11 14 14 9 9 9 9 9 10 10 10 10 9 8 8 9 9 8 8 6 3
17 17 16 15 9 14 17 13 13 15 18 22 14 15 15 14 9 11 15 20 17 17 15 15 14 11 9 8 8 11 15 15 11 10 10 10 11 11 11 12 11 10 9 8 8 8 8 8 6
19 17 17 12 16 21 11 11 11 12 14 19 15 15 17 17 11 11 15 17 17 18 17 16 14 12 9 6 6 8 11 15 18 13 11 11 11 11 11 12 12 12 11 10 9 8 8 7 7
21 18 16 17 17 22 12 14 16 13 13 13 22 20 19 18 16 13 13 17 16 18 18 18 15 14 11 7 3 5 8 13 16 18 13 11 10 12 12 12 12 11 11 11 11 11 11 10 10
32 21 18 19 24 27 19 11 13 13 13 12 16 21 18 15 21 18 16 12 15 17 19 20 18 14 12 9 4 2 3 8 10 16 17 14 12 11 10 11 11 11 12 12 13 13 13 13 13
40 27 19 23 32 25 15 11 12 12 14 14 17 18 15 16 17 17 15 16 13 16 19 21 20 16 13 11 8 4 1 2 5 8 14 16 14 10 10 10 9 9 10 11 11 11 11 11 11
44 45 30 27 30 25 17 11 15 14 13 19 17 17 17 16 18 16 15 16 16 17 19 21 20 17 15 12 11 9 6 3 1 2 5 10 12 12 9 8 8 8 9 10 10 9 9 9 9
48 44 40 34 31 29 23 17 14 17 16 19 16 18 19 17 14 15 14 15 15 16 18 20 19 17 15 14 13 12 10 7 5 4 3 1 4 7 11 9 8 8 7 7 7 9 9 9 9
46 38 44 49 35 32 27 13 19 19 21 22 15 13 14 18 15 15 16 14 12 12 13 14 15 15 15 14 14 14 14 13 11 9 8 6 3 2 1 6 7 4 5 6 7 9 10 11 12
42 44 48 44 37 36 25 14 14 12 21 24 18 15 16 18 17 16 14 13 12 11 8 10 10 10 11 12 13 13 15 15 15 14 13 11 9 8 7 7 7 6 6 5 5 6 8 9 10
42 49 49 38 39 44 30 22 17 10 8 23 25 19 14 16 16 17 17 14 12 12 10 9 10 11 12 12 12 13 14 16 17 17 17 16 14 13 13 13 12 12 12 11 11 11 11 11 12
41 44 42 39 31 37 41 23 21 9 7 19 21 21 17 15 15 14 14 15 14 13 13 12 11 10 10 11 12 14 16 16 16 17 18 18 18 17 17 17 17 17 16 16 16 17 17 17 17
39 31 36 35 35 33 37 19 27 9 10 16 21 25 20 19 19 17 18 17 17 16 16 15 14 13 12 12 13 14 14 14 15 17 19 19 19 19 19 19 19 19 19 19 20 21 21 21 21
37 18 20 29 26 15 21 25 20 23 10 15 14 23 22 19 20 23 21 21 21 21 20 19 18 17 17 16 16 15 15 16 17 18 18 18 20 20 21 21 21 21 21 21 23 24 25 25 25
18 25 23 29 26 21 15 19 26 23 21 19 17 17 18 20 21 19 21 24 27 25 24 23 23 22 22 22 20 20 19 20 20 19 20 20 20 21 22 21 21 21 22 22 23 24 25 25 26
14 31 24 30 33 28 27 32 30 28 23 24 24 24 24 24 22 23 24 23 24 25 27 28 28 27 27 26 25 26 25 23 22 22 21 21 20 21 22 22 22 23 24 26 27 27 28 26 26
22 27 33 27 32 35 35 34 33 32 35 28 27 31 32 29 27 26 26 28 27 26 26 27 30 31 29 29 29 28 27 27 26 26 23 21 23 24 25 26 27 27 27 29 29 30 30 30 29
34 31 36 32 36 31 37 39 32 30 35 32 36 33 30 31 30 32 33 31 30 29 28 28 29 29 31 33 34 33 31 29 28 28 29 29 26 27 29 30 29 30 31 31 31 32 31 32 30
30 28 35 31 27 33 33 32 24 27 23 30 26 33 33 32 32 32 33 33 31 30 31 32 32 31 31 33 33 32 31 31 30 30 30 30 31 32 32 33 33 34 36 35 34 34 34 34 34
27 26 29 34 23 22 26 32 29 23 23 23 24 27 27 30 32 33 34 33 32 33 32 32 33 33 35 35 35 35 34 33 32 31 33 35 36 37 39 39 40 40 39 38 38 38 39 38 37
23 26 23 22 25 28 26 30 34 36 29 26 24 26 26 27 30 31 31 31 31 31 29 30 30 32 34 36 36 36 35 35 34 34 33 34 37 38 41 42 43 43 44 42 39 38 39 41 41
16 15 17 21 14 22 20 8 32 36 31 30 27 25 31 35 36 35 35 35 35 31 30 30 30 32 33 34 34 33 33 33 32 33 35 35 36 36 37 38 39 40 40 39 38 37 38 39 41
13 13 12 15 20 21 20 12 30 24 26 30 32 30 31 35 35 35 37 37 34 32 33 32 31 30 30 30 30 31 31 32 32 34 33 33 31 32 33 31 31 32 35 37 38 38 38 39 40
14 12 8 14 17 8 18 23 12 26 29 24 22 25 28 32 33 35 35 35 33 33 33 31 29 28 27 27 27 28 28 29 29 29 29 29 31 32 33 32 32 33 33 33 33 33 34 36 38
15 18 4 3 4 5 19 14 35 11 15 22 25 24 25 26 31 33 32 31 28 27 27 26 26 25 25 26 26 27 28 30 31 32 32 32 33 35 35 36 36 36 35 34 35 35 35 36 37
23 23 8 6 4 4 12 14 28 18 27 16 17 17 22 26 25 23 24 24 22 22 22 23 23 23 25 26 27 28 29 30 30 31 33 34 35 35 36 36 36 35 34 34 35 36 37 39 39
31 28 16 2 4 1 11 21 24 18 25 21 24 22 20 19 19 20 20 19 18 18 18 19 20 22 24 25 27 28 29 29 29 30 30 31 30 30 30 31 32 31 30 30 31 32 34 35 36
26 28 13 9 3 4 6 12 19 18 24 22 26 24 20 17 18 18 17 17 17 17 19 21 23 25 27 27 27 28 28 28 28 27 26 25 25 25 26 26 26 26 26 26 27 28 29 29 31
28 28 15 11 5 3 2 6 11 16 17 13 22 20 17 16 16 15 15 16 17 18 20 22 24 25 25 25 26 27 27 26 25 23 22 22 22 22 23 24 24 24 24 25 24 23 25 28 31
25 29 30 10 6 7 3 6 6 8 13 14 16 18 16 15 15 15 16 18 20 20 20 21 23 24 24 24 25 25 25 24 22 22 22 21 21 21 22 22 24 23 22 22 23 24 27 27 30

GFSSGP_700_spd_063.txt.gz
Wind_Speed
19 19 19 18 14 11 19 12 15 19 22 19 12 12 15 18 26 14 12 20 15 16 9 11 12 10 10 12 15 18 18 13 11 10 10 9 11 12 13 11 11 11 11 10 10 9 9 7 6
19 18 18 18 11 16 20 14 17 14 15 18 16 14 13 17 20 17 17 18 18 18 14 12 13 9 7 8 11 14 17 19 15 11 10 11 11 12 13 13 12 11 11 11 11 11 11 11 11
16 20 18 12 18 21 13 17 14 17 16 18 18 14 14 16 17 18 20 21 16 17 16 14 14 11 6 5 6 10 14 18 20 16 13 13 13 13 13 13 13 14 14 14 13 13 13 13 12
32 22 21 19 17 22 13 18 15 16 17 16 17 20 17 16 17 20 21 22 18 19 18 16 15 12 8 5 5 7 10 13 16 19 19 14 13 13 13 13 14 15 15 14 14 15 15 15 14
41 25 23 23 23 28 16 14 21 20 16 17 17 21 20 19 17 18 18 19 18 19 19 18 16 14 11 8 5 5 5 7 11 15 18 18 15 13 12 12 13 13 13 13 13 13 13 13 13
40 32 21 26 32 31 20 11 19 19 15 17 16 20 24 23 21 18 17 15 17 20 21 19 18 15 13 11 8 4 1 3 7 8 13 14 17 15 12 12 11 11 11 11 12 12 12 13 13
47 43 34 28 32 32 25 13 16 17 15 17 16 18 20 23 21 21 21 17 15 18 21 21 20 17 14 12 9 7 4 2 2 4 5 8 11 13 14 13 10 9 9 9 10 11 11 11 11
49 42 40 34 34 34 25 16 16 17 15 17 20 17 20 18 20 18 20 19 19 17 18 21 21 19 16 12 11 10 8 6 4 2 1 1 3 5 8 9 10 9 9 10 11 11 11 12 12
48 35 44 46 36 35 28 21 15 17 15 19 18 18 18 17 18 20 19 18 19 19 18 18 20 18 16 15 14 13 12 11 10 8 7 6 4 3 3 3 4 5 6 7 8 9 9 10 11
49 45 48 51 42 36 27 24 14 18 18 16 20 20 17 17 19 19 20 16 14 14 14 14 15 15 14 13 12 12 13 14 14 13 12 11 10 9 8 8 7 7 8 8 8 8 8 8 8
45 57 50 42 41 38 32 25 15 15 17 16 14 19 20 18 19 19 18 17 16 14 12 10 10 10 11 11 11 11 12 13 15 15 15 15 15 14 13 13 12 12 13 13 14 14 14 14 14
37 43 49 39 39 44 41 30 22 14 18 17 15 15 19 18 18 18 18 16 14 12 12 10 9 8 8 9 11 12 12 13 14 15 16 16 16 17 17 17 16 16 16 17 17 18 18 18 18
34 36 37 35 40 33 47 42 29 17 14 17 17 16 15 16 16 17 17 19 19 15 13 11 11 10 10 10 11 11 12 13 15 16 16 17 17 17 18 18 18 18 18 19 20 20 21 21 21
31 29 31 36 35 36 37 47 37 20 17 16 15 20 19 19 17 16 17 17 17 17 15 15 14 14 15 15 14 14 13 14 14 15 17 17 17 18 19 19 20 20 19 20 20 21 21 21 22
18 22 21 25 35 36 28 32 46 23 13 13 11 18 23 22 20 18 19 19 19 20 21 19 19 20 20 20 20 19 19 19 18 17 18 18 18 18 19 19 19 20 20 21 22 22 22 22 23
14 19 24 23 26 28 24 26 28 39 20 20 16 16 19 21 24 23 21 20 21 22 24 24 24 24 24 24 24 23 24 23 22 21 21 20 20 21 20 20 19 22 23 24 25 24 25 25 26
23 21 25 21 24 22 24 24 22 18 24 24 22 21 20 22 24 25 26 26 24 22 21 24 25 26 26 27 27 27 27 27 25 25 24 23 22 21 23 24 24 26 28 29 28 28 28 28 28
41 33 33 30 31 28 30 28 19 26 25 26 23 20 25 27 27 26 27 27 27 26 26 26 25 26 27 28 28 29 30 29 29 27 26 25 25 27 29 28 27 30 32 31 30 31 32 33 32
33 32 33 29 31 36 37 34 26 22 27 27 27 28 34 32 32 33 34 33 34 32 30 29 29 29 28 29 30 31 31 31 31 29 29 29 29 29 30 31 31 32 34 34 35 36 36 35 35
20 25 26 26 21 26 32 28 30 29 32 32 28 34 36 39 39 36 35 34 32 32 33 33 32 32 31 32 33 34 34 34 32 31 31 32 33 33 35 35 36 38 40 40 40 41 42 42 38
20 27 27 25 20 26 27 32 32 34 36 32 30 28 31 32 33 34 36 35 34 34 34 33 32 32 33 33 33 35 35 35 34 33 32 32 34 36 38 39 40 41 42 42 41 41 41 41 40
20 18 15 20 27 18 21 8 29 39 42 39 33 30 31 32 32 32 32 32 30 30 31 31 32 32 32 32 33 34 34 34 34 34 33 33 35 36 38 38 38 38 38 39 39 39 39 40 39
10 11 17 19 15 14 17 12 32 27 34 41 42 36 34 29 28 31 32 32 33 34 35 34 34 34 34 34 33 34 34 33 33 33 34 34 35 35 34 33 32 32 32 32 33 33 33 34 35
14 12 10 8 15 9 19 19 18 25 35 30 32 36 35 35 30 31 33 35 36 36 35 35 35 35 35 34 32 32 32 32 32 32 33 33 32 32 32 33 34 34 34 32 32 32 32 31 33
12 16 5 2 4 4 13 15 32 12 19 17 23 27 31 35 29 28 30 32 35 35 35 34 34 32 30 29 30 30 30 31 32 32 32 33 34 35 35 35 36 37 37 36 35 35 33 34 35
21 21 7 6 4 3 11 15 19 25 28 20 16 25 30 31 27 25 26 29 31 31 28 27 27 27 27 28 29 30 31 32 32 32 32 33 35 36 36 37 37 38 38 37 37 37 37 37 37
25 21 15 2 2 0 11 21 36 34 26 19 26 25 23 27 24 25 26 25 24 23 23 23 24 24 25 26 27 28 28 29 30 31 31 32 32 33 33 33 33 33 33 33 33 34 34 34 33
19 25 13 9 3 4 6 12 19 13 14 26 26 23 23 21 21 21 20 20 21 21 20 21 22 24 25 26 27 28 29 31 31 31 31 30 30 29 27 27 27 27 27 26 26 26 27 28 28
29 28 22 12 8 4 2 5 8 13 16 17 18 24 24 19 18 18 19 20 19 18 19 21 22 24 25 26 27 27 29 29 30 29 28 28 27 26 26 26 25 25 25 23 23 23 24 25 25
29 31 32 18 7 12 4 11 14 17 10 13 11 16 18 17 17 18 19 18 17 18 19 21 22 23 24 25 26 27 27 27 27 26 26 25 25 25 25 25 26 25 24 23 22 22 23 24 27

GFSSGP_700_spd_066.txt.gz
Wind_Speed
19 20 20 19 14 12 18 14 17 18 17 16 12 12 12 22 19 14 11 20 16 10 8 9 11 12 14 16 20 22 21 16 14 14 13 13 14 15 15 14 14 15 14 14 14 14 13 13 12
18 18 19 20 14 16 16 19 15 14 15 18 14 13 11 11 23 14 13 19 18 13 8 8 9 10 10 12 15 18 21 22 18 15 14 14 14 15 15 15 16 16 16 16 15 16 15 14 13
15 17 17 19 19 18 12 21 17 16 18 18 14 15 14 16 19 18 14 19 17 17 13 8 9 8 7 8 10 14 16 19 20 18 15 14 15 15 15 15 16 17 17 17 17 17 17 16 16
20 13 16 20 17 23 13 18 20 18 18 19 17 15 15 15 19 20 21 21 20 18 16 12 10 9 6 5 7 9 11 15 18 20 20 17 15 14 14 15 15 16 16 16 16 16 16 16 16
30 23 20 22 24 27 18 15 19 20 22 19 17 15 15 15 15 19 23 23 22 21 18 14 12 11 8 6 4 5 7 10 13 16 18 20 18 16 14 14 14 13 14 13 13 14 14 14 14
41 32 25 30 29 26 24 13 16 20 20 17 16 15 15 17 18 20 24 25 22 21 19 16 15 14 11 8 6 4 4 5 7 10 12 14 17 17 17 16 14 13 13 12 13 13 13 12 13
44 31 38 28 30 30 29 16 11 19 18 17 14 14 15 19 21 21 22 22 21 21 22 18 16 15 14 11 9 7 4 2 3 4 6 8 10 12 13 14 14 15 14 15 14 14 14 13 14
35 36 35 32 31 34 31 23 12 16 19 19 17 12 13 17 20 23 23 18 17 19 21 22 20 18 15 13 11 10 8 6 4 3 0 2 3 6 7 8 9 8 9 9 11 12 13 15 16
36 40 37 39 32 36 34 24 16 14 18 16 15 13 13 16 18 21 23 25 21 19 19 20 20 20 18 15 14 13 11 9 8 7 6 5 4 4 2 2 3 5 4 4 4 5 6 7 8
44 46 43 45 38 38 33 27 18 13 18 19 18 16 14 16 16 17 18 17 20 20 18 18 19 20 19 17 15 14 13 12 12 12 11 10 9 9 8 7 7 8 8 8 8 9 10 11 12
40 45 44 39 38 36 30 25 19 14 19 20 20 19 17 16 17 18 18 16 15 16 16 16 16 17 17 16 14 14 12 13 13 14 14 13 13 12 13 12 12 12 12 12 12 13 13 14 15
37 41 46 32 35 46 36 30 21 18 20 21 22 22 19 19 18 17 20 17 17 17 18 16 13 12 12 12 12 12 12 12 13 13 13 13 14 15 15 15 15 15 15 15 15 15 16 17 18
37 34 42 45 38 42 47 40 28 20 17 20 21 21 17 18 17 20 19 18 18 18 15 14 12 12 12 12 12 11 12 13 13 13 14 14 15 15 15 16 16 17 17 18 18 18 19 19 20
28 27 28 41 34 35 49 48 39 29 15 16 20 20 19 19 17 19 20 21 19 17 15 14 12 12 12 13 12 12 12 13 12 13 14 15 15 16 15 17 17 18 19 20 20 19 20 21 22
13 24 19 33 31 35 43 45 53 38 21 17 23 24 19 17 18 18 17 17 17 17 17 15 15 15 15 16 16 16 16 16 16 17 16 17 16 16 16 18 18 19 20 20 21 21 22 23 24
17 18 23 25 27 27 28 39 39 48 31 20 24 27 25 21 20 19 20 22 21 20 18 18 18 18 19 20 21 21 21 21 21 20 21 20 19 19 19 20 20 21 22 23 24 26 27 27 27
22 22 26 20 24 32 25 35 24 38 39 24 22 24 23 23 21 21 21 22 23 24 24 23 22 22 23 23 24 25 26 25 24 24 24 23 22 23 23 22 22 25 27 28 29 29 31 31 30
36 26 28 27 28 28 28 28 21 21 42 30 22 25 25 22 21 21 21 22 22 22 23 24 24 23 23 23 24 24 25 26 26 26 26 26 26 25 26 27 27 29 30 30 32 33 33 33 34
34 28 24 23 21 26 25 23 22 20 23 41 30 28 26 23 21 23 23 24 25 25 25 26 27 27 26 27 25 25 26 27 28 28 29 29 28 28 29 29 29 30 31 32 33 34 36 38 38
25 29 21 20 19 21 23 22 19 23 20 32 35 30 28 23 23 26 27 29 30 31 31 30 29 29 29 29 29 29 30 30 29 30 30 31 32 32 32 32 32 34 35 35 36 38 42 42 41
21 26 22 19 20 19 19 26 27 31 30 20 29 24 25 27 28 31 33 35 33 32 32 32 32 31 31 30 31 31 31 31 31 32 32 33 33 34 35 35 35 36 38 38 38 39 40 41 40
14 14 17 17 18 13 16 6 32 36 35 26 32 33 29 29 29 31 33 32 32 32 34 33 33 33 32 30 31 31 31 31 32 33 33 34 35 35 36 36 37 36 36 37 36 37 38 38 37
12 13 11 15 19 15 16 10 30 26 31 33 33 34 31 30 32 30 29 29 29 29 31 32 32 33 32 32 33 33 33 33 33 33 33 35 36 37 37 37 36 35 35 34 33 34 35 35 35
10 12 13 13 9 6 20 15 19 29 35 32 32 37 38 36 33 32 31 31 31 32 33 34 36 37 35 35 34 34 34 34 33 33 33 34 35 35 34 34 34 34 34 35 35 35 35 35 36
16 18 5 1 2 4 8 19 32 6 13 18 18 32 35 40 43 39 38 33 31 32 33 35 36 36 35 34 34 34 34 32 31 32 33 33 33 34 34 35 36 37 37 38 38 38 37 36 34
17 17 6 5 3 3 12 10 9 14 21 24 21 17 28 30 37 37 37 34 30 31 33 35 35 34 32 31 30 30 30 30 31 32 33 34 35 35 36 36 36 37 37 37 37 37 36 35 34
20 19 9 4 1 1 7 12 21 24 22 25 20 21 21 26 32 27 30 32 29 29 30 29 28 28 27 26 26 28 28 29 30 30 31 32 33 34 34 34 34 34 33 32 32 32 32 32 31
16 21 10 6 1 3 5 9 13 14 15 16 19 23 18 22 21 26 26 26 26 27 25 23 23 23 24 25 26 27 28 29 30 30 31 32 32 32 31 30 29 28 28 28 27 26 27 27 27
22 19 16 11 8 4 2 6 2 4 19 15 13 16 20 20 19 16 18 20 20 20 20 21 22 23 24 26 27 27 28 29 30 30 30 30 30 29 28 27 27 26 26 26 25 25 24 24 24
29 26 25 13 6 10 5 14 7 15 17 13 6 10 12 17 16 16 17 18 17 18 19 20 21 23 24 25 26 26 27 28 29 29 28 28 28 27 26 26 26 25 25 25 25 24 24 23 23

GFSSGP_700_spd_069.txt.gz
Wind_Speed
22 23 23 22 15 12 17 12 16 14 15 15 14 10 11 18 17 11 13 20 15 11 11 14 16 17 19 21 23 23 19 16 15 16 16 16 16 17 17 16 16 17 16 16 15 14 13 13 13
21 23 22 21 15 18 17 19 15 21 15 19 15 13 11 17 16 13 14 19 15 12 10 13 13 14 15 17 19 21 21 21 18 16 15 15 16 16 17 18 19 19 19 18 17 16 16 16 16
21 22 21 16 18 21 15 21 15 18 25 18 16 15 14 13 19 18 15 19 15 14 10 12 11 11 11 12 14 17 19 22 22 18 16 15 16 16 17 18 18 19 18 18 18 18 18 18 18
25 23 20 18 18 23 18 18 21 17 18 17 16 16 14 14 14 20 19 20 15 16 13 11 10 9 9 8 10 13 15 18 20 20 18 16 16 15 16 16 16 16 15 15 15 16 16 16 15
28 20 17 20 20 22 21 16 22 19 21 24 22 16 16 15 16 21 22 24 21 18 17 14 11 10 8 6 6 8 10 13 15 16 18 19 19 18 17 17 16 15 14 14 14 15 14 14 13
36 29 15 26 24 18 24 16 19 18 23 25 22 17 17 15 16 19 25 25 24 21 19 16 14 12 10 7 5 5 6 8 9 11 13 15 17 18 18 19 18 17 16 16 16 15 15 15 15
41 39 33 25 23 24 23 21 14 16 22 24 22 19 15 17 16 18 25 26 25 23 21 18 16 14 13 11 9 6 5 5 4 5 7 9 11 12 13 13 12 12 13 14 14 14 15 15 15
44 42 33 35 26 26 27 25 14 11 17 21 21 19 15 18 18 19 22 24 24 23 23 21 18 16 15 14 12 10 8 6 5 2 1 3 4 5 7 7 8 8 8 8 7 7 8 8 7
40 36 43 30 24 28 29 28 21 10 15 20 21 18 16 16 20 22 22 23 25 24 24 24 22 19 18 16 14 13 11 9 7 6 5 3 3 3 2 1 1 2 2 3 4 5 5 6 7
42 45 42 42 26 26 25 25 24 14 14 19 22 19 18 19 18 17 21 25 23 23 23 24 23 21 20 19 18 16 14 12 11 10 9 8 8 7 7 7 7 7 7 8 9 9 9 9 9
40 45 43 35 33 27 33 17 22 18 16 22 24 21 20 20 20 18 17 19 21 21 21 22 22 22 21 20 19 17 15 14 13 13 12 12 12 11 12 12 11 11 11 12 12 13 13 13 13
36 39 41 28 33 41 32 30 18 19 19 24 23 21 21 20 18 18 17 17 16 19 23 23 21 20 20 20 19 17 15 15 14 13 12 12 13 14 14 14 13 14 14 14 15 15 15 16 16
38 24 34 30 32 38 42 33 27 19 21 23 24 21 22 22 22 21 21 20 18 18 18 18 18 17 17 17 17 16 15 15 14 13 13 13 14 15 15 15 15 15 16 16 16 17 17 18 18
32 26 30 37 34 36 43 42 40 27 19 22 23 22 21 22 21 21 21 21 19 19 18 17 17 17 17 16 16 16 14 13 13 12 13 14 14 16 16 16 16 17 18 19 18 18 19 20 20
11 32 27 26 34 42 35 46 50 39 27 19 24 26 25 24 22 21 22 22 20 19 19 18 17 16 16 16 15 15 15 14 15 15 15 14 15 16 17 17 17 19 20 20 21 21 21 22 23
18 21 24 21 25 30 37 53 49 49 40 24 18 27 26 26 26 22 21 22 23 23 19 19 17 16 16 17 18 18 18 18 18 18 19 18 18 19 18 19 19 21 22 23 24 25 25 26 27
22 21 28 23 21 24 33 33 42 49 48 35 22 28 29 29 28 24 22 22 21 21 21 20 20 19 20 21 21 22 22 22 22 22 22 21 22 21 21 22 22 24 25 25 27 28 30 30 31
32 24 27 23 27 27 28 23 23 26 46 43 30 28 32 31 29 27 25 23 21 20 20 20 21 22 22 23 22 23 24 24 24 24 25 26 26 26 25 25 25 27 28 29 31 32 32 33 33
28 22 23 21 18 21 23 21 26 18 20 21 39 32 32 33 30 28 26 22 22 21 21 22 23 23 23 23 24 24 23 24 25 26 27 28 29 29 28 28 28 30 30 31 32 34 36 37 37
25 26 21 17 13 13 17 20 21 20 23 22 23 38 35 32 32 31 29 25 22 21 21 23 25 26 27 27 27 27 26 27 28 29 29 30 31 31 32 31 31 32 33 33 34 36 39 40 39
23 28 23 18 14 10 12 21 26 24 21 22 18 34 37 36 34 28 27 25 23 23 24 26 27 27 27 27 27 29 29 29 30 30 30 30 31 32 33 33 33 34 35 35 35 36 37 38 38
16 18 19 18 16 10 18 7 20 29 29 25 22 26 45 39 32 28 25 26 26 26 28 30 31 31 30 30 30 30 30 30 30 31 31 32 33 34 34 34 35 35 36 36 35 35 35 37 35
9 16 17 14 14 12 17 9 19 18 27 31 26 21 40 43 36 30 24 22 26 27 26 27 28 29 30 30 30 30 31 32 32 33 33 34 34 34 34 34 34 35 34 33 32 32 32 33 35
12 17 16 13 11 6 16 17 8 16 28 28 27 26 27 42 39 37 27 27 28 27 27 28 28 29 30 31 33 33 34 34 34 34 34 34 33 33 33 33 33 33 33 33 33 34 35 36 36
17 21 5 3 3 4 7 16 24 5 6 10 18 21 23 33 31 32 33 31 29 29 30 30 31 33 35 36 36 35 34 34 34 34 33 33 32 32 33 33 33 34 35 35 35 36 36 37 37
16 18 6 6 5 3 11 7 4 3 9 18 11 12 15 23 33 38 39 37 36 37 35 33 34 35 35 36 36 35 34 33 33 32 32 32 32 33 33 34 34 34 34 34 34 34 35 35 34
22 16 6 4 3 1 5 6 12 14 11 14 17 19 17 22 23 33 36 43 41 36 34 35 34 32 32 33 33 32 31 31 31 31 31 31 31 31 32 33 33 34 33 32 31 31 29 28 28
18 22 8 3 1 3 2 6 8 1 10 10 10 15 25 17 21 20 26 31 36 35 33 32 32 30 28 27 27 27 28 28 29 29 30 31 31 32 33 33 33 32 30 29 28 27 26 26 25
18 20 11 6 4 2 1 4 6 7 14 15 14 6 15 21 14 15 20 27 28 28 27 28 27 26 25 25 25 26 26 27 28 28 29 29 30 30 31 30 30 28 27 26 25 24 24 24 23
23 22 22 10 5 8 3 10 6 12 16 7 15 15 7 12 15 15 17 19 21 23 23 22 21 22 23 24 25 25 26 27 27 28 28 29 29 29 28 28 27 26 25 24 23 23 23 22 21

GFSSGP_700_spd_072.txt.gz
Wind_Speed
25 24 24 22 14 11 18 10 20 17 18 19 19 14 14 13 14 7 18 19 14 13 15 17 20 21 23 23 22 19 17 16 16 16 16 17 16 17 17 16 16 15 14 13 12 12 12 12 12
26 25 24 23 14 19 20 19 19 24 20 18 18 14 14 16 18 9 21 18 16 14 15 16 18 19 20 21 22 21 19 17 16 16 16 17 17 17 17 18 17 17 16 16 15 15 15 15 15
27 26 24 18 19 23 21 25 19 30 15 19 18 17 15 21 20 14 19 19 16 14 15 15 14 16 17 18 18 19 20 19 17 16 16 16 16 16 16 17 18 17 17 17 16 16 16 15 14
28 27 25 18 21 19 12 21 24 18 32 15 20 17 17 15 22 18 24 22 18 16 16 14 12 12 13 14 14 15 16 19 19 17 16 16 14 14 15 14 15 15 15 14 13 14 14 13 13
30 30 19 20 19 19 21 18 23 19 22 33 19 17 18 16 16 25 28 26 19 20 16 15 13 10 10 11 10 11 13 14 16 18 17 17 16 16 16 15 16 15 15 14 13 14 14 14 14
33 30 23 25 20 20 23 18 19 21 21 35 26 16 18 17 18 24 30 29 24 20 19 17 16 12 10 9 8 8 9 10 11 12 14 14 14 14 16 16 17 17 16 16 15 15 15 15 15
35 30 26 19 17 19 22 18 15 20 22 27 29 24 19 20 19 25 31 31 28 25 22 20 18 15 12 10 9 8 6 6 7 7 8 9 10 10 11 12 11 11 11 11 12 12 11 11 10
42 30 27 17 14 15 21 22 15 15 23 27 24 24 26 20 19 23 31 32 30 27 25 22 20 17 14 13 11 10 8 6 7 4 4 5 3 4 5 5 6 6 5 5 4 4 4 4 4
42 26 31 32 22 15 28 22 21 14 20 26 27 26 25 24 21 22 26 31 30 29 27 25 23 20 18 16 14 13 11 10 9 8 7 5 5 4 4 3 2 3 2 3 3 4 4 5 7
39 37 35 28 21 27 29 25 22 18 15 21 27 26 25 27 25 22 22 24 27 27 27 27 26 23 21 19 18 17 15 14 12 11 10 10 9 9 9 8 8 8 8 9 9 9 9 10 10
43 50 28 30 25 23 28 30 19 17 17 21 26 25 26 27 27 24 20 20 21 25 27 28 28 26 24 22 21 19 17 16 16 15 14 13 13 13 13 12 13 12 12 13 13 13 13 13 14
31 37 32 24 32 33 29 36 16 19 20 20 24 26 24 26 29 26 23 20 21 22 23 27 29 29 26 24 22 20 19 18 17 16 15 15 15 15 15 15 15 15 16 16 16 16 16 16 17
32 24 25 22 29 27 30 35 27 15 19 19 24 25 24 27 26 26 25 22 22 23 25 25 27 26 25 23 22 20 20 19 17 16 16 16 16 16 16 16 16 17 18 18 18 18 18 19 19
26 22 24 28 28 34 32 36 38 27 19 19 22 25 24 27 27 27 26 25 22 20 21 23 24 24 24 23 22 21 19 18 17 17 16 16 16 16 17 17 18 19 20 20 20 20 20 21 21
16 26 21 30 32 30 32 35 51 30 26 17 18 23 25 27 26 26 27 28 24 23 21 21 22 23 22 21 21 20 19 18 17 16 16 16 16 16 16 17 19 20 21 21 21 22 22 23 23
16 26 20 24 30 26 26 35 35 49 37 27 18 18 27 26 26 26 27 27 27 25 23 22 22 21 21 20 20 20 19 19 18 18 18 19 19 19 19 19 20 21 21 22 22 24 24 25 27
20 19 30 21 26 29 30 23 26 35 45 39 27 19 28 29 28 28 28 28 26 25 25 23 21 20 20 20 19 19 19 20 21 21 21 22 23 23 23 23 23 24 24 24 25 26 28 29 31
29 21 26 21 27 26 28 22 20 31 54 47 36 30 27 30 30 31 30 29 27 27 27 25 22 21 21 21 21 22 23 24 25 26 27 28 27 27 27 27 27 27 27 27 28 30 32 32 34
23 20 19 17 22 23 20 23 26 24 25 44 45 38 31 32 31 32 33 31 29 27 25 24 23 23 22 21 21 21 22 24 26 26 27 28 28 29 29 29 30 30 30 30 32 33 34 35 36
22 22 19 13 13 16 15 22 18 21 20 23 44 48 38 34 35 34 33 32 30 28 26 24 23 22 22 23 24 24 24 26 27 28 29 30 30 31 32 33 33 34 34 34 34 35 36 37 37
22 24 20 15 15 12 10 16 23 23 25 24 25 35 43 40 39 37 35 35 33 31 28 26 25 24 24 24 25 26 27 27 28 29 31 31 31 31 32 33 34 35 36 35 35 37 37 38 37
17 20 17 15 17 10 14 5 14 21 22 27 23 26 26 48 44 41 38 35 34 33 31 29 27 26 27 27 28 28 29 30 30 31 31 31 32 32 32 33 35 36 37 36 36 36 37 37 36
11 23 16 13 13 8 10 8 12 14 24 30 31 29 29 41 51 44 39 33 34 34 32 30 28 29 30 30 31 31 31 31 31 32 33 34 34 34 35 35 34 34 35 34 34 33 33 33 33
12 20 14 10 8 7 16 16 8 11 15 18 23 25 25 23 46 45 41 35 34 37 31 29 29 28 28 28 29 30 32 33 33 34 36 36 36 36 36 35 34 33 33 32 32 32 32 34 35
16 23 7 5 6 5 6 13 17 8 5 7 9 23 23 27 33 48 48 42 37 31 28 26 27 28 28 29 31 33 35 36 37 36 36 37 37 36 35 34 33 33 33 33 33 33 33 34 35
22 19 5 6 5 5 9 7 4 6 2 5 15 13 22 26 31 45 49 44 40 37 37 30 29 30 30 31 34 36 37 37 37 37 37 36 36 35 35 34 33 33 32 32 32 32 32 32 32
21 14 5 5 3 2 4 5 8 14 2 6 11 16 16 18 23 32 35 46 42 40 37 35 35 36 37 36 36 36 36 35 34 34 34 34 34 33 32 32 32 32 32 32 32 31 30 29 28
15 15 6 3 4 4 3 5 6 10 8 6 4 10 17 24 22 24 27 39 44 42 41 43 40 38 37 37 36 34 33 31 30 30 31 31 31 31 31 31 31 32 31 31 30 29 28 28 27
16 14 11 5 3 1 1 3 8 14 7 7 5 9 5 11 26 20 26 28 37 40 40 38 37 36 36 35 34 33 30 29 29 29 29 29 30 31 31 30 30 30 30 29 28 28 27 26 25
21 14 18 11 6 5 2 6 8 13 8 6 3 5 11 12 9 21 19 21 28 29 31 33 33 33 33 30 28 28 28 28 29 29 29 29 30 30 30 30 30 29 28 27 27 26 25 25 24

GFSSGP_700_spd_075.txt.gz
Wind_Speed
26 24 22 19 14 15 21 17 13 20 13 16 18 15 16 10 16 5 16 16 13 12 14 16 20 21 21 19 17 16 15 15 15 16 16 16 15 16 15 15 14 12 11 10 10 11 11 12 12
28 24 22 15 15 24 23 20 16 17 16 18 21 16 18 11 18 7 21 18 15 13 15 16 19 20 21 21 20 17 16 16 16 16 16 16 16 16 16 16 14 13 13 13 13 14 14 15 14
27 26 16 13 20 30 25 20 13 19 31 16 11 18 11 13 18 15 23 19 16 15 15 16 16 17 19 20 21 20 17 16 16 16 16 16 16 16 16 16 15 15 15 15 15 15 13 13 12
28 26 19 22 24 30 18 17 18 15 28 23 11 8 16 17 21 20 25 21 19 18 16 15 14 15 16 17 17 18 20 18 17 16 15 15 14 15 14 14 13 13 13 13 14 13 13 12 12
32 21 23 25 24 26 15 15 22 9 22 27 13 11 16 18 22 21 28 24 22 21 19 16 14 13 13 13 13 13 15 16 18 17 15 15 14 14 14 13 13 13 14 14 14 14 13 12 13
32 24 26 30 28 21 16 16 20 11 18 27 23 7 19 19 23 24 32 28 25 22 22 19 16 14 12 11 11 10 10 12 13 14 16 14 13 14 14 14 14 14 14 14 14 13 13 13 13
37 28 29 32 29 20 15 19 19 12 11 21 31 14 15 19 22 29 37 33 29 23 23 21 17 16 14 11 10 8 6 7 8 9 10 12 12 11 10 10 9 9 9 10 9 9 8 8 8
42 28 31 32 30 19 21 22 25 21 14 20 30 26 21 17 21 31 40 36 32 27 24 21 19 17 15 12 10 9 6 4 4 3 4 5 5 5 4 4 4 4 3 3 2 2 3 5 6
43 26 33 28 24 20 25 21 23 19 18 22 27 31 32 20 20 28 34 37 35 30 27 24 21 19 18 16 13 11 10 8 6 6 4 4 4 4 3 3 3 3 3 3 4 6 6 7 9
45 30 32 28 24 15 26 16 25 17 13 19 24 26 33 31 23 25 32 34 35 31 29 26 24 22 21 18 17 15 14 12 10 10 9 9 9 9 9 10 10 10 9 9 9 10 10 11 12
43 50 31 29 26 22 23 27 25 16 8 15 23 27 26 31 38 26 26 29 31 30 29 29 27 25 24 22 20 19 17 16 14 13 13 13 13 13 14 14 14 14 14 14 14 13 14 14 15
31 43 35 28 24 21 21 26 26 17 11 18 18 24 27 26 30 34 31 26 27 29 29 29 28 28 26 25 23 21 20 18 17 16 16 16 16 16 17 17 16 17 17 17 16 16 17 17 17
37 24 36 29 18 20 19 28 29 36 20 18 17 22 23 29 30 28 27 25 23 24 25 27 28 29 28 26 25 23 21 20 19 18 17 17 17 17 17 17 18 18 18 18 18 18 19 20 20
27 23 25 39 34 25 23 21 20 27 20 16 17 21 22 26 27 27 27 25 26 24 23 24 25 27 28 27 26 25 23 21 20 18 17 17 17 17 17 17 18 19 19 20 20 20 21 21 21
15 30 18 25 37 20 21 22 31 32 24 18 14 12 20 27 28 30 30 29 27 25 24 23 24 25 26 26 26 24 23 21 19 18 17 16 16 16 17 18 18 19 19 20 21 21 22 22 23
22 26 23 25 22 20 23 27 27 28 34 26 17 8 13 25 27 31 31 30 29 27 25 25 26 25 25 25 24 23 22 19 18 17 17 17 18 19 20 21 22 22 21 21 22 23 23 24 25
22 23 24 22 26 21 22 17 21 26 41 30 24 13 12 23 28 30 30 29 30 28 27 26 25 23 22 23 22 21 20 19 18 19 19 20 21 22 24 24 25 26 26 26 26 26 27 27 28
24 20 24 21 22 24 19 18 17 21 28 45 29 23 16 20 26 31 30 30 29 30 29 27 24 23 22 22 21 20 19 19 20 22 23 24 25 26 27 27 27 28 29 29 30 29 29 29 30
23 24 23 26 13 20 22 20 19 18 22 27 44 31 22 20 27 31 30 30 31 30 30 29 26 25 24 23 22 21 21 22 23 25 26 26 26 27 28 28 29 30 31 31 31 31 32 33 34
21 24 18 16 10 16 19 20 21 23 25 30 20 42 35 26 24 34 32 32 31 32 33 32 31 29 28 26 24 22 22 22 23 25 26 28 28 29 29 30 31 33 34 33 34 35 35 36 35
20 26 19 15 14 17 13 20 23 24 23 24 27 29 46 36 30 27 35 33 34 32 33 32 31 29 27 26 24 23 24 25 26 28 29 29 30 31 31 31 32 33 34 33 34 35 36 38 36
17 20 18 14 16 11 17 8 19 21 25 25 25 27 33 37 34 28 37 37 35 34 33 33 32 31 29 27 26 26 27 28 30 30 31 31 32 32 32 32 33 34 35 36 37 36 37 38 37
18 16 14 12 14 8 9 9 19 10 21 23 23 25 24 37 45 42 37 39 37 37 35 36 34 34 32 30 29 29 30 30 31 32 32 33 32 33 33 34 35 36 36 36 35 34 34 34 34
13 19 10 9 10 11 18 15 14 15 14 16 19 19 25 27 34 41 49 40 43 41 39 38 38 36 33 32 32 33 33 31 31 32 34 34 35 35 36 37 37 37 36 34 33 33 33 33 33
19 22 8 6 5 6 3 15 18 3 7 6 9 16 20 24 29 31 43 48 50 45 43 40 41 39 35 34 32 31 31 30 32 34 36 37 38 38 37 38 37 36 35 34 33 33 33 33 33
19 24 6 5 7 11 6 7 10 12 17 19 14 16 16 26 23 28 28 43 48 48 40 34 34 36 38 36 31 31 31 32 34 36 38 39 39 39 38 37 36 35 34 33 32 32 32 31 32
18 13 4 1 5 1 8 7 13 9 9 8 11 13 12 16 25 28 31 33 50 49 46 39 36 37 35 31 31 32 33 34 36 36 37 38 38 37 36 35 35 33 33 32 32 32 32 31 30
13 12 5 1 4 5 5 7 4 8 6 3 2 6 11 16 19 21 28 33 33 50 49 43 42 40 40 41 38 35 36 38 38 38 36 35 35 34 34 33 33 32 32 32 32 31 30 29 28
14 10 8 3 2 3 2 5 8 10 8 5 2 0 5 11 18 24 26 29 30 36 48 53 45 45 44 42 40 38 37 39 39 38 36 34 33 33 33 33 33 32 32 32 31 30 29 28 27
20 16 16 12 6 8 5 3 1 11 14 8 4 4 4 4 7 15 26 23 27 29 31 44 49 46 44 39 38 39 38 37 35 33 32 32 32 32 32 33 33 32 32 31 30 29 28 27 26

GFSSGP_700_spd_078.txt.gz
Wind_Speed
26 22 21 19 15 14 16 17 18 20 8 28 16 8 9 21 17 11 17 13 11 11 13 14 16 17 16 16 16 15 15 15 16 16 16 16 16 15 14 13 12 12 11 11 12 12 13 14 14
27 25 21 20 15 19 22 20 14 24 17 14 20 11 11 15 9 11 20 18 14 12 15 16 19 19 19 18 16 16 15 16 16 17 17 18 18 17 16 15 15 14 14 14 14 14 14 14 13
27 24 19 18 22 23 24 18 21 24 24 14 13 18 11 16 9 12 23 20 16 17 17 17 18 20 21 20 19 17 16 16 17 17 17 18 18 18 17 16 17 16 16 15 14 13 12 13 12
28 24 22 20 22 32 23 20 19 25 30 19 12 9 11 15 15 25 25 22 18 19 17 17 18 19 20 19 20 20 18 16 16 16 16 16 16 15 15 14 14 14 13 13 12 11 12 12 13
31 25 25 19 26 19 23 20 21 14 23 32 23 16 13 13 15 29 28 24 21 20 19 18 17 18 18 18 18 19 19 19 17 15 15 14 14 15 15 14 14 13 13 13 13 13 14 14 14
32 28 21 26 24 20 19 20 27 13 15 26 39 19 14 11 22 28 31 29 25 23 21 18 18 17 16 16 15 15 15 16 17 17 15 14 14 15 15 15 14 14 14 13 13 13 13 12 12
38 33 28 31 23 23 20 21 22 15 23 21 27 28 23 5 16 31 32 30 26 25 22 20 17 18 16 15 13 12 11 12 12 13 14 14 14 13 12 11 10 10 10 9 9 9 9 9 9
40 36 29 27 30 23 19 23 25 20 23 26 21 23 33 9 17 27 28 27 29 27 25 22 19 16 16 14 12 10 8 8 8 8 8 8 8 7 7 7 6 5 4 3 4 5 6 7 8
40 30 34 30 29 26 27 23 24 21 23 24 28 26 27 24 8 19 33 27 33 30 28 25 22 19 16 15 13 10 9 6 4 4 3 2 2 1 1 1 2 3 4 4 5 7 8 9 10
44 34 39 33 19 24 23 21 23 24 20 23 23 30 18 33 19 10 28 37 33 31 30 27 24 21 19 16 14 13 11 9 7 6 5 5 4 4 6 6 8 8 9 9 10 11 11 12 12
43 44 28 27 25 26 18 25 23 15 16 27 27 25 26 28 39 17 17 26 32 26 30 28 26 23 20 18 17 15 13 12 11 9 9 9 9 9 9 11 12 12 13 13 14 14 14 14 15
26 49 36 23 20 22 25 27 25 22 25 22 28 22 23 26 31 35 23 22 30 24 29 29 28 25 23 20 20 18 17 15 14 13 12 12 12 12 13 13 13 14 15 16 15 16 16 16 17
40 32 44 30 14 33 17 16 25 24 20 21 23 22 21 23 26 35 34 26 22 27 27 29 30 28 26 23 22 21 20 18 17 16 15 14 14 13 14 14 14 15 15 16 16 17 18 18 18
30 38 29 48 22 17 20 19 24 27 24 27 22 19 21 20 27 29 33 33 33 25 27 27 25 27 26 26 25 24 21 20 20 18 17 15 13 13 13 14 14 15 15 16 17 18 18 19 20
18 18 35 26 36 27 26 23 31 28 27 27 26 15 18 21 27 26 28 28 30 30 32 26 25 23 25 26 25 25 24 23 21 20 17 15 13 12 13 14 15 17 17 18 18 19 20 20 22
27 20 25 26 28 34 30 25 24 22 23 26 29 14 12 18 24 29 28 27 28 26 26 24 22 22 23 24 24 25 25 23 21 19 17 15 14 14 15 17 18 20 20 21 22 22 23 24 24
27 18 29 20 19 17 31 17 25 21 27 29 28 22 14 15 22 29 28 28 27 25 25 23 25 25 25 24 24 25 24 22 19 18 16 15 16 17 19 20 22 22 23 23 24 25 26 27 27
25 20 22 20 22 18 28 16 13 16 28 27 33 34 19 12 20 25 30 29 29 28 26 25 23 23 23 22 22 23 22 18 18 17 17 18 20 22 22 23 23 24 24 25 26 28 28 29 29
18 24 22 19 20 20 21 18 14 19 24 26 25 39 36 22 14 25 28 30 29 30 30 27 25 23 23 22 22 20 20 19 19 18 19 21 23 23 23 23 24 25 26 27 29 29 30 31 32
18 23 19 17 20 21 19 22 20 22 19 18 21 35 38 26 19 23 29 30 31 31 31 29 29 28 25 24 23 22 22 22 22 21 21 23 23 24 24 26 27 28 29 30 30 31 32 33 32
19 17 20 19 13 18 13 15 19 20 22 21 22 21 20 39 27 23 30 31 31 32 32 31 31 31 30 28 27 25 24 23 23 24 22 22 25 26 27 28 29 30 31 31 32 33 34 36 34
14 21 28 14 15 10 19 3 22 29 29 24 24 23 28 22 37 29 31 32 33 32 33 32 32 32 32 30 28 26 25 25 25 25 25 26 27 28 29 30 31 32 32 33 35 35 36 36 35
10 10 22 16 12 1 14 7 9 9 22 20 20 26 23 30 30 39 40 36 35 35 35 34 34 32 31 31 30 28 28 28 29 30 30 30 31 31 32 32 33 34 35 36 36 36 34 33 33
11 17 14 11 9 3 10 10 7 13 11 10 12 18 19 23 29 35 38 41 41 38 38 35 36 35 33 33 32 31 31 30 31 32 33 32 32 32 33 34 35 36 36 36 35 35 34 33 33
15 19 6 2 2 3 6 12 15 4 3 8 13 16 18 20 21 30 41 49 48 44 37 38 37 37 36 36 34 33 33 32 32 31 32 32 33 34 34 36 37 37 37 36 35 34 34 33 33
19 17 5 4 3 4 4 4 13 13 18 17 16 14 18 25 23 22 28 37 40 42 48 43 40 40 39 38 36 34 35 33 31 31 32 33 34 34 35 35 37 37 37 36 35 34 33 32 31
15 21 4 4 4 5 7 7 8 12 12 14 14 14 13 17 26 28 30 31 38 31 34 43 42 41 39 36 38 45 37 38 41 37 33 35 37 37 37 36 36 36 35 34 33 33 33 32 31
13 13 3 2 1 1 7 8 5 9 10 11 10 11 12 13 14 19 29 31 30 29 25 37 42 42 36 34 35 38 32 35 34 34 35 37 38 39 40 38 36 34 34 34 33 33 32 32 31
11 15 5 4 2 0 2 1 15 13 10 8 6 4 3 6 11 16 19 22 25 27 27 29 41 47 46 42 39 38 38 39 41 41 42 41 41 39 38 37 36 35 34 34 34 32 32 32 31
17 13 13 5 3 3 2 2 9 8 9 9 7 6 7 7 5 7 12 15 25 25 23 25 27 35 44 46 50 44 38 43 42 40 39 37 36 34 34 34 34 35 34 34 33 33 33 31 30

GFSSGP_700_spd_081.txt.gz
Wind_Speed
26 23 26 24 17 30 20 22 15 14 20 21 18 8 16 23 17 10 15 14 13 12 12 13 13 14 14 15 15 15 15 15 14 15 16 16 16 16 15 13 12 12 13 13 14 14 14 13 13
26 24 25 23 17 25 35 21 25 25 11 17 19 9 17 22 9 15 20 18 16 14 15 16 17 17 17 17 17 17 16 16 16 16 16 16 17 16 16 15 15 15 15 15 15 13 12 11 12
28 28 27 23 24 29 28 33 17 20 7 17 31 11 12 17 14 21 23 21 19 19 18 19 19 19 19 18 18 17 17 16 17 16 16 16 17 17 17 17 16 15 15 13 12 11 12 12 13
29 30 29 25 30 35 26 22 23 24 23 5 24 20 7 22 18 28 27 25 23 22 21 20 20 21 21 21 20 18 17 17 17 17 16 16 16 16 16 15 14 14 14 13 12 13 14 14 15
32 32 29 28 35 25 21 10 25 23 27 20 6 26 14 22 27 23 32 28 24 24 22 20 20 21 21 21 22 21 19 18 17 17 16 16 15 15 16 16 15 15 14 14 15 15 15 15 15
37 32 28 32 34 21 19 22 22 18 24 32 33 23 19 21 31 18 31 34 29 24 23 22 20 20 20 21 20 20 20 20 19 18 17 16 16 15 15 15 15 14 14 14 13 13 12 12 12
42 34 27 39 28 27 20 27 24 29 21 30 31 27 23 14 28 22 29 36 33 29 25 22 20 20 19 20 19 18 18 18 17 18 17 16 17 15 14 14 13 12 11 11 10 10 10 10 10
39 37 29 29 24 28 22 26 26 32 25 30 34 38 34 29 12 28 30 31 36 33 28 25 20 19 18 17 16 15 14 14 14 14 13 12 12 11 11 10 9 8 7 6 6 7 8 9 10
37 31 37 28 33 17 23 26 33 31 28 29 33 35 33 30 25 28 35 31 34 34 31 28 23 20 18 16 14 12 11 10 9 9 8 7 7 6 5 4 3 3 4 6 7 8 9 10 11
41 38 42 34 31 28 29 26 27 28 28 28 27 31 31 28 29 32 31 33 29 34 33 30 27 23 19 17 15 13 11 9 7 5 5 3 2 1 1 3 4 5 6 8 9 10 11 12 13
40 36 30 36 33 21 29 24 23 27 29 29 29 30 31 31 27 26 25 22 28 26 31 31 28 25 22 20 17 15 12 10 9 7 5 4 3 4 4 6 7 8 9 10 11 12 12 13 13
37 38 32 26 26 27 25 28 25 27 28 28 27 26 28 25 22 23 35 30 24 25 22 30 30 27 24 22 20 18 15 13 12 11 9 7 7 7 6 7 8 9 10 11 12 13 13 14 15
36 38 34 25 27 31 24 32 23 21 22 24 23 23 26 27 24 29 31 25 17 22 17 24 29 27 24 23 22 21 19 17 15 14 13 12 10 9 8 8 8 8 9 10 10 12 13 13 14
39 35 27 34 18 34 32 29 27 21 21 23 20 18 23 25 27 29 31 33 30 25 25 22 23 26 26 24 24 23 22 20 18 17 16 14 13 10 9 9 9 9 10 11 12 13 14 15 16
18 27 27 35 39 23 29 33 24 22 21 15 17 17 18 24 26 24 28 28 26 25 32 24 24 22 21 25 24 24 23 22 20 18 18 16 14 11 10 10 11 11 12 14 14 16 17 18 19
24 17 34 32 18 36 21 23 28 22 21 21 20 23 21 24 25 24 25 28 28 26 29 24 24 28 25 25 24 25 25 24 22 19 19 18 15 12 12 12 13 14 15 16 17 18 19 20 21
25 22 25 21 29 15 29 23 29 21 18 21 20 26 28 26 25 24 26 27 29 24 22 27 28 27 26 25 22 21 23 24 22 20 18 17 15 15 14 15 16 18 18 18 19 20 22 23 24
25 26 22 19 24 15 5 19 23 20 27 24 23 21 26 30 27 26 25 26 26 23 23 27 23 24 24 25 24 24 25 24 23 20 19 18 18 18 17 18 19 19 19 20 22 23 25 26 27
14 25 19 18 15 22 13 13 16 16 23 26 27 28 23 23 27 29 27 25 27 31 33 31 24 24 24 24 24 24 25 22 21 19 17 19 20 19 19 19 19 20 21 23 25 26 27 28 29
15 22 12 17 14 18 18 13 22 13 21 23 26 25 32 31 28 31 32 26 26 28 27 27 28 26 24 22 20 19 20 21 20 19 21 18 19 19 20 21 22 23 24 26 27 28 30 30 30
17 21 20 20 18 18 19 15 17 18 20 23 23 20 27 34 36 32 31 32 25 27 29 28 28 28 29 26 24 24 23 21 21 21 21 20 21 21 23 24 25 26 27 28 30 31 32 33 32
12 23 18 15 20 10 15 1 13 20 23 23 24 23 23 23 38 28 30 34 32 28 28 28 29 29 29 28 28 25 26 26 25 24 21 22 23 25 25 26 28 29 30 31 31 33 34 36 35
13 16 16 14 12 10 15 6 15 12 27 24 14 19 23 29 26 40 38 36 33 33 31 30 30 31 29 29 29 29 28 28 26 25 25 25 25 26 28 29 30 31 31 32 34 35 35 36 36
12 16 18 17 12 1 12 14 5 10 10 10 11 14 17 24 30 29 37 40 40 39 34 33 32 30 30 30 29 29 28 27 27 27 27 28 29 30 30 30 31 33 34 35 36 36 36 36 36
9 21 4 2 2 4 13 12 3 13 6 11 9 6 11 17 19 26 29 28 38 40 38 37 32 30 33 33 31 32 31 30 29 30 30 31 30 29 29 31 32 34 35 35 36 37 36 36 35
16 5 5 4 3 3 9 10 8 15 11 11 10 7 15 18 20 21 20 25 32 34 36 39 39 36 33 34 35 33 32 32 31 29 27 26 26 28 31 33 34 34 35 35 35 36 36 36 35
14 10 2 3 3 5 7 7 9 14 11 13 15 17 17 19 25 24 25 25 25 30 36 38 40 40 40 35 36 35 35 37 34 31 33 39 39 34 34 35 36 38 39 38 37 35 34 35 34
11 12 6 1 1 3 6 4 5 17 14 13 12 12 11 15 19 25 26 28 29 28 26 29 31 30 38 40 36 37 32 31 34 33 30 34 33 34 38 44 46 42 39 39 38 35 34 35 34
12 13 5 3 1 3 2 3 11 10 9 9 8 7 7 7 8 11 15 18 21 25 26 26 27 27 31 39 39 34 31 33 32 34 37 35 37 36 40 40 39 37 36 35 35 34 34 33 33
11 14 8 4 3 2 2 2 11 5 2 3 4 6 7 5 4 4 5 9 12 17 23 25 25 25 27 32 38 40 43 43 44 42 43 37 36 37 35 33 34 35 35 35 35 34 33 32 33

GFSSGP_700_spd_084.txt.gz
Wind_Speed
28 28 30 30 21 36 24 25 19 10 29 33 9 10 21 17 24 10 13 16 13 13 13 14 13 13 14 13 14 15 15 15 15 15 15 15 16 15 12 10 11 13 13 13 13 14 13 13 13
29 28 30 30 21 30 44 26 23 8 25 37 16 6 16 22 25 12 19 19 16 14 15 16 16 15 16 16 16 16 16 16 16 16 16 16 16 15 14 14 14 14 14 13 12 12 13 14 15
30 32 32 29 32 34 42 48 24 17 5 28 28 15 14 22 21 20 23 21 20 18 18 18 18 18 18 17 17 17 17 17 17 16 17 16 16 16 15 15 15 14 13 12 13 14 15 15 16
33 34 33 27 38 42 37 35 39 20 18 12 18 23 11 27 20 30 25 22 21 21 21 22 21 20 19 19 18 18 18 18 18 17 18 17 17 16 15 15 14 14 14 14 14 15 16 17 17
35 36 35 29 42 44 31 21 33 27 26 18 9 22 17 25 24 31 28 26 25 25 24 24 24 23 22 21 20 19 19 19 19 17 17 17 17 17 16 15 15 15 15 15 15 15 15 15 15
37 37 24 36 41 39 33 22 27 25 28 28 21 25 27 23 23 28 32 29 29 27 27 25 25 25 25 24 23 22 20 20 20 19 18 17 17 17 17 16 15 15 15 14 14 14 14 13 13
41 40 25 42 40 33 31 27 27 40 26 29 33 25 41 17 23 31 31 32 32 31 30 27 25 25 25 24 24 23 22 21 21 20 19 18 17 16 15 15 14 14 13 12 11 10 10 10 11
43 43 33 36 34 35 29 29 35 33 25 34 33 36 37 29 19 26 30 28 32 33 31 29 26 25 24 23 23 22 21 20 19 19 18 16 16 15 14 12 11 9 7 6 6 7 7 9 10
37 35 38 28 35 32 30 27 35 33 33 30 37 36 27 21 23 21 42 27 28 34 33 30 28 26 24 22 21 20 19 18 16 15 15 13 12 11 9 7 6 4 3 4 5 6 8 9 10
37 42 41 30 35 31 28 30 35 36 34 35 33 36 32 31 29 27 36 32 33 35 36 33 29 26 24 22 20 18 16 15 13 12 10 9 7 6 5 2 1 2 3 5 6 7 8 9 11
28 44 40 34 31 33 33 24 36 39 38 36 33 33 34 28 27 26 22 27 41 36 35 35 33 30 26 23 21 19 16 14 12 9 8 7 5 3 1 1 2 5 5 6 7 8 9 10 11
23 39 43 30 32 36 31 27 27 35 34 32 30 25 29 27 26 24 28 28 30 22 28 30 34 32 29 26 22 20 17 14 13 10 8 7 6 5 5 4 5 5 6 7 8 8 9 11 12
35 33 36 38 30 34 30 33 25 29 30 30 30 29 28 24 24 24 26 22 30 30 31 25 30 33 31 27 24 21 19 17 15 13 11 10 10 9 8 7 6 5 6 6 7 8 9 10 11
39 33 35 33 26 34 30 32 32 24 25 25 25 28 28 29 28 27 32 31 25 35 21 22 22 26 30 28 26 24 21 20 18 16 14 13 12 11 10 9 7 7 7 7 8 10 11 12 13
12 30 28 41 16 26 31 34 26 25 24 22 23 23 25 28 29 28 27 29 24 19 23 16 18 17 22 25 24 25 24 22 21 19 19 17 15 12 11 10 9 9 9 10 11 11 12 14 15
21 21 26 20 36 28 24 28 30 26 24 21 22 22 19 22 22 24 23 25 27 24 15 16 20 21 18 16 18 19 25 23 23 21 21 19 16 14 14 12 12 12 12 13 14 14 16 17 18
30 13 25 11 23 14 20 28 29 30 29 19 19 19 19 17 19 24 26 25 24 22 20 19 17 31 21 19 21 23 24 26 23 22 21 20 18 17 16 15 14 14 15 15 16 17 18 20 21
23 20 17 21 24 33 13 22 26 28 28 21 18 20 20 20 20 20 23 24 23 26 25 24 18 16 22 19 25 22 22 24 23 23 23 20 20 20 18 16 16 16 17 17 18 20 22 24 25
20 21 25 22 16 23 25 12 25 29 28 19 22 21 22 21 21 21 23 24 24 25 25 23 17 13 16 20 26 23 28 27 25 23 21 21 23 20 17 17 18 18 18 20 21 23 25 25 27
22 23 17 14 25 13 15 7 6 20 13 17 27 28 24 23 22 21 21 24 25 25 26 23 21 22 19 20 18 20 23 23 22 20 18 18 19 18 17 19 19 19 21 23 24 26 27 28 28
19 22 21 19 14 14 11 19 16 19 11 20 28 30 26 30 26 25 25 22 25 28 27 26 25 26 26 23 20 24 25 21 21 21 20 20 21 20 19 22 21 23 24 25 27 28 30 30 29
17 21 16 19 23 9 15 3 22 23 24 24 26 26 26 24 30 33 32 28 24 24 26 27 25 25 25 27 29 29 29 26 27 21 25 25 24 24 23 25 24 24 26 28 29 31 32 33 33
15 20 20 18 16 11 13 6 5 17 26 24 27 23 23 23 26 30 36 33 30 25 25 25 25 26 25 29 29 29 28 27 27 25 27 26 24 22 22 24 26 28 29 29 31 32 34 35 35
9 20 16 12 9 1 15 14 12 14 17 13 16 17 21 23 25 25 32 33 29 29 27 25 24 26 26 26 28 27 29 31 29 27 26 25 24 23 24 26 29 28 28 30 31 33 33 35 35
17 22 4 3 2 3 14 14 7 14 12 13 9 11 14 16 22 29 27 29 37 37 36 33 30 28 25 26 28 28 31 30 28 28 26 24 24 26 29 29 26 26 29 33 34 35 36 35 35
21 14 6 4 4 3 14 8 2 11 7 9 9 9 13 12 18 24 25 26 29 28 32 32 30 31 33 29 24 26 26 27 28 29 29 28 27 26 26 27 32 32 32 32 34 36 38 38 37
18 9 4 5 4 3 8 7 6 12 11 11 12 12 10 10 13 17 20 21 21 20 24 23 27 29 30 31 32 31 31 31 30 30 29 29 27 27 31 31 29 32 36 35 38 41 40 39 38
7 11 3 1 3 3 2 4 9 17 16 13 11 12 13 16 18 18 18 18 19 19 21 25 29 34 37 35 34 34 33 34 29 34 34 32 35 31 30 34 41 36 36 37 37 36 35 36 36
9 10 2 3 2 3 2 3 9 12 12 10 10 11 11 12 12 14 15 17 18 19 22 26 27 26 25 28 26 31 34 40 41 35 37 36 40 43 44 45 39 31 34 38 33 34 35 35 35
8 11 10 3 2 1 1 2 7 10 5 4 6 7 6 6 5 4 3 3 5 10 16 21 24 25 25 26 28 28 33 33 32 30 29 31 35 39 31 29 34 35 36 36 36 36 36 35 35

GFSSGP_700_spd_087.txt.gz
Wind_Speed
32 30 32 31 25 25 39 34 13 12 35 31 14 11 12 21 21 14 11 19 16 13 12 14 13 12 11 11 12 13 12 13 14 15 18 18 17 15 12 7 9 11 11 12 13 12 12 13 14
33 31 33 31 22 28 39 41 29 20 28 34 16 13 13 17 21 20 15 20 17 15 15 15 15 14 14 14 14 15 14 15 15 16 16 16 15 12 11 12 12 13 13 12 12 13 14 15 16
33 33 34 29 32 33 47 46 26 18 14 37 34 17 12 19 22 21 19 22 21 18 16 16 16 16 16 16 16 16 16 16 17 17 17 16 15 14 14 14 14 13 13 13 14 15 16 17 18
33 36 34 31 34 45 42 45 35 31 10 24 43 21 16 16 24 26 23 22 22 19 18 18 18 18 18 18 18 17 18 17 18 18 18 17 17 16 16 15 14 14 15 16 16 16 17 16 16
34 38 37 28 41 48 37 34 36 30 19 12 30 37 14 18 23 24 26 24 22 21 20 20 20 20 20 20 20 19 19 19 18 18 18 18 17 17 16 15 16 16 16 16 15 15 15 15 15
41 39 21 30 49 46 41 22 27 42 28 19 15 31 32 19 24 30 29 26 25 23 23 23 22 22 21 21 21 21 20 20 19 19 18 18 18 17 17 16 16 16 15 14 14 13 13 12 12
41 36 36 36 48 48 39 33 23 39 36 33 24 20 24 28 26 27 31 29 27 26 25 25 25 24 24 23 22 22 21 21 21 21 20 19 18 17 17 16 15 14 13 12 11 10 10 9 9
41 45 42 38 49 49 41 36 27 33 45 35 37 39 35 33 26 21 25 31 28 28 27 27 27 26 25 25 24 23 23 22 22 22 21 20 18 17 16 14 13 10 8 7 6 6 7 7 8
42 40 29 49 46 45 39 35 33 29 35 41 35 35 32 30 29 16 18 25 29 29 28 28 28 27 27 26 25 24 23 22 21 21 20 18 16 15 13 11 8 6 4 2 3 4 6 7 8
37 39 46 35 41 43 38 33 36 34 31 37 35 34 27 29 31 24 18 18 23 27 29 29 29 28 27 26 25 23 21 20 18 17 15 14 12 10 8 6 4 2 1 1 3 5 6 8 9
41 42 56 29 27 40 34 36 31 39 37 37 32 33 36 30 27 20 21 22 33 22 25 28 29 29 29 28 25 23 21 18 16 14 13 11 9 7 5 4 3 3 4 4 5 6 7 8 9
37 34 46 33 27 39 35 33 31 33 39 37 31 29 27 28 24 9 20 27 39 29 30 26 26 28 28 27 27 24 22 18 15 13 12 11 9 8 6 5 5 5 5 6 6 6 7 8 10
31 26 45 33 32 35 37 34 33 32 37 37 32 29 27 24 20 17 24 33 23 32 31 29 29 28 27 28 28 26 24 21 19 16 14 12 11 10 8 8 7 6 6 6 6 7 8 9 10
19 25 27 29 35 32 31 37 32 31 29 30 32 30 26 21 20 21 25 31 27 23 23 35 31 30 26 27 28 28 26 23 21 19 17 16 14 13 12 12 10 8 6 6 7 8 9 10 11
9 31 35 29 34 23 30 30 32 30 25 24 24 26 27 26 24 20 22 25 26 22 19 16 25 27 28 27 27 28 27 25 23 20 19 18 17 16 15 14 12 10 8 8 9 10 11 12 13
21 19 32 30 27 25 27 27 30 28 26 25 21 21 25 25 23 23 22 24 24 24 16 14 23 35 30 26 27 29 27 27 26 25 23 21 20 20 18 16 15 13 11 11 12 12 12 14 16
20 13 24 10 34 30 14 27 31 34 30 29 25 19 19 25 25 26 26 24 22 20 18 18 13 27 26 28 21 23 23 24 25 26 25 24 22 21 20 19 18 15 13 13 14 14 15 17 19
21 19 18 9 18 29 17 23 35 32 31 30 32 27 21 17 18 24 25 23 21 21 21 20 17 13 14 15 13 28 23 19 17 20 24 25 23 22 22 21 19 17 15 16 16 17 18 20 22
23 21 18 15 10 15 13 12 24 29 28 27 30 28 24 19 17 16 17 19 20 19 21 23 21 14 19 15 14 17 35 32 24 21 24 25 21 24 23 22 19 16 17 17 17 18 21 23 25
15 22 16 7 9 6 4 9 15 31 35 30 25 26 23 25 19 16 16 16 20 21 22 23 22 22 19 12 13 19 13 11 18 25 22 22 18 20 21 18 16 16 17 18 19 21 22 23 26
16 20 17 15 14 14 10 15 11 21 34 28 27 25 23 23 23 20 18 18 20 23 23 22 22 22 21 21 21 22 17 21 20 19 20 18 16 20 21 18 17 17 17 20 22 24 25 25 27
21 16 17 13 14 5 13 5 14 10 23 23 27 27 32 29 28 25 22 21 17 17 21 21 24 25 26 28 26 23 24 24 23 23 21 19 19 20 22 22 16 18 20 23 24 25 27 28 28
12 14 15 15 11 8 7 4 2 16 15 28 24 22 24 26 26 29 30 26 23 20 19 20 22 23 25 28 26 28 29 26 26 24 24 24 25 24 24 21 19 20 21 25 26 26 27 28 29
13 15 12 15 15 3 10 11 4 11 25 24 12 20 21 24 27 22 26 29 28 29 27 23 20 22 24 24 26 27 27 26 26 27 25 24 29 26 22 21 19 21 24 26 25 26 30 32 32
21 20 4 2 2 1 13 14 7 6 6 20 15 16 19 20 22 21 24 27 24 23 26 26 23 20 20 20 22 28 27 29 28 27 26 27 22 22 22 22 21 24 24 27 27 28 29 32 34
19 11 5 3 2 3 11 7 2 9 9 11 12 16 19 19 20 21 24 27 20 22 27 31 32 29 28 27 26 25 23 25 27 26 27 30 27 22 23 25 25 24 26 28 28 30 33 44 38
16 7 4 7 5 2 5 4 5 5 8 9 9 6 10 6 7 10 13 18 22 21 21 23 22 22 25 27 28 28 25 23 25 24 27 29 25 24 26 26 26 30 33 33 36 42 50 35 40
10 11 3 3 3 2 1 3 4 8 9 7 6 7 7 8 8 9 10 13 17 18 19 18 21 22 23 25 26 27 28 30 30 30 31 29 29 29 30 30 32 32 37 47 46 37 35 39 36
12 6 2 2 2 3 2 3 3 6 7 4 6 6 7 8 8 7 8 8 11 12 14 15 18 21 24 26 28 28 28 28 30 32 30 28 31 37 41 41 43 28 29 28 29 32 35 36 36
10 11 6 2 3 3 2 2 5 8 9 6 6 7 4 5 6 5 3 3 6 8 12 14 16 19 22 26 28 29 29 28 28 29 33 36 36 32 29 35 26 33 32 32 33 33 34 36 36

GFSSGP_700_spd_090.txt.gz
Wind_Speed
34 31 33 32 26 18 32 45 21 23 44 32 12 7 12 21 16 13 10 14 18 15 14 13 11 10 11 10 10 11 12 13 15 16 16 17 17 16 13 8 10 12 12 13 11 11 13 14 16
35 32 33 34 29 23 34 49 33 21 20 35 28 10 11 19 19 21 9 16 19 16 15 14 13 11 11 12 13 13 14 16 18 19 16 17 16 12 9 12 13 14 13 13 13 14 15 16 17
36 33 35 33 29 31 37 41 41 27 18 25 35 19 14 17 24 22 15 19 20 19 16 15 13 13 13 14 15 15 16 17 18 20 19 16 12 12 14 15 15 14 14 15 16 17 17 17 17
37 35 37 31 30 43 49 35 38 35 29 30 41 21 22 17 18 24 17 23 22 20 18 17 16 16 16 17 16 16 17 18 19 19 18 17 16 16 17 16 15 15 16 17 17 17 16 16 15
37 38 38 31 29 49 51 38 29 35 33 28 27 44 21 15 14 25 22 23 23 22 20 18 18 18 18 18 18 18 19 19 20 20 20 19 19 17 16 16 16 16 16 16 16 16 15 14 13
37 42 29 35 37 42 46 33 27 37 30 26 30 36 33 22 15 23 26 24 24 22 21 20 20 21 21 20 20 20 20 20 21 21 21 20 18 18 18 17 17 16 15 15 14 13 12 11 10
39 44 41 41 37 42 50 36 27 37 39 41 26 30 41 33 19 22 25 27 26 24 22 22 22 22 22 22 21 21 22 22 21 21 20 20 20 19 18 17 16 15 14 13 11 10 8 8 7
38 41 43 43 46 48 44 42 26 24 37 40 30 25 47 41 26 22 26 27 26 23 24 24 24 24 24 23 23 21 22 22 22 22 22 20 20 19 18 16 14 12 9 8 6 5 4 4 5
34 33 38 44 41 50 38 42 44 33 26 41 40 34 19 29 24 30 27 30 27 25 24 26 25 25 25 25 24 24 22 22 22 22 21 20 19 18 16 13 11 7 5 2 1 2 3 4 5
38 35 43 46 51 41 33 37 41 41 27 40 43 41 33 26 31 22 21 20 25 27 26 27 27 27 26 26 26 25 24 24 23 22 20 19 16 14 12 9 7 4 2 1 3 4 5 6 7
35 40 39 42 44 27 33 33 39 41 34 35 45 43 35 22 23 31 12 22 16 21 27 29 30 29 27 26 26 26 25 24 21 19 17 14 12 9 7 6 5 4 4 4 5 6 7 7 8
33 41 32 46 31 36 31 35 40 42 35 33 30 34 32 24 26 23 18 25 23 18 25 24 29 31 31 30 28 26 25 23 20 18 15 13 11 10 8 6 6 5 5 5 6 6 6 7 7
31 36 41 32 30 53 29 39 42 47 38 34 30 30 27 26 23 23 15 9 28 22 27 29 27 29 30 30 29 27 26 23 22 19 17 14 12 11 10 9 8 8 7 6 5 6 6 7 8
29 27 34 32 30 48 32 41 43 43 37 37 30 30 30 27 22 24 22 18 10 21 26 33 31 28 28 28 28 27 26 26 23 22 19 18 16 14 13 12 11 11 9 7 7 7 7 8 9
20 15 22 30 25 34 34 42 40 37 34 34 33 30 28 26 24 24 21 17 17 25 21 43 20 36 29 27 26 27 26 27 26 23 23 21 20 19 17 16 15 14 12 10 9 9 9 10 11
21 11 22 21 37 21 32 33 38 37 29 29 32 33 29 30 29 26 21 21 30 37 17 13 13 17 43 31 27 24 26 28 27 26 26 24 23 21 20 19 19 18 15 13 12 12 12 12 13
23 8 13 20 41 23 22 26 35 33 31 27 30 32 32 32 31 27 25 26 29 24 19 17 8 10 13 39 32 24 24 28 28 29 28 26 25 25 24 23 23 21 19 15 14 14 13 13 14
18 10 10 12 25 25 22 18 28 31 32 28 25 28 29 29 24 22 23 23 26 18 17 18 13 8 3 41 41 36 27 27 29 27 26 24 27 27 27 26 25 24 20 17 16 15 14 15 16
17 16 9 12 12 15 18 12 25 32 33 31 26 23 23 25 25 25 24 22 20 18 22 23 18 15 11 12 13 20 5 14 31 26 19 25 23 26 28 27 27 25 21 19 17 15 15 16 17
16 14 13 4 10 4 11 22 5 29 31 31 29 27 24 22 18 16 16 21 21 21 23 20 19 21 18 16 10 13 11 12 11 36 30 22 24 20 21 26 27 22 19 18 16 15 16 17 19
10 15 14 12 3 8 9 3 9 10 30 32 32 27 26 24 21 18 17 19 22 25 24 22 22 23 22 21 20 23 20 18 15 18 35 22 19 23 22 27 24 23 18 17 16 15 17 19 20
13 9 10 10 7 2 4 5 5 10 9 35 29 32 28 26 23 20 19 18 18 18 20 22 23 25 26 26 30 25 21 22 18 20 23 21 21 18 19 26 30 32 25 20 17 18 19 19 20
11 14 11 12 9 5 5 2 3 12 14 40 32 31 29 27 26 24 21 21 19 19 19 21 23 25 26 26 26 26 25 25 26 26 27 23 22 22 20 22 21 26 19 21 16 19 21 20 21
14 15 16 13 10 1 7 7 3 2 8 16 30 26 25 28 31 24 23 25 25 23 21 20 20 22 23 23 23 25 27 27 26 28 23 23 25 21 24 23 27 25 14 15 21 22 23 23 24
12 16 5 4 3 2 9 6 2 9 1 14 24 17 16 19 22 23 21 22 25 26 25 26 23 20 23 23 22 22 23 24 25 27 25 24 24 24 20 21 24 26 16 25 25 25 26 26 26
12 4 2 4 3 2 9 3 4 4 5 9 18 13 13 18 17 18 23 24 23 22 22 23 28 27 27 23 20 20 19 20 21 24 26 27 27 26 25 21 24 20 23 29 29 29 29 31 34
13 5 6 7 9 4 3 1 1 7 9 12 10 8 10 13 14 14 17 19 22 20 18 18 23 28 30 30 29 29 28 26 24 21 21 23 23 25 24 24 22 26 30 32 33 34 35 39 40
11 7 3 5 2 4 3 2 4 7 7 9 8 7 9 8 6 7 9 10 12 16 17 17 18 20 23 27 29 30 30 30 29 28 28 27 25 26 22 22 27 30 34 35 38 38 34 28 29
13 5 3 6 4 3 3 1 2 7 9 6 4 4 4 4 4 5 6 10 14 16 18 19 18 18 19 22 24 26 27 28 29 30 30 30 30 29 28 27 32 34 40 28 26 29 30 31 31
11 6 3 3 3 4 2 3 1 9 9 7 5 3 4 7 7 6 4 3 6 10 14 18 20 22 22 23 25 27 28 27 27 28 29 29 28 28 30 30 32 39 27 28 28 30 31 32 30

GFSSGP_700_spd_096.txt.gz
Wind_Speed
22 23 25 27 23 24 38 37 27 28 24 29 30 30 16 17 11 14 10 21 20 15 17 17 15 14 14 13 11 11 12 14 16 18 21 22 19 16 14 11 11 12 12 10 9 10 11 12 14
21 23 26 27 32 37 36 31 31 27 22 25 32 33 26 13 21 19 12 17 23 19 20 18 16 16 15 14 13 12 12 15 18 21 23 22 18 17 14 13 14 13 11 11 11 13 14 14 15
20 24 27 27 37 47 37 32 33 29 25 25 30 37 30 19 20 24 17 14 23 23 23 19 17 17 17 16 16 16 16 18 21 23 24 22 21 18 15 16 16 13 12 13 14 15 15 14 13
23 26 31 35 42 35 40 33 27 30 27 29 29 32 47 27 17 21 24 14 23 26 25 22 20 19 18 18 19 21 22 22 22 25 26 24 22 17 19 18 16 15 15 15 15 15 14 13 12
26 27 29 37 43 37 32 34 28 30 29 29 34 35 36 52 26 16 22 21 25 28 27 24 22 21 20 21 22 24 25 25 24 24 25 22 19 20 20 18 16 16 16 16 15 14 12 10 10
29 30 29 42 39 37 37 30 37 29 24 28 32 29 35 34 49 18 16 21 25 28 27 27 25 23 23 23 24 26 28 28 26 27 23 20 22 22 20 19 19 18 17 15 14 12 10 8 6
32 25 37 39 36 38 35 36 37 35 31 27 28 33 42 42 52 24 18 22 28 30 28 29 27 27 26 26 26 28 30 30 29 26 22 23 23 22 21 21 19 18 16 14 12 10 8 6 4
30 27 35 39 37 38 32 33 37 38 36 24 27 32 36 37 45 56 30 28 34 33 31 29 28 30 30 29 29 29 30 31 29 26 25 25 23 22 21 20 19 17 15 13 11 8 6 4 2
27 31 37 36 36 32 30 32 34 36 35 29 30 30 30 25 37 53 60 39 33 38 33 31 29 32 31 30 30 31 31 30 29 28 27 25 24 24 22 20 19 16 13 11 8 6 5 3 3
33 32 37 31 29 31 28 30 34 32 36 43 26 31 32 32 29 36 58 48 21 40 38 36 35 34 34 32 32 32 32 32 32 31 29 28 27 25 23 20 18 14 11 9 7 6 5 5 5
28 38 31 31 30 27 26 28 27 26 36 39 29 27 34 38 37 33 32 37 47 42 38 35 36 36 36 35 34 33 34 33 33 32 31 29 27 25 22 19 16 13 11 9 7 7 6 6 5
27 33 32 35 31 27 29 27 27 33 33 34 33 26 33 36 37 36 31 37 36 40 36 34 36 37 37 36 35 35 35 35 34 32 31 28 27 24 21 18 15 12 10 9 8 8 7 6 6
26 27 25 30 31 30 27 27 29 32 29 38 46 28 28 32 33 32 29 32 32 29 39 31 32 35 36 37 37 35 35 35 34 33 31 29 26 23 20 17 15 12 11 10 9 9 8 7 7
13 20 26 25 26 27 29 33 25 32 31 35 48 30 26 32 33 33 34 28 34 14 28 30 28 32 33 35 35 35 36 36 36 34 33 30 27 23 20 17 16 14 13 12 11 10 9 8 8
19 21 22 26 29 24 27 30 31 30 31 29 41 28 22 34 36 29 29 23 27 26 14 35 31 28 28 31 34 35 36 36 36 34 32 29 27 25 22 20 18 17 16 15 14 13 11 11 10
17 20 21 20 26 25 26 28 26 26 32 30 38 39 30 33 31 28 18 11 14 15 28 38 30 27 25 26 28 33 35 35 34 33 30 28 26 25 24 22 20 19 18 17 17 16 15 13 12
18 18 18 14 22 22 27 17 23 23 29 33 37 37 34 31 34 34 16 18 14 19 17 23 36 30 21 21 21 28 34 34 34 32 30 28 27 26 24 23 22 22 21 20 20 20 18 17 15
9 12 5 7 18 23 24 29 18 22 17 28 33 34 33 32 37 31 30 25 23 25 16 30 34 22 20 23 18 25 32 34 33 32 31 29 28 27 26 26 25 26 25 23 23 23 23 20 17
10 10 3 3 10 16 18 24 28 28 14 27 31 35 34 35 37 40 37 33 29 29 30 28 28 27 20 22 21 31 33 34 31 28 30 29 29 29 30 29 28 29 29 27 28 27 26 22 20
5 10 7 7 13 7 7 13 15 29 28 10 29 32 36 31 31 35 46 41 36 30 34 31 25 21 28 22 23 29 35 36 29 25 29 29 30 28 31 31 30 32 33 32 31 30 27 25 24
9 14 10 15 14 12 9 10 20 34 30 13 33 33 33 27 27 27 44 48 36 35 38 18 15 20 21 25 17 27 36 40 36 30 25 29 33 35 35 35 32 31 31 34 31 31 30 27 26
10 15 12 9 3 4 4 1 6 10 14 26 35 31 34 32 29 25 23 11 21 20 24 19 16 17 21 25 22 13 24 34 39 40 39 33 38 38 37 42 39 39 32 30 32 32 29 26 24
6 14 7 4 4 4 12 5 15 7 24 27 25 28 32 26 20 14 7 13 12 11 13 14 15 15 15 18 27 25 18 32 32 34 51 58 37 30 55 51 37 29 36 32 36 37 27 34 27
11 14 12 6 4 2 8 4 16 14 6 27 27 25 28 26 21 19 18 14 11 11 17 20 20 19 22 22 23 26 26 28 17 18 20 23 26 28 28 28 42 20 28 28 12 21 20 31 47
18 16 5 3 3 3 4 5 11 10 5 22 30 24 24 23 21 21 18 14 18 20 19 18 19 21 22 20 21 20 19 22 18 17 21 22 22 19 19 18 11 17 16 14 15 18 15 15 16
17 3 3 4 4 5 2 8 11 14 8 10 30 26 27 22 22 20 18 18 15 15 16 17 18 18 17 17 16 16 15 16 15 18 17 17 16 17 16 16 17 17 13 17 18 20 19 20 21
8 2 6 12 10 8 4 8 13 20 19 18 26 25 18 17 14 10 16 18 20 20 21 18 21 25 24 23 23 20 20 18 15 15 16 17 17 17 16 17 17 17 18 19 23 20 18 19 23
7 5 2 3 4 5 6 11 9 13 16 21 18 14 11 9 8 8 9 12 16 17 18 18 18 20 26 29 29 29 30 27 26 25 25 24 24 23 22 21 18 18 19 19 20 21 21 22 24
9 5 5 6 4 4 6 7 10 16 20 20 19 18 17 14 11 8 7 7 8 9 13 18 17 17 18 21 23 25 28 31 31 31 30 28 27 26 25 24 24 22 22 21 21 22 22 23 28
15 18 10 4 5 7 10 6 15 16 16 17 16 14 12 10 8 8 7 6 6 7 8 11 15 18 19 20 21 21 24 27 29 31 31 30 28 27 27 29 28 26 24 23 23 23 24 28 27

GFSSGP_700_spd_099.txt.gz
Wind_Speed
19 22 23 19 16 23 36 37 30 25 32 29 24 21 19 20 15 17 15 19 24 25 20 15 16 15 15 14 14 14 14 15 17 18 20 21 17 16 13 11 9 10 9 7 6 7 9 11 12
18 20 24 16 27 32 34 28 33 31 24 24 25 34 29 21 26 21 21 11 20 23 19 18 17 17 16 15 15 15 15 16 18 19 22 22 18 17 14 11 12 11 9 7 8 9 11 12 13
18 20 19 19 34 44 35 25 25 27 29 21 28 25 26 25 28 37 33 17 16 24 21 20 19 18 17 16 16 16 16 18 20 22 24 23 20 17 15 14 13 12 10 10 10 11 12 12 12
19 23 22 30 33 31 37 29 20 25 26 31 25 31 37 37 31 37 37 25 14 22 23 23 21 20 19 18 16 17 18 20 22 25 25 23 21 19 15 15 14 12 11 12 12 12 12 11 10
22 23 27 30 38 34 27 24 30 27 29 34 31 34 31 30 40 36 34 27 19 20 25 24 23 22 21 20 19 20 22 24 26 25 26 24 22 19 18 17 15 13 13 13 13 12 11 10 9
22 26 30 38 39 32 31 31 27 33 30 29 36 37 37 37 32 36 36 28 20 20 27 25 25 25 24 23 23 24 25 24 25 27 26 24 22 19 20 18 16 15 15 14 13 11 9 8 7
27 25 38 39 37 32 30 28 34 33 34 34 31 34 35 36 31 39 38 21 24 27 27 28 28 27 27 26 26 26 27 26 27 26 27 25 21 22 21 18 17 17 16 14 12 10 8 6 5
27 28 39 41 38 40 31 29 31 35 37 34 32 35 30 36 32 32 33 34 34 32 30 29 30 27 30 30 30 31 29 29 26 28 27 22 23 24 21 20 19 18 16 14 12 9 7 5 3
25 30 43 39 36 36 28 32 30 32 37 37 35 35 36 30 35 41 44 55 50 36 24 33 32 31 32 33 34 35 32 29 32 28 24 24 25 23 23 22 20 19 17 14 11 8 6 5 4
27 33 43 34 31 31 31 33 32 31 36 38 37 35 24 43 42 40 33 51 73 79 25 22 37 34 35 35 35 37 37 37 34 28 26 29 27 26 25 23 22 19 16 12 10 8 7 6 6
23 38 31 30 28 31 31 30 32 35 37 36 36 37 35 35 39 39 31 36 39 53 36 13 36 37 38 37 36 37 37 36 34 30 32 30 30 28 26 24 22 19 15 13 11 9 8 8 7
30 29 29 31 30 28 30 33 31 34 35 32 33 33 42 43 38 40 34 32 37 50 44 28 40 38 39 37 35 36 37 37 35 35 35 33 31 29 27 24 21 18 15 13 11 10 9 9 8
26 26 26 28 27 29 31 33 30 36 28 31 28 35 27 40 42 35 25 28 31 56 49 28 35 37 42 35 33 36 38 37 37 38 36 34 32 30 27 24 20 18 15 13 11 10 10 9 8
17 16 22 28 29 27 30 35 34 34 33 31 31 35 34 21 33 31 26 27 24 29 29 39 38 31 38 36 34 34 37 39 38 36 35 34 32 30 28 25 22 19 16 14 12 11 10 10 9
17 21 25 28 26 30 26 33 38 31 28 30 27 36 37 28 32 26 23 23 21 21 35 47 23 37 34 35 35 32 36 36 35 35 35 33 31 29 27 25 22 19 17 15 14 13 12 12 11
15 19 21 24 28 29 28 39 34 31 28 34 25 26 31 41 31 30 23 24 28 20 22 26 24 32 30 32 33 31 30 35 36 36 35 33 32 29 26 23 21 19 18 17 16 15 15 15 14
14 19 21 26 21 24 32 29 21 26 35 20 28 25 30 40 32 28 24 17 14 27 20 23 31 33 30 25 27 30 30 32 33 34 34 33 31 28 26 24 22 21 20 20 18 18 19 19 18
10 13 20 21 12 25 25 26 20 20 28 27 27 29 25 38 32 23 27 20 17 20 20 18 28 48 34 28 26 27 29 31 33 33 33 32 31 29 27 26 25 24 23 24 21 21 22 23 22
19 18 19 16 16 22 22 23 26 17 18 25 23 31 28 38 20 24 31 23 24 25 26 18 42 45 34 32 25 21 22 26 29 32 34 33 32 31 30 28 27 26 26 28 26 26 26 26 26
15 14 16 10 7 15 15 18 17 20 25 24 13 25 36 33 28 24 31 29 26 28 26 22 50 49 31 28 25 24 21 21 24 27 30 34 34 34 31 31 31 29 31 31 28 29 30 29 28
13 15 15 9 9 6 8 9 10 14 20 28 13 25 33 29 26 23 31 29 31 33 28 29 43 37 41 27 26 28 27 25 28 30 31 32 32 31 32 34 35 33 34 30 31 32 31 32 29
16 14 9 8 6 3 4 3 8 16 24 30 27 24 29 22 28 20 16 38 34 35 35 34 30 33 34 26 23 22 27 29 34 38 34 29 28 28 28 33 34 37 35 34 38 46 41 35 32
9 4 9 8 11 5 9 5 13 7 19 19 20 26 20 22 20 19 19 13 34 35 35 31 24 20 26 20 26 14 26 36 34 35 37 40 38 35 32 35 35 39 37 40 46 50 45 34 34
5 9 9 11 14 1 7 2 10 14 15 24 22 19 24 23 15 8 6 10 10 26 18 18 13 9 12 14 17 23 24 21 28 37 35 37 39 39 45 44 44 43 40 52 38 34 18 9 16
9 13 4 4 2 3 5 3 17 13 13 22 23 20 23 18 13 17 20 13 12 14 13 11 14 13 16 16 19 19 20 25 21 20 27 39 35 36 35 41 49 23 15 17 6 19 13 17 16
7 3 6 2 1 1 6 7 11 11 11 27 26 25 20 23 23 20 21 18 14 13 10 9 8 9 9 11 13 14 14 14 14 14 13 14 19 18 20 17 18 16 11 12 15 12 14 16 20
3 5 5 2 7 6 6 5 27 18 14 22 21 26 22 20 20 18 18 14 11 9 7 7 8 11 13 14 13 14 16 15 12 11 11 12 13 13 13 14 14 15 16 18 17 16 18 18 19
5 4 4 3 1 5 6 12 11 20 24 21 24 17 17 14 8 13 10 9 7 7 11 11 13 13 17 20 21 21 20 21 21 19 19 20 20 20 21 20 18 18 17 15 19 18 18 20 21
6 5 4 2 4 2 4 6 9 13 27 28 23 21 18 17 14 11 7 6 5 7 9 12 14 14 14 13 14 18 20 21 23 24 25 25 26 25 24 23 22 20 20 18 19 21 22 23 23
12 9 4 1 5 13 16 8 8 14 19 23 22 21 19 15 12 11 9 8 6 5 4 6 8 12 13 15 17 18 20 20 21 24 25 26 26 26 25 24 24 23 23 23 22 23 24 25 24

GFSSGP_700_spd_102.txt.gz
Wind_Speed
15 17 18 20 14 15 25 29 24 22 23 25 24 26 20 21 19 19 16 14 26 31 24 16 15 14 14 14 14 14 15 16 17 18 20 20 17 15 14 11 8 8 6 5 4 5 6 7 9
15 16 20 18 19 24 30 23 25 25 21 14 23 33 29 23 21 23 22 16 15 19 25 22 17 16 15 15 15 14 15 17 18 19 20 20 19 16 13 11 10 8 6 5 5 6 8 9 11
17 18 20 15 25 32 26 21 19 16 21 20 20 24 27 29 22 30 27 24 14 15 20 23 20 17 17 16 16 15 16 18 19 20 22 22 19 17 14 11 11 9 7 6 8 9 10 11 11
19 21 25 26 26 26 37 26 25 22 20 26 27 19 29 29 34 32 25 30 26 26 20 22 22 19 19 18 17 17 17 18 20 22 24 23 20 17 15 13 12 10 9 9 9 10 11 10 10
19 23 25 24 35 29 22 18 16 28 21 23 31 30 27 28 34 38 28 34 30 32 30 22 24 22 21 20 18 18 18 20 22 24 25 25 22 19 17 15 14 11 11 11 11 11 10 9 8
20 23 22 30 32 25 25 27 26 25 27 23 29 32 26 32 36 39 34 32 27 31 38 26 22 24 23 22 20 19 19 21 24 25 24 25 23 21 17 17 15 14 13 12 12 11 10 8 7
24 24 32 29 29 28 25 23 27 29 29 28 25 32 32 32 33 41 35 34 35 27 34 29 26 26 23 23 22 20 21 21 23 25 28 25 23 20 19 18 16 16 15 14 12 10 9 7 6
21 28 37 35 31 36 27 28 27 25 32 30 28 31 32 31 28 33 39 40 37 31 36 43 30 25 24 25 25 23 26 26 27 28 28 25 22 20 21 19 18 18 16 15 13 11 8 6 5
20 31 39 33 29 34 29 30 34 32 30 31 34 35 28 34 35 38 31 38 39 38 39 39 30 29 25 27 28 26 28 31 30 29 26 27 24 23 23 21 20 19 17 15 12 10 7 5 4
24 35 36 31 26 29 27 28 29 29 33 30 34 34 31 37 40 32 32 36 42 42 43 39 34 33 26 27 31 29 31 33 31 29 26 27 24 26 24 23 22 20 18 15 12 9 7 6 5
22 35 29 29 24 24 29 35 29 29 36 34 28 31 41 37 34 47 40 37 42 40 49 56 26 19 35 31 35 39 31 34 30 30 30 27 28 29 26 25 23 20 18 15 12 10 8 7 7
25 29 28 28 24 28 34 30 30 36 33 32 37 34 30 43 44 44 34 33 40 39 40 56 48 30 37 38 38 41 43 35 39 31 27 28 31 29 28 26 23 21 18 15 13 10 8 8 8
23 27 26 25 28 31 30 37 35 35 39 35 39 36 33 28 39 40 41 37 42 31 26 41 57 25 29 39 42 43 46 46 39 35 35 34 32 30 30 28 25 22 19 16 13 11 10 9 9
21 19 21 22 26 30 30 34 33 42 40 37 39 41 34 29 31 41 38 38 32 23 25 39 66 41 22 40 42 43 45 46 44 41 39 37 33 33 31 28 25 22 18 15 13 11 10 10 10
12 20 23 26 29 33 25 39 38 33 39 43 45 33 38 48 35 36 41 33 32 23 22 28 45 47 20 39 35 40 43 44 41 40 39 36 33 32 29 26 23 20 18 16 14 13 12 11 11
13 19 29 19 13 23 23 47 38 30 26 41 35 35 35 34 32 45 22 37 28 27 21 15 34 47 28 28 32 29 34 39 38 37 36 35 33 31 29 27 24 22 20 17 15 14 13 14 14
12 22 19 25 18 24 26 42 35 29 27 33 31 29 34 28 27 43 29 24 29 29 23 14 19 29 30 35 31 34 34 30 33 35 35 34 33 32 30 29 26 24 21 19 17 16 15 16 17
13 16 23 28 26 16 26 35 27 20 31 30 30 30 31 19 25 33 33 31 38 26 28 18 28 20 18 43 41 28 24 29 30 34 35 35 33 32 31 29 27 25 23 21 19 18 17 17 20
23 26 27 27 21 19 25 26 16 21 17 28 30 18 23 27 22 29 32 30 20 21 32 34 28 34 23 41 32 31 29 26 28 31 33 34 34 33 32 30 28 27 25 23 23 21 21 20 25
25 26 27 22 14 13 14 25 18 21 13 11 22 28 22 26 27 27 31 29 29 19 21 22 27 24 41 39 32 25 22 24 27 29 32 33 33 33 32 30 29 28 26 26 27 25 22 24 26
14 20 21 22 15 14 10 18 16 17 20 27 26 21 22 25 27 32 30 26 39 26 26 19 22 35 38 42 32 29 28 22 22 26 29 30 31 32 31 30 30 30 29 32 29 29 27 26 25
14 10 19 22 9 7 15 3 14 20 20 20 23 17 12 22 26 28 21 26 28 25 25 25 27 40 37 36 32 37 29 29 27 26 24 24 27 27 26 27 27 30 31 31 29 32 34 30 34
16 15 10 18 18 17 12 6 6 10 9 19 23 20 13 16 26 20 21 9 35 26 23 24 33 37 47 26 24 29 31 32 23 27 31 34 34 31 36 26 28 25 26 26 29 33 35 36 34
15 13 10 15 19 4 4 3 6 9 12 16 17 17 18 20 12 10 10 12 27 29 27 22 38 37 40 34 31 18 31 28 33 27 28 30 37 36 38 34 30 32 33 37 40 41 40 45 39
10 8 4 3 1 2 4 5 13 12 23 23 22 21 19 18 14 18 18 13 22 24 33 18 20 21 20 24 26 21 20 14 12 31 41 41 35 41 47 38 38 33 38 41 50 35 21 15 6
7 9 5 4 3 3 10 9 13 13 31 27 25 28 20 15 24 26 19 18 23 21 21 15 12 6 5 1 17 14 15 14 9 7 8 16 15 14 38 33 36 29 42 35 21 22 14 17 17
2 6 13 6 5 2 8 5 22 21 33 33 32 29 28 27 20 17 19 19 18 17 14 11 7 3 1 1 1 3 5 7 7 8 7 9 9 11 13 12 9 12 13 15 16 20 20 20 20
5 10 5 5 5 4 5 10 14 24 31 28 28 26 23 21 15 18 18 16 14 12 9 6 3 4 4 6 8 13 14 14 14 13 13 14 14 14 13 14 16 16 18 20 22 25 27 20 20
13 12 8 9 3 2 3 6 12 21 29 25 28 23 26 21 15 17 14 15 10 6 3 4 5 7 8 9 9 9 11 14 16 17 18 18 20 20 20 21 21 20 20 21 22 20 20 21 22
17 15 10 5 7 20 10 8 11 19 27 28 27 25 24 21 16 15 14 13 9 7 5 3 2 3 5 7 8 9 12 14 16 18 18 19 21 22 22 23 22 21 21 21 22 23 23 24 24

GFSSGP_700_spd_105.txt.gz
Wind_Speed
12 13 19 20 14 13 27 30 31 14 19 19 19 21 22 26 21 20 22 19 10 19 16 18 15 16 15 14 14 13 14 14 15 16 18 18 15 14 14 10 8 7 5 3 3 4 6 8 9
13 14 18 20 16 18 31 35 31 24 17 15 19 18 26 29 27 26 25 17 17 13 16 19 21 17 17 15 15 14 15 16 16 17 20 21 17 15 14 11 9 8 6 4 5 6 7 9 10
17 18 19 15 20 29 26 25 12 4 11 16 17 16 20 29 36 34 28 17 16 12 8 14 21 20 18 17 16 16 16 17 18 19 20 21 19 16 14 12 9 8 6 5 6 8 8 9 10
21 22 21 24 22 25 36 28 14 15 15 16 17 20 24 25 31 36 35 31 21 20 15 12 14 22 20 19 18 17 17 18 20 21 21 22 21 18 16 12 10 10 7 7 8 9 10 9 8
24 27 27 26 32 31 19 12 12 24 23 22 18 13 25 27 27 30 32 30 29 27 26 23 20 21 24 21 20 19 19 19 21 22 23 24 23 21 18 15 14 11 9 9 10 10 10 9 8
25 28 25 34 35 29 30 24 16 21 22 24 23 17 15 29 27 28 31 32 33 38 31 26 26 22 25 22 21 20 20 20 21 22 24 25 24 22 19 16 15 13 11 11 12 11 10 9 8
23 27 36 36 31 28 27 18 21 24 28 28 21 22 16 21 25 27 30 35 36 35 32 28 28 26 25 23 21 21 20 20 22 22 25 26 25 22 20 18 16 14 13 13 12 11 10 8 7
21 27 35 34 34 37 29 25 27 27 30 32 27 26 21 14 26 26 31 34 37 30 32 31 26 29 26 26 21 21 20 21 22 25 29 29 26 22 20 20 18 17 16 14 13 12 10 8 6
21 30 35 36 32 36 28 30 33 33 32 33 34 26 25 24 25 27 30 33 34 31 29 33 30 30 31 29 26 22 23 24 25 30 30 29 26 24 22 22 20 19 18 16 14 12 10 8 6
23 33 32 31 30 29 30 30 33 43 41 36 36 27 23 25 29 30 26 27 36 35 33 30 33 39 34 30 30 26 26 28 30 30 31 29 27 26 25 24 22 21 19 17 15 12 10 7 6
22 33 28 29 29 27 31 36 36 37 46 43 38 42 30 23 32 34 37 30 32 34 31 29 31 28 27 42 34 31 32 27 32 34 32 30 29 28 26 25 24 22 20 18 15 13 10 8 7
25 26 25 26 25 28 31 35 40 43 44 42 43 43 39 34 28 32 32 40 42 36 36 38 31 42 47 39 33 35 37 36 34 37 36 36 34 29 28 27 25 22 21 19 16 12 10 9 8
22 20 22 23 25 28 28 32 37 42 39 42 46 46 44 39 32 27 36 33 42 39 39 44 42 39 48 55 25 39 41 40 41 40 36 36 38 31 31 28 26 25 23 19 15 12 10 10 9
17 18 19 20 21 23 29 32 30 36 29 34 47 51 44 43 38 34 30 32 39 46 37 39 44 46 46 57 37 40 42 38 41 38 36 35 32 33 31 30 29 26 22 18 14 12 11 11 11
10 15 14 15 14 21 22 35 32 28 33 34 36 51 46 44 44 42 36 41 31 31 41 38 32 39 48 52 55 42 44 48 43 42 42 28 33 32 31 30 28 26 22 19 17 15 12 11 11
13 15 15 9 13 14 18 35 26 25 29 31 34 39 50 49 43 42 36 44 34 35 39 34 32 30 29 37 47 39 48 45 46 47 44 39 27 32 32 31 28 26 24 21 18 15 13 13 12
7 12 16 21 15 22 23 39 36 28 21 28 29 32 43 48 41 38 39 39 40 26 36 35 29 22 22 31 39 39 34 38 43 50 44 37 33 35 33 32 30 28 26 22 19 17 15 14 14
11 17 26 26 27 26 35 42 40 29 29 22 27 32 30 33 41 35 39 38 32 31 25 28 22 20 16 39 34 28 34 34 41 41 41 37 36 36 35 33 32 30 27 23 21 19 17 16 16
17 21 25 28 22 31 30 34 15 14 19 19 26 29 25 25 38 26 31 35 32 33 27 27 31 22 19 33 48 27 36 36 34 32 36 36 38 36 36 35 33 31 27 25 24 22 19 19 19
15 24 30 27 18 27 22 23 17 16 16 14 17 21 18 19 31 25 25 28 27 26 24 31 31 32 16 20 29 31 35 38 39 32 32 35 35 35 35 34 32 30 29 27 25 24 23 23 23
14 17 17 22 26 29 24 28 17 11 14 14 17 18 18 19 20 28 23 24 25 31 30 24 35 31 26 30 22 37 42 34 27 31 32 31 31 32 32 31 31 30 29 28 27 24 23 24 25
19 12 14 19 17 6 8 7 9 16 18 17 14 17 22 14 17 23 22 22 30 33 35 23 17 26 29 28 34 32 24 26 29 21 20 27 27 29 30 29 30 30 30 30 26 26 24 26 30
20 18 20 20 20 20 21 11 7 15 23 19 17 18 15 12 17 17 19 25 26 36 36 32 21 27 33 34 30 36 32 26 25 24 29 29 29 29 30 30 30 30 33 27 27 28 26 27 25
18 18 16 16 17 7 3 10 4 10 10 16 16 18 12 13 14 13 17 21 25 25 25 22 27 28 33 29 24 26 34 31 27 28 34 32 39 36 32 31 36 30 39 34 34 32 31 30 37
7 10 4 4 5 2 4 3 6 5 12 13 16 16 14 14 10 14 13 25 12 28 28 26 28 29 31 24 20 28 34 37 27 27 24 25 25 30 29 37 40 43 42 44 41 36 41 39 25
5 8 4 4 4 2 8 8 9 11 14 20 24 25 23 15 18 19 18 18 26 28 21 25 31 31 23 31 20 25 13 20 25 16 8 5 37 34 36 36 46 42 44 44 34 39 36 40 46
3 6 14 6 9 2 6 7 15 18 20 28 25 23 28 22 16 16 18 26 25 28 16 25 22 18 15 16 9 13 8 6 5 2 3 3 6 9 13 12 26 34 15 18 31 27 13 21 24
7 10 3 5 3 4 6 9 15 24 31 27 31 23 18 19 20 23 24 23 21 22 20 18 15 14 11 7 5 3 3 3 4 5 7 8 10 12 11 12 12 14 14 16 16 15 18 24 28
13 14 7 7 1 1 2 5 15 22 29 29 28 25 20 22 19 13 19 18 17 15 14 12 10 8 7 4 3 4 5 7 9 9 10 11 14 15 16 17 18 18 18 18 22 24 26 30 34
19 16 9 4 7 13 6 9 18 23 27 26 28 28 26 23 20 17 20 18 16 14 12 9 8 6 4 2 1 2 4 6 9 11 12 13 15 17 18 19 21 22 22 23 24 25 27 28 27

GFSSGP_700_spd_108.txt.gz
Wind_Speed
13 14 16 18 13 11 27 23 24 6 14 15 19 25 24 21 19 20 20 19 11 15 13 11 11 12 9 11 13 13 12 12 13 14 13 13 13 13 12 10 7 5 4 2 1 2 4 5 6
16 16 15 18 13 17 24 32 28 21 9 10 20 24 20 22 24 26 24 22 14 10 10 14 16 15 14 12 14 14 14 13 14 14 16 17 15 13 13 11 8 7 5 3 2 4 5 7 8
18 16 17 11 20 23 20 20 15 10 17 21 17 17 17 18 19 25 26 20 22 16 14 13 15 15 16 16 15 15 15 15 15 16 15 20 17 14 14 11 9 8 6 4 4 5 7 8 9
20 19 20 24 24 20 31 10 9 18 19 19 17 13 9 15 18 20 21 23 26 21 18 11 6 9 17 17 17 17 16 16 17 19 18 20 20 17 16 12 11 9 7 5 5 6 8 8 8
23 24 26 27 31 31 23 20 21 21 19 18 18 18 10 11 17 22 24 19 15 21 27 23 20 14 13 18 19 18 18 18 18 20 21 22 21 20 18 14 13 11 9 7 7 8 8 8 7
24 27 25 32 38 32 29 24 13 17 28 24 19 19 14 10 17 20 24 28 23 24 24 29 28 27 18 19 21 20 19 19 19 21 21 23 23 23 21 16 15 13 11 10 9 9 9 8 7
24 28 33 35 36 32 29 26 28 28 26 29 24 22 17 19 13 22 22 25 29 29 32 31 35 29 27 22 23 23 21 20 19 21 22 24 26 25 22 18 17 15 13 12 11 11 9 8 7
22 27 33 36 36 38 28 28 30 32 35 33 27 16 24 21 12 18 22 24 27 29 27 30 34 33 28 31 30 26 23 20 20 21 23 26 29 27 23 21 20 18 15 14 13 12 10 9 8
21 26 35 36 33 34 29 29 31 35 37 39 35 26 24 24 22 19 20 23 24 26 27 23 28 30 27 28 30 29 26 21 23 24 26 29 30 27 24 22 21 20 17 16 15 13 11 9 8
22 30 33 31 30 32 30 32 32 39 42 40 40 34 31 28 24 24 22 21 26 28 28 29 28 30 30 28 32 29 31 25 24 25 29 32 31 27 24 24 23 21 19 18 17 15 12 10 8
24 33 30 31 29 30 33 34 34 39 44 45 42 39 37 35 30 28 27 24 23 27 29 31 31 32 34 28 32 34 32 30 26 29 32 34 31 29 28 27 26 23 22 20 18 15 12 10 9
26 27 24 27 24 29 32 32 35 38 44 42 47 46 44 40 39 34 31 31 27 28 30 29 30 32 35 25 30 29 30 36 31 33 32 33 32 32 30 28 27 24 22 21 19 16 13 10 10
22 21 24 23 24 26 30 34 35 40 38 36 41 50 51 49 45 40 36 32 34 30 29 29 31 32 35 36 32 27 31 37 31 33 36 36 35 33 33 31 28 25 24 22 20 16 13 11 10
17 19 16 17 17 18 22 23 26 30 26 32 37 42 54 53 48 43 38 37 36 34 32 36 37 34 40 39 41 36 35 40 43 34 41 39 36 36 35 34 30 27 26 24 21 16 14 13 12
13 12 12 11 6 11 16 26 21 14 18 24 30 38 45 55 54 45 39 34 34 37 36 33 38 40 34 44 44 42 47 43 46 37 39 40 41 36 37 32 31 30 28 25 22 19 16 14 13
11 12 10 8 12 10 18 36 21 21 26 27 25 28 38 51 57 52 43 39 37 33 37 37 35 41 43 41 42 50 47 50 53 48 46 46 43 39 48 40 33 32 29 26 23 21 17 16 15
7 10 15 17 9 15 22 36 22 28 31 25 22 28 33 44 58 56 45 40 38 35 36 38 33 34 39 39 43 42 45 50 51 62 34 37 38 45 35 28 34 35 30 27 25 22 20 17 15
9 17 23 25 21 27 30 31 25 20 24 27 25 25 28 42 48 56 43 37 29 29 35 41 42 36 38 36 40 35 38 45 55 59 46 42 27 26 24 28 37 34 31 31 28 24 21 19 18
14 18 24 25 19 25 25 26 25 18 24 26 17 16 23 29 38 39 46 30 34 32 35 39 34 35 34 43 33 22 28 31 46 43 52 46 35 34 29 37 36 35 33 31 29 27 23 21 20
15 20 22 17 14 23 26 34 31 19 23 22 22 19 18 22 26 22 33 33 35 43 35 30 32 30 27 34 28 27 19 31 37 47 54 38 35 34 33 36 36 36 35 34 31 27 25 24 23
16 19 21 22 23 28 24 28 13 14 20 16 13 11 11 12 17 18 26 28 32 35 33 32 34 31 33 26 28 35 35 23 35 39 47 35 35 35 34 35 36 36 35 32 30 28 27 25 24
21 14 12 16 17 11 20 10 23 22 18 16 12 12 16 11 14 15 27 23 23 29 31 35 30 23 33 34 27 33 38 23 31 39 39 40 32 32 33 33 35 35 33 33 31 29 29 28 27
15 15 18 21 25 26 23 12 12 13 17 22 17 14 12 11 10 12 26 28 26 26 26 28 31 22 26 36 26 26 28 27 37 35 40 40 34 34 30 31 32 31 32 33 33 32 30 31 30
19 21 17 15 15 7 7 10 6 12 15 13 16 11 11 12 11 16 20 20 22 21 24 28 25 17 21 26 26 24 28 24 37 32 32 40 38 37 34 32 33 35 34 36 36 36 36 41 32
8 8 5 3 3 3 6 5 9 18 7 7 11 10 13 10 11 13 14 14 18 21 26 30 25 25 23 31 29 24 22 26 23 26 27 30 35 34 37 37 41 47 39 43 38 41 38 53 48
10 7 4 4 3 3 7 8 12 12 1 11 9 16 13 14 12 9 9 8 15 19 19 22 25 33 32 20 16 23 36 28 18 20 19 21 23 20 32 33 31 27 35 36 39 38 42 44 43
5 7 13 6 11 3 7 12 16 15 17 12 10 18 21 20 18 23 33 33 34 30 30 21 21 27 28 23 20 15 20 22 28 24 21 14 5 6 26 32 28 24 41 48 50 51 48 50 44
6 11 5 5 3 2 8 8 18 18 19 23 18 23 20 18 16 24 27 28 27 29 31 26 23 25 26 19 19 10 12 10 9 9 7 7 11 12 12 17 19 17 14 23 27 27 22 24 39
11 8 6 4 2 2 2 4 13 13 23 23 24 25 27 26 29 29 29 30 28 27 26 25 21 18 16 16 14 10 6 6 5 5 6 9 12 15 16 19 20 19 18 20 23 25 28 26 28
11 11 8 2 4 7 4 8 14 20 28 30 31 30 33 30 36 31 28 27 26 24 21 18 16 15 14 11 8 6 5 4 4 7 9 12 14 16 18 20 22 23 25 26 27 28 28 30 31

GFSSGP_700_spd_111.txt.gz
Wind_Speed
13 14 14 15 12 10 17 15 21 5 11 16 28 24 20 18 15 8 4 6 7 10 12 13 11 9 9 8 9 9 10 10 11 10 9 9 9 10 9 7 4 4 3 4 6 5 1 4 6
12 13 15 17 12 16 16 22 22 6 8 8 18 28 22 22 23 21 18 12 8 7 9 11 14 13 13 12 10 11 11 11 11 10 11 10 10 9 9 8 5 5 4 4 5 4 1 4 7
13 13 14 10 17 21 16 20 12 18 20 13 16 22 20 18 25 17 13 17 15 13 12 15 14 14 14 13 12 12 12 12 12 11 10 12 11 11 10 9 7 7 5 4 5 3 1 5 7
14 15 17 19 20 12 24 14 12 11 20 23 21 14 16 16 12 15 9 11 15 18 15 13 15 9 13 16 15 14 14 14 13 14 12 12 15 13 12 10 9 8 7 5 5 3 4 5 7
17 19 22 22 25 24 22 20 20 14 17 22 20 21 14 10 12 15 14 14 13 16 16 19 19 15 10 12 15 15 16 15 15 15 16 15 17 16 14 12 11 10 9 7 6 5 5 5 6
20 21 20 26 29 26 23 21 23 16 27 25 24 23 18 16 17 18 20 19 18 17 19 18 20 25 21 16 16 17 17 17 17 16 17 17 19 19 17 14 12 12 11 9 7 7 6 6 6
21 22 27 29 29 27 23 23 28 29 22 29 29 26 25 20 19 23 20 19 19 18 18 22 22 22 25 22 20 19 18 19 18 17 19 20 20 22 20 17 15 14 13 11 9 9 8 7 7
20 22 28 29 31 31 25 25 28 32 31 29 31 28 29 23 21 24 21 21 23 21 20 20 20 29 31 29 25 25 23 21 20 19 20 22 23 25 23 21 17 15 15 13 11 11 10 9 8
17 22 29 30 27 27 23 26 27 32 34 34 36 33 33 26 26 26 26 20 19 23 22 19 19 20 23 28 30 26 27 25 23 21 20 23 26 28 27 22 20 18 17 15 14 13 11 10 8
19 24 24 26 26 27 25 29 28 31 35 38 37 41 36 33 29 28 30 27 24 23 19 20 21 20 20 20 27 28 28 27 26 25 24 25 28 27 28 25 22 21 19 18 16 15 13 11 9
23 27 25 26 26 29 29 30 30 34 37 38 39 40 42 38 35 31 32 33 29 27 23 23 22 23 21 21 25 26 26 26 28 29 28 29 31 28 30 28 25 23 22 20 18 16 14 12 11
23 24 23 26 23 29 29 32 32 35 37 35 39 41 45 44 40 37 34 36 36 32 28 26 23 24 23 26 25 29 26 24 25 29 29 31 31 30 30 28 27 25 24 21 19 17 16 13 11
21 21 22 24 26 27 29 32 33 38 36 32 33 38 48 51 48 44 40 37 38 35 34 31 28 26 30 28 25 24 28 27 28 35 32 31 34 33 33 31 29 27 26 23 21 19 16 14 13
18 20 19 21 21 26 26 26 29 25 16 29 36 39 42 53 54 50 46 44 39 39 40 36 33 29 27 29 25 24 28 28 24 33 35 35 36 35 36 33 31 29 28 27 23 21 18 17 15
15 19 18 14 15 15 21 28 22 15 19 20 22 32 43 48 53 57 50 45 44 42 41 40 39 34 37 36 33 29 33 31 32 32 33 36 42 39 39 36 32 31 31 30 27 24 21 19 16
12 14 13 10 12 16 22 38 21 20 22 25 30 32 33 42 49 55 60 53 46 42 42 39 41 39 37 38 34 36 36 36 39 33 40 37 46 39 40 37 35 35 33 33 29 25 22 20 17
6 8 13 17 14 18 24 36 25 24 24 28 29 32 33 32 43 48 52 57 51 45 41 39 37 43 40 37 37 40 41 39 37 41 43 41 50 45 42 40 40 33 33 35 31 27 24 21 19
6 14 18 22 19 26 29 40 33 19 25 28 30 28 29 31 34 43 48 48 50 47 44 37 35 35 34 39 41 42 42 47 42 44 45 46 47 55 46 51 49 40 42 36 32 30 26 23 21
9 14 20 21 18 21 25 30 27 21 31 32 29 23 23 29 29 35 45 41 41 47 44 42 37 37 38 40 43 45 44 39 44 48 49 51 46 56 45 38 34 38 40 34 33 32 28 25 24
12 18 22 22 7 26 27 34 26 24 21 19 21 20 25 28 30 32 35 38 34 34 37 35 34 32 34 38 40 43 47 48 49 39 42 50 52 55 24 33 34 34 35 34 36 34 29 28 27
14 18 22 22 23 24 22 33 18 15 23 20 16 17 16 14 13 20 25 27 28 33 31 33 33 28 26 32 33 33 39 38 30 32 39 40 42 64 53 33 20 24 31 35 36 35 32 29 28
17 12 15 18 17 12 15 13 21 22 20 16 12 14 15 8 5 9 16 19 26 29 29 29 32 33 33 36 32 34 29 35 26 20 33 40 44 42 42 40 26 30 34 37 36 33 31 31 30
13 16 22 26 28 29 18 11 11 19 15 14 17 19 15 18 15 16 18 22 25 28 30 31 33 37 38 36 34 33 34 30 39 23 26 33 35 32 29 26 26 28 33 35 34 33 32 33 34
16 19 20 14 13 7 6 10 7 15 27 23 16 20 19 17 18 18 17 24 22 24 24 30 36 37 43 38 35 34 35 34 36 37 34 34 38 39 36 32 29 31 31 33 33 35 36 36 37
9 13 6 3 1 4 8 8 10 17 14 13 2 11 13 13 15 16 14 19 22 21 23 27 31 32 35 29 25 24 30 33 27 25 34 30 32 31 37 41 37 35 34 36 36 34 38 43 39
11 8 4 4 2 4 7 10 10 14 8 5 1 3 5 5 7 16 21 21 25 25 29 27 23 24 12 12 18 12 26 17 26 28 23 21 33 35 33 35 31 32 35 34 40 39 41 41 44
4 6 10 6 8 4 6 9 9 11 5 2 3 11 13 7 29 22 16 15 14 15 17 17 19 22 27 24 14 24 10 15 12 15 18 15 15 17 32 33 37 39 36 34 39 40 42 51 50
9 11 4 4 4 2 6 5 16 15 16 8 9 20 16 18 21 25 30 42 37 38 31 28 27 37 27 17 13 14 14 15 17 17 13 14 11 11 10 16 24 25 27 27 26 33 39 47 51
8 4 4 5 4 2 3 4 13 14 20 23 20 28 27 25 25 34 34 38 38 32 31 30 23 25 28 13 16 18 14 12 10 8 6 6 8 10 9 12 14 19 18 22 24 22 23 26 27
12 14 7 1 2 4 2 7 17 25 27 30 36 38 38 38 36 34 34 33 32 31 30 27 24 22 25 24 16 12 10 9 6 5 6 7 8 9 11 15 18 20 23 26 28 28 29 30 32

GFSSGP_700_spd_114.txt.gz
Wind_Speed
10 10 11 12 10 9 16 14 18 9 7 17 20 26 14 15 12 7 4 5 3 9 11 12 10 7 5 6 7 6 7 6 7 7 6 4 5 5 6 5 2 1 2 3 8 8 4 1 2
10 11 12 14 9 12 11 16 15 6 8 9 19 25 20 17 16 17 14 9 3 5 8 8 8 9 10 8 9 8 8 8 8 7 7 6 6 6 6 5 3 2 3 4 7 7 2 1 3
11 12 13 8 14 18 8 10 12 14 11 10 13 19 24 20 17 15 8 7 9 11 11 12 9 8 10 11 10 10 9 9 9 6 5 6 7 7 8 6 5 4 3 4 6 7 2 2 4
12 14 14 15 13 7 15 13 9 12 21 22 17 12 18 20 21 18 12 9 11 12 14 13 12 12 9 11 13 12 11 11 10 9 8 8 8 8 10 8 7 6 4 4 6 5 1 2 4
15 16 18 16 17 16 14 14 11 10 14 16 25 22 17 20 20 21 18 15 16 13 15 14 14 13 8 4 9 12 13 12 12 12 12 11 9 12 12 10 9 8 6 5 6 6 2 4 4
17 16 14 20 20 16 15 17 19 20 21 20 21 23 23 19 19 21 22 20 20 18 17 16 18 19 17 13 10 9 11 13 14 13 13 13 12 14 14 13 11 10 8 7 6 6 5 5 5
16 17 20 21 20 18 17 17 21 25 24 21 23 25 25 23 20 22 24 23 21 21 19 15 16 18 21 20 15 14 15 14 15 15 15 16 16 17 18 16 14 12 10 9 8 7 7 6 6
17 20 22 21 21 20 19 20 22 24 25 26 26 24 29 26 25 23 26 25 23 22 21 20 22 17 17 19 21 17 17 19 18 16 15 18 20 19 21 19 16 14 13 12 11 8 7 7 7
17 20 22 22 19 18 17 19 20 23 25 28 29 32 29 29 31 27 27 27 27 26 24 21 19 20 17 18 17 16 17 18 20 20 19 20 22 23 24 21 19 17 16 15 13 11 9 8 7
21 24 20 21 20 21 19 22 24 25 28 31 30 32 34 32 31 32 30 31 29 29 26 25 24 22 17 16 15 17 18 20 22 23 23 23 22 25 25 25 20 19 18 18 16 14 12 10 9
23 26 21 21 22 24 23 24 28 30 30 30 32 32 34 36 37 37 36 32 34 33 31 27 24 22 22 20 16 14 17 16 21 25 26 25 23 26 26 28 27 22 21 20 20 16 13 12 11
22 22 21 21 22 25 26 29 29 30 33 29 29 33 37 38 41 42 41 39 34 36 34 32 30 25 23 21 20 18 18 19 22 25 27 27 26 27 27 26 28 25 23 23 21 18 16 14 13
21 21 21 22 21 24 27 30 30 36 25 29 31 35 38 40 42 45 45 44 42 38 36 33 33 29 27 23 23 20 21 21 25 27 27 26 27 29 30 28 28 28 27 26 24 21 19 16 15
19 19 19 20 19 26 28 28 32 24 26 25 27 32 38 41 42 47 49 48 48 43 39 37 37 33 30 27 25 24 25 23 24 17 21 26 30 31 32 31 30 30 30 29 27 25 22 19 18
18 20 19 19 17 19 22 28 25 14 19 22 24 28 30 34 41 46 48 51 49 50 45 42 40 38 37 33 28 25 23 21 25 23 25 20 24 34 36 36 35 33 32 30 31 30 27 24 19
15 17 13 11 11 14 21 36 24 18 24 27 28 31 32 29 32 38 45 50 52 53 53 46 44 42 41 39 33 29 29 29 30 29 27 30 27 28 35 38 37 38 35 34 35 33 30 25 20
9 11 12 13 13 19 23 38 26 24 27 35 30 28 28 32 34 37 39 41 51 52 55 52 48 44 44 40 42 38 32 30 33 34 35 31 34 35 36 38 35 46 41 38 39 36 32 27 23
7 12 15 15 13 22 31 41 34 27 27 33 29 28 31 31 30 30 35 37 42 48 51 54 50 46 43 43 39 38 39 35 30 30 31 38 38 37 41 40 40 46 47 43 39 39 34 29 26
11 13 18 18 17 25 26 36 34 24 26 25 28 32 31 30 28 28 29 38 40 44 44 50 50 46 45 42 43 38 39 40 39 39 41 41 43 42 41 43 44 48 58 43 38 40 38 29 31
12 17 19 21 10 25 29 37 31 26 20 20 21 20 22 24 23 26 31 34 39 41 44 41 48 43 41 42 41 44 38 42 46 45 44 42 45 45 47 46 40 46 42 45 42 38 36 33 33
14 18 17 19 22 25 21 32 16 23 20 21 24 24 21 21 20 19 22 25 31 35 37 37 41 41 39 37 36 40 37 45 44 46 45 44 42 46 38 44 44 28 38 46 43 38 35 32 34
17 8 12 16 18 12 22 10 28 17 15 14 17 20 21 20 20 19 18 19 23 26 25 27 31 35 34 36 35 33 36 37 37 33 32 31 29 31 28 41 43 42 25 29 35 46 32 35 36
12 14 20 23 26 27 23 11 9 18 22 23 23 24 23 21 21 20 17 13 17 23 26 27 29 31 33 35 32 33 33 34 33 30 27 24 25 31 34 33 30 39 48 34 22 24 30 35 31
15 18 19 13 10 5 7 10 8 20 24 23 17 12 19 19 20 23 22 20 21 22 27 28 32 30 32 36 40 37 32 33 32 28 29 34 30 25 35 36 33 32 33 35 27 31 34 35 35
6 10 5 4 1 5 8 9 9 20 12 16 13 10 7 14 21 22 21 20 19 22 28 28 30 30 33 35 30 32 36 38 33 32 34 36 36 36 25 27 26 31 30 34 35 32 35 36 38
7 7 3 3 2 6 9 6 8 13 11 12 17 11 13 14 26 26 19 20 20 19 20 22 22 28 22 23 28 32 35 35 31 32 36 24 28 31 30 29 28 30 33 32 35 38 41 43 50
3 5 7 6 9 5 6 7 5 12 4 9 12 11 10 7 21 10 28 23 25 20 19 19 20 21 20 18 27 19 8 18 15 18 20 18 28 24 22 28 29 32 33 33 33 35 41 38 37
7 7 3 3 3 3 4 4 17 16 12 8 11 15 14 9 28 36 15 15 21 25 24 22 23 18 25 14 20 12 9 13 10 16 12 15 18 10 13 20 29 34 32 32 29 30 35 36 31
5 3 2 3 3 2 3 4 11 12 12 13 15 17 17 19 25 32 36 36 33 32 32 30 30 31 23 19 12 14 12 10 15 14 14 14 8 10 11 10 11 14 17 21 24 23 22 29 30
10 8 4 3 1 2 0 6 11 19 31 31 33 35 35 35 37 37 35 32 34 31 32 26 23 24 22 14 19 16 14 14 12 10 9 10 9 9 8 10 13 14 16 20 22 26 30 32 34

GFSSGP_700_spd_117.txt.gz
Wind_Speed
10 10 11 13 9 7 12 10 17 6 5 14 21 21 14 16 12 6 9 8 7 10 8 8 8 8 6 3 5 5 4 4 3 2 2 1 2 3 6 5 4 2 2 4 8 9 7 3 4
11 11 13 14 7 10 7 11 11 10 9 9 18 20 22 15 20 17 12 9 6 4 5 7 7 7 5 6 6 6 5 5 5 4 3 2 2 4 6 5 3 2 1 4 7 9 5 2 3
11 11 12 8 10 12 4 7 11 12 9 10 12 18 21 23 19 20 18 12 9 5 4 6 5 6 5 6 6 7 7 5 6 5 2 0 2 5 6 5 4 2 0 3 6 8 5 1 4
12 13 12 12 8 10 11 6 8 12 13 13 11 8 16 26 25 19 21 13 13 12 10 10 9 9 8 9 9 8 8 7 6 5 4 2 3 6 8 5 4 3 2 2 4 6 5 2 1
14 13 16 11 11 12 7 9 8 10 15 17 18 17 15 17 24 26 17 20 20 14 14 16 16 13 9 5 8 9 8 8 8 7 7 7 5 8 9 8 7 5 4 3 4 5 5 2 1
16 15 12 16 13 11 11 14 13 13 13 13 13 18 21 17 18 22 20 21 22 21 17 17 18 19 17 14 9 5 5 6 8 8 8 9 10 11 12 11 9 8 6 5 5 5 5 2 2
16 16 16 14 12 12 13 14 16 18 19 19 18 20 19 25 21 19 21 23 21 22 22 19 18 17 19 20 17 12 10 8 8 9 9 10 13 13 14 14 12 9 8 7 6 6 6 5 3
17 18 15 14 14 15 15 16 17 18 19 20 21 21 22 23 26 23 23 24 25 24 25 23 21 20 17 17 16 12 11 11 12 13 12 13 15 16 17 18 15 13 11 10 8 7 7 7 6
16 18 16 17 14 15 15 15 17 19 20 22 23 23 22 22 26 27 27 27 28 26 27 26 25 24 24 17 16 17 15 13 14 14 16 16 17 19 20 20 18 16 14 13 11 9 9 8 8
19 19 16 17 16 16 16 18 22 22 23 23 24 24 24 26 29 30 32 31 31 32 30 29 27 23 23 22 19 18 18 17 17 17 17 19 20 21 22 22 22 19 17 15 14 13 11 9 9
20 21 17 18 18 17 19 22 26 26 27 22 25 25 29 29 31 36 35 36 36 35 34 33 32 30 26 24 22 18 16 19 18 20 18 19 22 23 22 24 25 22 19 18 18 17 13 12 11
20 19 18 18 19 22 22 25 27 30 28 25 28 30 31 32 33 35 39 39 39 39 38 35 33 32 29 28 24 20 20 19 17 17 19 19 20 23 22 24 24 25 23 21 21 20 17 15 13
19 18 18 18 19 23 25 25 29 33 23 30 29 30 31 33 33 36 38 41 44 44 39 40 38 34 32 29 28 24 22 22 18 18 19 21 21 22 25 26 24 24 25 24 24 23 21 19 16
16 14 17 18 19 24 26 25 31 23 28 25 25 27 30 33 34 36 38 40 43 46 45 41 42 39 36 34 34 29 27 24 22 19 20 23 23 25 26 27 27 27 26 27 27 26 25 24 21
16 16 18 19 18 21 24 29 28 24 23 20 22 26 28 30 31 32 33 38 42 45 47 49 44 41 40 35 35 32 27 26 24 22 19 18 16 25 25 26 29 28 28 30 29 31 29 28 25
13 15 14 14 14 18 21 33 26 25 26 25 27 28 29 30 32 32 32 33 35 43 47 50 49 45 43 40 37 35 32 28 24 20 20 20 19 19 20 27 29 30 32 33 35 36 34 32 28
10 10 13 13 15 18 24 35 27 22 30 34 33 34 31 31 29 31 32 36 35 34 42 49 52 50 45 43 41 38 35 31 29 26 25 27 24 23 22 24 27 33 30 31 30 41 38 37 31
7 10 12 12 13 20 28 39 34 27 29 34 34 34 31 31 30 29 35 34 37 36 34 43 52 53 50 46 44 42 41 39 36 34 27 22 23 25 24 29 31 34 37 36 32 41 39 38 34
8 11 14 14 15 25 26 36 34 27 25 29 30 28 29 29 30 32 31 32 33 32 33 34 46 53 52 51 48 46 44 41 40 35 33 34 32 32 36 37 35 37 40 37 37 39 50 41 35
8 13 14 14 11 22 26 35 30 21 17 23 21 25 28 30 30 29 28 29 28 29 31 34 37 49 53 50 46 45 41 38 37 37 37 38 39 39 39 37 37 39 40 40 42 39 50 40 45
10 13 11 14 18 21 21 33 20 22 11 14 18 26 29 31 30 28 27 26 27 26 27 31 31 37 48 48 44 43 41 40 39 34 33 39 44 43 42 43 40 39 43 40 36 44 47 39 45
10 7 11 15 14 10 20 10 24 12 13 17 24 29 33 29 31 28 24 23 23 24 24 28 28 30 42 47 44 44 41 40 38 37 37 36 39 39 35 33 32 34 33 32 36 38 41 39 40
8 11 17 19 19 17 9 10 8 18 25 18 19 20 20 25 24 22 20 22 22 20 20 23 24 30 37 44 42 40 39 38 33 32 35 33 34 32 29 28 24 27 31 39 37 33 30 36 43
11 12 12 3 3 5 7 5 7 19 27 16 19 19 19 15 18 22 23 23 20 19 16 19 26 31 36 38 40 41 36 35 36 35 31 30 30 30 26 20 24 31 32 32 36 38 40 39 35
4 10 5 3 2 5 6 8 9 18 14 12 14 20 18 20 20 22 24 23 21 17 17 21 28 30 32 36 35 36 37 36 32 33 30 28 30 24 24 26 23 28 28 31 33 31 34 28 27
3 7 2 3 2 5 10 5 7 19 14 9 15 18 15 15 26 19 14 16 15 14 14 24 25 28 30 30 33 33 35 34 37 35 32 32 28 27 26 29 29 18 34 29 28 30 28 29 31
3 3 6 6 9 5 3 5 9 18 10 12 13 17 9 9 27 6 3 15 16 15 18 23 24 26 28 26 28 28 30 32 32 31 27 22 26 23 22 26 30 27 27 26 24 29 34 37 37
7 7 4 4 4 4 3 4 17 17 13 14 18 21 21 10 33 16 5 16 18 18 18 20 23 24 22 20 24 23 12 20 15 11 14 19 20 15 21 21 19 20 25 30 29 27 28 32 35
6 4 4 5 4 2 4 4 12 17 26 30 33 38 39 36 31 34 32 12 16 16 15 15 16 13 18 9 26 19 12 8 12 21 16 14 17 17 16 9 10 9 16 24 18 23 26 24 27
9 6 6 3 2 3 2 4 11 20 24 27 31 31 33 35 38 39 28 29 31 28 13 22 16 27 27 21 16 21 14 14 9 10 15 13 6 10 11 12 11 8 8 13 11 19 25 26 25

GFSSGP_700_spd_120.txt.gz
Wind_Speed
13 13 14 15 9 7 11 8 16 7 8 14 16 18 13 15 10 7 10 13 13 13 10 8 7 7 6 4 2 2 3 3 2 1 1 1 1 3 5 5 2 2 3 5 8 11 8 4 3
13 13 15 18 7 9 8 15 9 12 11 8 14 18 17 11 18 11 14 13 11 14 12 11 9 9 8 5 4 3 3 3 3 3 1 1 2 3 6 4 3 2 1 4 7 9 7 4 3
14 14 15 10 8 10 6 10 14 12 10 9 14 18 20 21 20 21 17 12 11 11 9 9 10 8 8 6 5 5 4 3 3 3 2 0 2 4 6 4 3 1 1 3 6 8 7 3 3
17 16 14 10 9 12 13 8 11 11 10 10 10 10 18 22 21 19 22 16 12 11 11 9 8 9 8 8 7 7 7 6 4 2 2 1 1 6 7 4 3 1 1 3 5 6 5 2 1
16 16 13 12 12 8 10 9 8 9 10 13 13 12 12 15 21 22 19 21 17 18 16 13 13 13 13 11 11 12 9 8 5 4 4 4 4 6 7 7 4 3 3 2 3 4 4 2 0
19 17 8 12 12 12 12 12 10 10 10 14 15 17 19 15 15 19 24 22 21 21 21 21 18 18 16 14 11 11 11 9 7 6 6 7 8 8 9 10 7 6 5 4 4 4 3 2 2
19 16 11 11 10 13 15 14 14 14 15 17 17 16 16 19 19 17 19 23 24 22 23 24 23 21 20 18 17 15 11 9 8 7 7 9 11 11 12 12 10 9 8 7 6 5 4 2 3
18 16 11 12 11 11 12 13 14 15 19 18 19 16 19 21 21 23 21 21 25 26 25 25 24 23 22 21 19 18 16 15 14 11 10 10 13 14 13 14 14 11 11 10 9 7 6 5 4
17 15 10 13 11 14 11 12 14 15 17 19 19 19 19 20 23 25 26 24 25 28 28 27 26 25 25 24 22 20 18 17 17 15 13 13 13 15 17 17 17 16 14 13 12 11 9 7 6
19 18 16 15 14 14 14 15 17 18 19 16 18 18 20 23 25 27 29 30 29 29 30 31 31 29 26 26 26 24 23 22 22 21 18 16 14 15 19 20 20 19 17 16 15 14 13 10 9
18 19 17 15 15 16 17 19 20 22 22 18 22 23 23 23 26 28 32 32 34 34 33 33 31 32 29 25 28 29 27 26 24 23 22 20 19 17 18 21 23 23 21 17 17 17 16 13 12
17 16 17 17 17 19 21 22 23 28 19 25 26 27 27 27 27 28 31 35 36 37 37 36 36 35 33 31 28 28 28 25 24 24 24 25 24 21 19 19 22 24 22 20 20 19 19 17 15
17 17 16 16 17 19 22 21 28 25 24 28 27 28 29 30 30 31 32 33 37 40 39 40 40 39 39 37 35 32 29 27 24 22 21 20 22 24 21 20 21 20 22 23 24 23 22 21 19
12 14 16 16 18 20 22 23 30 22 28 26 29 29 30 31 30 32 32 33 35 38 41 43 43 43 43 41 36 34 32 31 29 25 22 22 22 21 24 22 23 22 23 23 24 26 26 25 24
13 13 14 16 18 21 22 26 27 24 24 25 26 28 29 29 30 31 32 34 33 37 39 43 47 47 46 44 41 39 35 32 31 28 24 21 22 21 22 24 23 22 23 25 26 27 28 30 29
9 11 11 14 15 20 19 22 22 24 27 29 30 31 31 32 32 33 34 35 33 34 38 43 46 49 49 47 44 43 41 37 35 32 28 25 24 20 19 18 20 23 23 23 26 30 32 32 33
8 7 11 13 15 20 22 26 22 22 28 34 33 35 36 37 37 38 37 37 38 36 36 39 45 47 49 49 48 45 43 40 37 32 27 28 24 21 21 20 22 23 23 24 28 29 31 31 35
5 7 11 12 14 20 26 32 31 26 30 32 34 35 37 39 39 39 40 39 38 37 36 36 40 45 49 50 50 49 47 44 40 35 30 28 25 25 26 26 25 23 24 26 30 32 32 30 36
8 9 11 12 18 24 26 32 29 25 26 26 30 33 36 38 36 34 35 37 35 35 36 37 39 42 45 50 52 52 51 47 44 40 36 35 31 28 24 23 24 27 31 31 37 39 38 36 34
7 8 11 13 12 23 26 33 30 21 13 21 24 26 30 31 34 34 33 36 36 35 35 36 35 40 41 47 51 52 50 48 45 42 39 37 35 32 34 33 35 36 36 36 34 40 42 40 39
7 8 8 11 18 19 21 23 7 12 12 15 19 26 29 33 38 36 35 36 33 31 31 30 31 34 40 42 49 52 51 50 48 45 42 39 38 36 37 37 39 40 39 41 40 41 46 44 38
4 6 9 13 13 6 12 10 11 7 13 17 24 24 23 26 31 37 35 35 33 28 27 27 29 33 37 41 47 51 52 49 46 44 42 39 37 36 37 37 38 39 38 38 38 39 42 42 36
4 10 15 16 15 17 9 9 7 17 19 22 16 19 25 26 23 22 21 25 27 25 25 26 27 30 35 40 44 48 46 45 42 41 39 38 38 36 34 36 36 35 34 32 31 32 28 32 30
10 11 12 7 4 5 8 9 5 12 23 24 22 18 28 30 25 20 20 22 23 22 22 22 20 25 32 37 42 45 43 40 40 39 39 37 36 34 34 32 31 27 30 27 27 34 33 32 32
6 8 4 2 3 4 5 8 13 18 25 23 25 24 26 28 28 26 28 26 23 23 21 18 16 20 31 35 38 40 41 39 39 39 36 34 34 31 27 28 28 28 25 22 29 33 36 33 33
5 4 3 4 3 7 7 5 7 18 23 18 16 19 23 21 28 22 6 20 18 17 15 17 17 19 25 30 32 33 37 39 39 38 36 34 30 31 29 27 28 30 30 24 24 30 30 30 28
3 5 7 7 10 6 3 5 9 17 10 11 14 15 11 28 18 8 1 10 8 12 16 17 16 18 20 26 30 35 34 36 35 32 32 33 35 33 33 27 30 29 27 25 18 25 35 29 32
6 10 5 5 3 4 2 1 11 11 16 21 27 32 29 22 33 11 6 5 6 8 10 11 17 20 23 22 25 25 27 29 33 34 36 35 34 27 24 25 19 17 18 23 24 27 25 22 23
2 5 6 5 5 3 4 0 6 9 15 20 24 28 29 33 35 33 20 3 11 12 16 23 23 23 23 26 29 29 29 26 31 35 35 31 28 24 22 18 15 15 11 15 23 24 28 28 25
8 6 4 4 2 5 4 5 7 7 10 17 23 24 23 25 32 35 32 28 9 2 5 8 8 13 15 4 21 25 21 11 18 19 24 22 17 15 15 19 11 9 8 8 7 9 8 13 14

GFSSGP_700_spd_123.txt.gz
Wind_Speed
15 15 16 18 8 8 13 9 7 5 9 12 16 12 12 12 10 7 9 20 22 20 13 9 9 7 6 4 1 0 0 1 1 1 4 3 0 4 6 4 1 1 4 7 10 11 8 6 5
17 17 19 10 7 13 12 12 8 8 9 11 14 13 13 7 21 11 11 13 17 14 17 14 11 10 8 7 3 2 2 1 1 1 1 2 1 3 6 5 2 2 3 6 8 10 8 6 5
16 20 11 6 8 15 6 10 9 15 9 10 9 15 14 18 20 20 13 12 11 15 16 15 13 12 11 10 7 5 4 2 2 1 1 1 1 3 5 4 4 2 1 4 7 8 7 5 5
18 18 14 9 11 9 4 7 11 7 8 10 12 7 19 19 16 19 18 14 12 12 14 13 15 14 14 12 10 8 7 5 4 3 2 2 2 2 5 3 4 2 0 2 5 7 6 4 2
18 13 8 9 11 7 7 10 8 7 7 7 12 8 11 16 18 17 19 20 15 13 14 14 14 15 15 14 12 11 10 8 6 6 5 5 3 5 5 5 4 2 1 1 2 4 4 3 1
18 14 8 12 11 8 7 10 10 8 6 7 8 10 13 11 13 17 21 23 24 18 19 16 16 16 15 16 15 12 15 15 12 10 9 9 8 8 8 8 8 5 3 4 2 2 3 2 1
12 11 8 7 9 8 7 14 12 7 8 7 17 7 14 14 16 16 17 23 24 24 24 22 23 23 22 21 20 17 12 13 11 12 12 11 12 12 10 11 10 7 6 6 6 4 4 3 3
20 14 9 8 8 8 15 14 14 14 8 21 14 6 9 21 16 18 19 19 21 25 25 25 24 23 25 25 23 20 19 16 15 13 11 11 13 13 13 13 13 12 9 9 9 8 7 5 4
17 9 7 7 7 12 12 13 15 15 17 15 16 19 22 18 18 21 21 22 22 24 28 28 28 26 25 25 26 25 23 23 22 19 16 15 13 13 15 16 15 15 13 13 12 11 10 9 7
17 10 9 16 13 13 12 12 14 14 15 13 16 17 20 20 22 23 24 25 26 26 26 29 28 27 28 26 26 26 26 25 24 22 20 20 18 17 15 16 18 18 18 17 15 14 14 12 10
18 8 18 14 15 14 15 16 16 19 15 17 20 20 22 22 21 22 24 26 28 30 29 31 32 32 32 31 29 28 28 29 27 26 26 26 24 22 18 17 19 21 19 19 18 17 16 15 14
15 17 17 17 17 17 18 19 21 22 16 24 23 23 24 25 25 25 25 27 29 31 33 33 34 34 34 34 33 31 30 30 29 28 26 26 27 26 22 21 19 19 21 21 20 19 19 18 17
15 17 16 17 18 19 19 19 25 21 22 24 26 26 27 28 27 29 30 28 30 32 33 36 38 38 38 38 35 34 31 30 29 28 28 27 27 28 26 24 22 20 19 19 20 21 22 22 20
15 16 18 18 18 20 21 21 27 21 25 25 28 28 29 30 30 30 30 30 31 32 33 37 40 41 42 41 39 38 37 36 33 31 28 26 25 23 22 24 24 22 20 19 20 21 23 24 23
13 13 15 16 17 21 21 24 28 22 24 25 26 28 29 30 31 32 33 33 32 33 32 36 40 43 44 44 44 42 40 40 36 33 32 30 26 25 25 23 23 23 23 22 24 24 22 25 24
8 11 7 15 15 19 18 22 21 22 24 26 28 29 32 33 35 35 36 36 35 35 35 34 39 43 46 47 47 46 44 43 39 37 35 33 30 26 24 25 24 23 23 24 22 21 23 28 26
9 6 9 10 15 19 19 22 21 23 26 30 30 33 35 37 37 38 40 40 40 40 39 37 38 41 45 47 49 51 48 46 43 42 38 35 33 30 27 25 23 23 22 21 22 24 24 26 28
7 6 7 8 12 19 21 28 26 24 26 29 31 33 34 37 40 42 41 43 42 42 41 40 38 40 43 45 49 52 52 50 47 45 40 38 35 31 31 28 25 24 23 22 24 25 25 26 28
10 8 8 10 12 22 21 25 25 25 26 27 28 31 33 36 38 40 40 40 40 39 38 39 39 39 41 44 45 51 52 53 49 47 43 40 37 35 33 29 27 27 27 24 24 26 29 31 31
7 6 7 11 13 18 21 28 23 19 15 18 21 26 29 31 33 36 38 39 41 39 39 38 38 39 40 44 46 46 49 52 51 48 45 42 38 37 35 31 29 28 26 30 32 34 34 37 35
4 4 6 9 16 15 14 14 2 8 8 15 20 25 29 31 33 35 38 38 41 43 40 37 35 36 39 41 43 46 48 50 52 52 50 47 42 41 40 37 35 34 37 37 36 38 38 41 42
2 6 7 10 13 5 13 10 11 13 9 22 21 29 31 30 28 30 31 31 34 39 38 35 33 32 34 37 41 44 45 50 52 51 51 46 45 45 43 39 40 39 38 39 40 38 40 43 42
3 8 11 12 11 15 2 6 7 14 23 18 30 29 29 33 35 39 33 30 27 29 29 29 29 28 31 34 37 39 43 46 49 48 47 49 47 45 43 42 41 39 39 38 40 40 37 35 36
8 9 9 4 4 5 3 9 9 16 21 30 30 28 30 32 37 36 35 33 26 23 26 26 26 26 28 31 35 40 41 43 46 46 43 48 46 45 43 42 38 38 37 37 34 31 31 31 33
4 6 2 3 2 4 1 8 17 22 26 32 27 26 27 29 36 28 24 28 31 26 25 23 22 21 23 25 31 36 40 40 41 42 45 38 43 41 40 37 37 36 36 35 32 29 31 31 33
2 2 2 4 3 7 9 7 8 21 25 20 15 12 11 26 26 22 17 11 12 19 23 22 20 19 21 23 27 30 35 35 39 39 40 40 40 38 36 38 36 31 31 31 31 31 29 28 30
3 1 5 6 11 6 7 9 17 16 6 6 10 15 16 20 24 16 11 8 4 9 17 17 19 21 22 22 22 23 28 32 36 38 38 38 40 39 36 34 33 33 31 34 31 32 29 31 33
4 7 4 5 3 4 5 6 11 6 1 2 8 16 19 20 23 19 5 4 6 8 9 10 16 15 16 16 17 20 25 24 31 37 37 38 36 36 34 35 36 37 34 30 33 29 26 25 21
4 5 5 6 6 3 5 2 8 3 2 2 7 10 15 22 24 24 17 6 10 10 10 14 10 11 12 13 15 18 20 25 28 31 34 35 36 36 37 36 33 28 33 21 22 23 20 19 24
9 9 9 6 0 7 6 9 8 7 5 2 10 12 13 14 24 25 21 16 11 7 7 2 14 18 18 17 20 19 23 27 14 35 35 35 32 37 37 40 27 22 18 14 15 16 13 16 16